<?xml version="1.0" encoding="UTF-8" standalone="no" ?>
<gpx xmlns="http://www.topografix.com/GPX/1/1" xmlns:xsi="http://www.w3.org/2001/XMLSchema-instance" xsi:schemaLocation="http://www.topografix.com/GPX/1/1 http://www.topografix.com/GPX/1/1/gpx.xsd" version="1.1" creator="VisuGPX - https://www.visugpx.com">
  <metadata>
    <name>Etape Sourdeval Granville</name>
  </metadata>
  <trk>
    <name><![CDATA[14211700-Etape Sourdeval Granville]]></name>
    <extensions>
      <line xmlns="http://www.topografix.com/GPX/gpx_style/0/2">
        <color>0000FF</color>
        <width>4</width>
      </line>
    </extensions>
    <trkseg>
      <trkpt lat="48.72403" lon="-0.92322">
        <ele>214</ele>
        <time>2022-03-11T16:28:03Z</time>
      </trkpt>
      <trkpt lat="48.72403" lon="-0.92392">
        <ele>213</ele>
        <time>2022-03-11T16:28:11Z</time>
      </trkpt>
      <trkpt lat="48.72413" lon="-0.92904">
        <ele>217</ele>
        <time>2022-03-11T16:29:11Z</time>
      </trkpt>
      <trkpt lat="48.72417" lon="-0.93107">
        <ele>221</ele>
        <time>2022-03-11T16:29:35Z</time>
      </trkpt>
      <trkpt lat="48.7242" lon="-0.93133">
        <ele>222</ele>
        <time>2022-03-11T16:29:38Z</time>
      </trkpt>
      <trkpt lat="48.72425" lon="-0.93157">
        <ele>222</ele>
        <time>2022-03-11T16:29:41Z</time>
      </trkpt>
      <trkpt lat="48.72432" lon="-0.93178">
        <ele>222</ele>
        <time>2022-03-11T16:29:44Z</time>
      </trkpt>
      <trkpt lat="48.7244" lon="-0.93199">
        <ele>222</ele>
        <time>2022-03-11T16:29:47Z</time>
      </trkpt>
      <trkpt lat="48.72544" lon="-0.93426">
        <ele>215</ele>
        <time>2022-03-11T16:30:19Z</time>
      </trkpt>
      <trkpt lat="48.72556" lon="-0.93465">
        <ele>215</ele>
        <time>2022-03-11T16:30:24Z</time>
      </trkpt>
      <trkpt lat="48.7256" lon="-0.93474">
        <ele>214</ele>
        <time>2022-03-11T16:30:26Z</time>
      </trkpt>
      <trkpt lat="48.72581" lon="-0.93507">
        <ele>211</ele>
        <time>2022-03-11T16:30:31Z</time>
      </trkpt>
      <trkpt lat="48.72585" lon="-0.93519">
        <ele>210</ele>
        <time>2022-03-11T16:30:33Z</time>
      </trkpt>
      <trkpt lat="48.72587" lon="-0.93535">
        <ele>210</ele>
        <time>2022-03-11T16:30:34Z</time>
      </trkpt>
      <trkpt lat="48.72587" lon="-0.93568">
        <ele>209</ele>
        <time>2022-03-11T16:30:38Z</time>
      </trkpt>
      <trkpt lat="48.72582" lon="-0.93629">
        <ele>209</ele>
        <time>2022-03-11T16:30:46Z</time>
      </trkpt>
      <trkpt lat="48.72577" lon="-0.93652">
        <ele>209</ele>
        <time>2022-03-11T16:30:48Z</time>
      </trkpt>
      <trkpt lat="48.72561" lon="-0.937">
        <ele>209</ele>
        <time>2022-03-11T16:30:55Z</time>
      </trkpt>
      <trkpt lat="48.72548" lon="-0.9373">
        <ele>209</ele>
        <time>2022-03-11T16:30:59Z</time>
      </trkpt>
      <trkpt lat="48.72508" lon="-0.93811">
        <ele>205</ele>
        <time>2022-03-11T16:31:11Z</time>
      </trkpt>
      <trkpt lat="48.72491" lon="-0.93841">
        <ele>203</ele>
        <time>2022-03-11T16:31:15Z</time>
      </trkpt>
      <trkpt lat="48.72322" lon="-0.94055">
        <ele>195</ele>
        <time>2022-03-11T16:31:55Z</time>
      </trkpt>
      <trkpt lat="48.72296" lon="-0.94092">
        <ele>196</ele>
        <time>2022-03-11T16:32:01Z</time>
      </trkpt>
      <trkpt lat="48.72282" lon="-0.94123">
        <ele>197</ele>
        <time>2022-03-11T16:32:05Z</time>
      </trkpt>
      <trkpt lat="48.72271" lon="-0.94153">
        <ele>198</ele>
        <time>2022-03-11T16:32:09Z</time>
      </trkpt>
      <trkpt lat="48.72257" lon="-0.94213">
        <ele>198</ele>
        <time>2022-03-11T16:32:17Z</time>
      </trkpt>
      <trkpt lat="48.72253" lon="-0.9425">
        <ele>196</ele>
        <time>2022-03-11T16:32:21Z</time>
      </trkpt>
      <trkpt lat="48.72253" lon="-0.94286">
        <ele>197</ele>
        <time>2022-03-11T16:32:26Z</time>
      </trkpt>
      <trkpt lat="48.72256" lon="-0.94314">
        <ele>197</ele>
        <time>2022-03-11T16:32:29Z</time>
      </trkpt>
      <trkpt lat="48.72262" lon="-0.94346">
        <ele>197</ele>
        <time>2022-03-11T16:32:33Z</time>
      </trkpt>
      <trkpt lat="48.72272" lon="-0.9438">
        <ele>197</ele>
        <time>2022-03-11T16:32:37Z</time>
      </trkpt>
      <trkpt lat="48.72283" lon="-0.94408">
        <ele>195</ele>
        <time>2022-03-11T16:32:41Z</time>
      </trkpt>
      <trkpt lat="48.72303" lon="-0.94454">
        <ele>192</ele>
        <time>2022-03-11T16:32:47Z</time>
      </trkpt>
      <trkpt lat="48.72326" lon="-0.94496">
        <ele>187</ele>
        <time>2022-03-11T16:32:54Z</time>
      </trkpt>
      <trkpt lat="48.72342" lon="-0.94529">
        <ele>185</ele>
        <time>2022-03-11T16:32:59Z</time>
      </trkpt>
      <trkpt lat="48.72351" lon="-0.94573">
        <ele>184</ele>
        <time>2022-03-11T16:33:04Z</time>
      </trkpt>
      <trkpt lat="48.72352" lon="-0.94597">
        <ele>184</ele>
        <time>2022-03-11T16:33:07Z</time>
      </trkpt>
      <trkpt lat="48.7235" lon="-0.94623">
        <ele>183</ele>
        <time>2022-03-11T16:33:10Z</time>
      </trkpt>
      <trkpt lat="48.72326" lon="-0.94769">
        <ele>181</ele>
        <time>2022-03-11T16:33:28Z</time>
      </trkpt>
      <trkpt lat="48.72325" lon="-0.94803">
        <ele>181</ele>
        <time>2022-03-11T16:33:32Z</time>
      </trkpt>
      <trkpt lat="48.72327" lon="-0.94838">
        <ele>180</ele>
        <time>2022-03-11T16:33:36Z</time>
      </trkpt>
      <trkpt lat="48.72332" lon="-0.94873">
        <ele>179</ele>
        <time>2022-03-11T16:33:40Z</time>
      </trkpt>
      <trkpt lat="48.72338" lon="-0.94898">
        <ele>179</ele>
        <time>2022-03-11T16:33:43Z</time>
      </trkpt>
      <trkpt lat="48.72358" lon="-0.94954">
        <ele>180</ele>
        <time>2022-03-11T16:33:51Z</time>
      </trkpt>
      <trkpt lat="48.7237" lon="-0.94975">
        <ele>179</ele>
        <time>2022-03-11T16:33:54Z</time>
      </trkpt>
      <trkpt lat="48.72398" lon="-0.95013">
        <ele>175</ele>
        <time>2022-03-11T16:34:00Z</time>
      </trkpt>
      <trkpt lat="48.72458" lon="-0.95086">
        <ele>174</ele>
        <time>2022-03-11T16:34:14Z</time>
      </trkpt>
      <trkpt lat="48.7247" lon="-0.95106">
        <ele>173</ele>
        <time>2022-03-11T16:34:17Z</time>
      </trkpt>
      <trkpt lat="48.72478" lon="-0.95131">
        <ele>173</ele>
        <time>2022-03-11T16:34:21Z</time>
      </trkpt>
      <trkpt lat="48.72483" lon="-0.95157">
        <ele>172</ele>
        <time>2022-03-11T16:34:24Z</time>
      </trkpt>
      <trkpt lat="48.72483" lon="-0.9518">
        <ele>172</ele>
        <time>2022-03-11T16:34:26Z</time>
      </trkpt>
      <trkpt lat="48.7248" lon="-0.95204">
        <ele>172</ele>
        <time>2022-03-11T16:34:29Z</time>
      </trkpt>
      <trkpt lat="48.72472" lon="-0.95233">
        <ele>172</ele>
        <time>2022-03-11T16:34:33Z</time>
      </trkpt>
      <trkpt lat="48.72434" lon="-0.95339">
        <ele>168</ele>
        <time>2022-03-11T16:34:47Z</time>
      </trkpt>
      <trkpt lat="48.72407" lon="-0.95403">
        <ele>163</ele>
        <time>2022-03-11T16:34:56Z</time>
      </trkpt>
      <trkpt lat="48.72368" lon="-0.95486">
        <ele>163</ele>
        <time>2022-03-11T16:35:08Z</time>
      </trkpt>
      <trkpt lat="48.72365" lon="-0.95491">
        <ele>163</ele>
        <time>2022-03-11T16:35:09Z</time>
      </trkpt>
      <trkpt lat="48.72317" lon="-0.95596">
        <ele>165</ele>
        <time>2022-03-11T16:35:24Z</time>
      </trkpt>
      <trkpt lat="48.723" lon="-0.95638">
        <ele>167</ele>
        <time>2022-03-11T16:35:30Z</time>
      </trkpt>
      <trkpt lat="48.72291" lon="-0.95672">
        <ele>168</ele>
        <time>2022-03-11T16:35:34Z</time>
      </trkpt>
      <trkpt lat="48.72282" lon="-0.9573">
        <ele>168</ele>
        <time>2022-03-11T16:35:41Z</time>
      </trkpt>
      <trkpt lat="48.72281" lon="-0.95753">
        <ele>167</ele>
        <time>2022-03-11T16:35:44Z</time>
      </trkpt>
      <trkpt lat="48.72282" lon="-0.95796">
        <ele>169</ele>
        <time>2022-03-11T16:35:49Z</time>
      </trkpt>
      <trkpt lat="48.72285" lon="-0.95833">
        <ele>171</ele>
        <time>2022-03-11T16:35:53Z</time>
      </trkpt>
      <trkpt lat="48.72292" lon="-0.95864">
        <ele>171</ele>
        <time>2022-03-11T16:35:57Z</time>
      </trkpt>
      <trkpt lat="48.72309" lon="-0.95916">
        <ele>171</ele>
        <time>2022-03-11T16:36:04Z</time>
      </trkpt>
      <trkpt lat="48.7232" lon="-0.95941">
        <ele>173</ele>
        <time>2022-03-11T16:36:07Z</time>
      </trkpt>
      <trkpt lat="48.72339" lon="-0.95972">
        <ele>176</ele>
        <time>2022-03-11T16:36:12Z</time>
      </trkpt>
      <trkpt lat="48.72356" lon="-0.95996">
        <ele>178</ele>
        <time>2022-03-11T16:36:16Z</time>
      </trkpt>
      <trkpt lat="48.72388" lon="-0.96027">
        <ele>177</ele>
        <time>2022-03-11T16:36:23Z</time>
      </trkpt>
      <trkpt lat="48.72466" lon="-0.96075">
        <ele>175</ele>
        <time>2022-03-11T16:36:38Z</time>
      </trkpt>
      <trkpt lat="48.72495" lon="-0.961">
        <ele>174</ele>
        <time>2022-03-11T16:36:44Z</time>
      </trkpt>
      <trkpt lat="48.72517" lon="-0.96134">
        <ele>173</ele>
        <time>2022-03-11T16:36:50Z</time>
      </trkpt>
      <trkpt lat="48.72544" lon="-0.96189">
        <ele>173</ele>
        <time>2022-03-11T16:36:58Z</time>
      </trkpt>
      <trkpt lat="48.72561" lon="-0.96216">
        <ele>174</ele>
        <time>2022-03-11T16:37:02Z</time>
      </trkpt>
      <trkpt lat="48.72577" lon="-0.96235">
        <ele>175</ele>
        <time>2022-03-11T16:37:06Z</time>
      </trkpt>
      <trkpt lat="48.72648" lon="-0.96309">
        <ele>179</ele>
        <time>2022-03-11T16:37:21Z</time>
      </trkpt>
      <trkpt lat="48.72667" lon="-0.96327">
        <ele>182</ele>
        <time>2022-03-11T16:37:25Z</time>
      </trkpt>
      <trkpt lat="48.72681" lon="-0.96336">
        <ele>183</ele>
        <time>2022-03-11T16:37:28Z</time>
      </trkpt>
      <trkpt lat="48.72705" lon="-0.96345">
        <ele>184</ele>
        <time>2022-03-11T16:37:32Z</time>
      </trkpt>
      <trkpt lat="48.72719" lon="-0.96345">
        <ele>184</ele>
        <time>2022-03-11T16:37:35Z</time>
      </trkpt>
      <trkpt lat="48.72749" lon="-0.96341">
        <ele>182</ele>
        <time>2022-03-11T16:37:40Z</time>
      </trkpt>
      <trkpt lat="48.7277" lon="-0.96333">
        <ele>180</ele>
        <time>2022-03-11T16:37:44Z</time>
      </trkpt>
      <trkpt lat="48.728" lon="-0.96318">
        <ele>177</ele>
        <time>2022-03-11T16:37:49Z</time>
      </trkpt>
      <trkpt lat="48.72818" lon="-0.96303">
        <ele>174</ele>
        <time>2022-03-11T16:37:53Z</time>
      </trkpt>
      <trkpt lat="48.72836" lon="-0.96285">
        <ele>172</ele>
        <time>2022-03-11T16:37:57Z</time>
      </trkpt>
      <trkpt lat="48.72855" lon="-0.96259">
        <ele>172</ele>
        <time>2022-03-11T16:38:01Z</time>
      </trkpt>
      <trkpt lat="48.72902" lon="-0.96162">
        <ele>169</ele>
        <time>2022-03-11T16:38:16Z</time>
      </trkpt>
      <trkpt lat="48.72913" lon="-0.96145">
        <ele>169</ele>
        <time>2022-03-11T16:38:18Z</time>
      </trkpt>
      <trkpt lat="48.72926" lon="-0.96132">
        <ele>168</ele>
        <time>2022-03-11T16:38:21Z</time>
      </trkpt>
      <trkpt lat="48.72953" lon="-0.96122">
        <ele>167</ele>
        <time>2022-03-11T16:38:26Z</time>
      </trkpt>
      <trkpt lat="48.72964" lon="-0.96121">
        <ele>167</ele>
        <time>2022-03-11T16:38:28Z</time>
      </trkpt>
      <trkpt lat="48.72978" lon="-0.96124">
        <ele>168</ele>
        <time>2022-03-11T16:38:31Z</time>
      </trkpt>
      <trkpt lat="48.72995" lon="-0.9613">
        <ele>170</ele>
        <time>2022-03-11T16:38:34Z</time>
      </trkpt>
      <trkpt lat="48.7301" lon="-0.96142">
        <ele>170</ele>
        <time>2022-03-11T16:38:37Z</time>
      </trkpt>
      <trkpt lat="48.73022" lon="-0.96154">
        <ele>169</ele>
        <time>2022-03-11T16:38:39Z</time>
      </trkpt>
      <trkpt lat="48.7303" lon="-0.96167">
        <ele>169</ele>
        <time>2022-03-11T16:38:41Z</time>
      </trkpt>
      <trkpt lat="48.73037" lon="-0.96183">
        <ele>169</ele>
        <time>2022-03-11T16:38:44Z</time>
      </trkpt>
      <trkpt lat="48.73042" lon="-0.96204">
        <ele>169</ele>
        <time>2022-03-11T16:38:46Z</time>
      </trkpt>
      <trkpt lat="48.73047" lon="-0.96235">
        <ele>170</ele>
        <time>2022-03-11T16:38:50Z</time>
      </trkpt>
      <trkpt lat="48.73054" lon="-0.96326">
        <ele>175</ele>
        <time>2022-03-11T16:39:01Z</time>
      </trkpt>
      <trkpt lat="48.73063" lon="-0.96376">
        <ele>180</ele>
        <time>2022-03-11T16:39:07Z</time>
      </trkpt>
      <trkpt lat="48.73069" lon="-0.96394">
        <ele>181</ele>
        <time>2022-03-11T16:39:09Z</time>
      </trkpt>
      <trkpt lat="48.73079" lon="-0.96413">
        <ele>182</ele>
        <time>2022-03-11T16:39:12Z</time>
      </trkpt>
      <trkpt lat="48.73092" lon="-0.96434">
        <ele>183</ele>
        <time>2022-03-11T16:39:15Z</time>
      </trkpt>
      <trkpt lat="48.73109" lon="-0.96454">
        <ele>184</ele>
        <time>2022-03-11T16:39:19Z</time>
      </trkpt>
      <trkpt lat="48.73124" lon="-0.96468">
        <ele>185</ele>
        <time>2022-03-11T16:39:22Z</time>
      </trkpt>
      <trkpt lat="48.73143" lon="-0.9648">
        <ele>185</ele>
        <time>2022-03-11T16:39:26Z</time>
      </trkpt>
      <trkpt lat="48.73159" lon="-0.96487">
        <ele>185</ele>
        <time>2022-03-11T16:39:29Z</time>
      </trkpt>
      <trkpt lat="48.73204" lon="-0.96493">
        <ele>182</ele>
        <time>2022-03-11T16:39:37Z</time>
      </trkpt>
      <trkpt lat="48.7326" lon="-0.96481">
        <ele>174</ele>
        <time>2022-03-11T16:39:47Z</time>
      </trkpt>
      <trkpt lat="48.73277" lon="-0.96483">
        <ele>171</ele>
        <time>2022-03-11T16:39:50Z</time>
      </trkpt>
      <trkpt lat="48.73289" lon="-0.96489">
        <ele>170</ele>
        <time>2022-03-11T16:39:52Z</time>
      </trkpt>
      <trkpt lat="48.73304" lon="-0.965">
        <ele>169</ele>
        <time>2022-03-11T16:39:55Z</time>
      </trkpt>
      <trkpt lat="48.73316" lon="-0.96513">
        <ele>167</ele>
        <time>2022-03-11T16:39:58Z</time>
      </trkpt>
      <trkpt lat="48.73326" lon="-0.96531">
        <ele>166</ele>
        <time>2022-03-11T16:40:01Z</time>
      </trkpt>
      <trkpt lat="48.73342" lon="-0.96575">
        <ele>165</ele>
        <time>2022-03-11T16:40:07Z</time>
      </trkpt>
      <trkpt lat="48.73353" lon="-0.96623">
        <ele>162</ele>
        <time>2022-03-11T16:40:13Z</time>
      </trkpt>
      <trkpt lat="48.73354" lon="-0.9664">
        <ele>162</ele>
        <time>2022-03-11T16:40:15Z</time>
      </trkpt>
      <trkpt lat="48.73353" lon="-0.96653">
        <ele>163</ele>
        <time>2022-03-11T16:40:16Z</time>
      </trkpt>
      <trkpt lat="48.73349" lon="-0.96673">
        <ele>163</ele>
        <time>2022-03-11T16:40:19Z</time>
      </trkpt>
      <trkpt lat="48.73342" lon="-0.96688">
        <ele>163</ele>
        <time>2022-03-11T16:40:21Z</time>
      </trkpt>
      <trkpt lat="48.73301" lon="-0.96741">
        <ele>164</ele>
        <time>2022-03-11T16:40:30Z</time>
      </trkpt>
      <trkpt lat="48.73272" lon="-0.96769">
        <ele>167</ele>
        <time>2022-03-11T16:40:36Z</time>
      </trkpt>
      <trkpt lat="48.73253" lon="-0.96799">
        <ele>165</ele>
        <time>2022-03-11T16:40:41Z</time>
      </trkpt>
      <trkpt lat="48.73241" lon="-0.96826">
        <ele>163</ele>
        <time>2022-03-11T16:40:45Z</time>
      </trkpt>
      <trkpt lat="48.73214" lon="-0.96923">
        <ele>153</ele>
        <time>2022-03-11T16:40:57Z</time>
      </trkpt>
      <trkpt lat="48.732" lon="-0.96944">
        <ele>151</ele>
        <time>2022-03-11T16:41:01Z</time>
      </trkpt>
      <trkpt lat="48.73184" lon="-0.96956">
        <ele>151</ele>
        <time>2022-03-11T16:41:04Z</time>
      </trkpt>
      <trkpt lat="48.73051" lon="-0.97013">
        <ele>156</ele>
        <time>2022-03-11T16:41:29Z</time>
      </trkpt>
      <trkpt lat="48.73032" lon="-0.97033">
        <ele>158</ele>
        <time>2022-03-11T16:41:33Z</time>
      </trkpt>
      <trkpt lat="48.7302" lon="-0.97054">
        <ele>158</ele>
        <time>2022-03-11T16:41:36Z</time>
      </trkpt>
      <trkpt lat="48.73009" lon="-0.97088">
        <ele>156</ele>
        <time>2022-03-11T16:41:41Z</time>
      </trkpt>
      <trkpt lat="48.73" lon="-0.97171">
        <ele>145</ele>
        <time>2022-03-11T16:41:50Z</time>
      </trkpt>
      <trkpt lat="48.7298" lon="-0.97238">
        <ele>141</ele>
        <time>2022-03-11T16:41:59Z</time>
      </trkpt>
      <trkpt lat="48.72961" lon="-0.97274">
        <ele>139</ele>
        <time>2022-03-11T16:42:04Z</time>
      </trkpt>
      <trkpt lat="48.72913" lon="-0.97337">
        <ele>136</ele>
        <time>2022-03-11T16:42:16Z</time>
      </trkpt>
      <trkpt lat="48.72854" lon="-0.97403">
        <ele>133</ele>
        <time>2022-03-11T16:42:29Z</time>
      </trkpt>
      <trkpt lat="48.72808" lon="-0.97445">
        <ele>134</ele>
        <time>2022-03-11T16:42:38Z</time>
      </trkpt>
      <trkpt lat="48.72735" lon="-0.97505">
        <ele>138</ele>
        <time>2022-03-11T16:42:53Z</time>
      </trkpt>
      <trkpt lat="48.72715" lon="-0.9753">
        <ele>142</ele>
        <time>2022-03-11T16:42:58Z</time>
      </trkpt>
      <trkpt lat="48.72685" lon="-0.97593">
        <ele>141</ele>
        <time>2022-03-11T16:43:07Z</time>
      </trkpt>
      <trkpt lat="48.72626" lon="-0.97759">
        <ele>131</ele>
        <time>2022-03-11T16:43:29Z</time>
      </trkpt>
      <trkpt lat="48.72598" lon="-0.97827">
        <ele>126</ele>
        <time>2022-03-11T16:43:38Z</time>
      </trkpt>
      <trkpt lat="48.72561" lon="-0.97888">
        <ele>124</ele>
        <time>2022-03-11T16:43:48Z</time>
      </trkpt>
      <trkpt lat="48.7253" lon="-0.97934">
        <ele>124</ele>
        <time>2022-03-11T16:43:56Z</time>
      </trkpt>
      <trkpt lat="48.7248" lon="-0.97999">
        <ele>123</ele>
        <time>2022-03-11T16:44:08Z</time>
      </trkpt>
      <trkpt lat="48.72463" lon="-0.98026">
        <ele>122</ele>
        <time>2022-03-11T16:44:12Z</time>
      </trkpt>
      <trkpt lat="48.72407" lon="-0.98135">
        <ele>116</ele>
        <time>2022-03-11T16:44:28Z</time>
      </trkpt>
      <trkpt lat="48.72394" lon="-0.98154">
        <ele>115</ele>
        <time>2022-03-11T16:44:31Z</time>
      </trkpt>
      <trkpt lat="48.72378" lon="-0.98172">
        <ele>114</ele>
        <time>2022-03-11T16:44:35Z</time>
      </trkpt>
      <trkpt lat="48.72339" lon="-0.98202">
        <ele>115</ele>
        <time>2022-03-11T16:44:43Z</time>
      </trkpt>
      <trkpt lat="48.72312" lon="-0.9822">
        <ele>115</ele>
        <time>2022-03-11T16:44:48Z</time>
      </trkpt>
      <trkpt lat="48.72229" lon="-0.98255">
        <ele>116</ele>
        <time>2022-03-11T16:45:03Z</time>
      </trkpt>
      <trkpt lat="48.72205" lon="-0.98269">
        <ele>116</ele>
        <time>2022-03-11T16:45:08Z</time>
      </trkpt>
      <trkpt lat="48.72186" lon="-0.98285">
        <ele>116</ele>
        <time>2022-03-11T16:45:12Z</time>
      </trkpt>
      <trkpt lat="48.72169" lon="-0.98304">
        <ele>116</ele>
        <time>2022-03-11T16:45:15Z</time>
      </trkpt>
      <trkpt lat="48.72153" lon="-0.98326">
        <ele>116</ele>
        <time>2022-03-11T16:45:19Z</time>
      </trkpt>
      <trkpt lat="48.72141" lon="-0.98349">
        <ele>117</ele>
        <time>2022-03-11T16:45:23Z</time>
      </trkpt>
      <trkpt lat="48.72131" lon="-0.98372">
        <ele>118</ele>
        <time>2022-03-11T16:45:26Z</time>
      </trkpt>
      <trkpt lat="48.72122" lon="-0.984">
        <ele>120</ele>
        <time>2022-03-11T16:45:30Z</time>
      </trkpt>
      <trkpt lat="48.72113" lon="-0.9844">
        <ele>121</ele>
        <time>2022-03-11T16:45:35Z</time>
      </trkpt>
      <trkpt lat="48.72104" lon="-0.98503">
        <ele>120</ele>
        <time>2022-03-11T16:45:42Z</time>
      </trkpt>
      <trkpt lat="48.72061" lon="-0.98899">
        <ele>129</ele>
        <time>2022-03-11T16:46:29Z</time>
      </trkpt>
      <trkpt lat="48.72059" lon="-0.98956">
        <ele>129</ele>
        <time>2022-03-11T16:46:36Z</time>
      </trkpt>
      <trkpt lat="48.72062" lon="-0.99012">
        <ele>126</ele>
        <time>2022-03-11T16:46:43Z</time>
      </trkpt>
      <trkpt lat="48.72114" lon="-0.99419">
        <ele>122</ele>
        <time>2022-03-11T16:47:31Z</time>
      </trkpt>
      <trkpt lat="48.72116" lon="-0.99459">
        <ele>121</ele>
        <time>2022-03-11T16:47:36Z</time>
      </trkpt>
      <trkpt lat="48.72113" lon="-0.99486">
        <ele>121</ele>
        <time>2022-03-11T16:47:39Z</time>
      </trkpt>
      <trkpt lat="48.72106" lon="-0.99505">
        <ele>122</ele>
        <time>2022-03-11T16:47:42Z</time>
      </trkpt>
      <trkpt lat="48.72088" lon="-0.99549">
        <ele>120</ele>
        <time>2022-03-11T16:47:48Z</time>
      </trkpt>
      <trkpt lat="48.72047" lon="-0.99605">
        <ele>121</ele>
        <time>2022-03-11T16:47:58Z</time>
      </trkpt>
      <trkpt lat="48.72041" lon="-0.99615">
        <ele>121</ele>
        <time>2022-03-11T16:47:59Z</time>
      </trkpt>
      <trkpt lat="48.72034" lon="-0.99639">
        <ele>122</ele>
        <time>2022-03-11T16:48:02Z</time>
      </trkpt>
      <trkpt lat="48.72031" lon="-0.99667">
        <ele>122</ele>
        <time>2022-03-11T16:48:06Z</time>
      </trkpt>
      <trkpt lat="48.7202" lon="-0.99947">
        <ele>121</ele>
        <time>2022-03-11T16:48:39Z</time>
      </trkpt>
      <trkpt lat="48.72012" lon="-1.00039">
        <ele>121</ele>
        <time>2022-03-11T16:48:49Z</time>
      </trkpt>
      <trkpt lat="48.72008" lon="-1.00072">
        <ele>119</ele>
        <time>2022-03-11T16:48:53Z</time>
      </trkpt>
      <trkpt lat="48.72" lon="-1.0011">
        <ele>117</ele>
        <time>2022-03-11T16:48:58Z</time>
      </trkpt>
      <trkpt lat="48.71988" lon="-1.00152">
        <ele>115</ele>
        <time>2022-03-11T16:49:03Z</time>
      </trkpt>
      <trkpt lat="48.71975" lon="-1.0019">
        <ele>115</ele>
        <time>2022-03-11T16:49:08Z</time>
      </trkpt>
      <trkpt lat="48.71936" lon="-1.00284">
        <ele>112</ele>
        <time>2022-03-11T16:49:22Z</time>
      </trkpt>
      <trkpt lat="48.71916" lon="-1.00325">
        <ele>108</ele>
        <time>2022-03-11T16:49:27Z</time>
      </trkpt>
      <trkpt lat="48.71899" lon="-1.00352">
        <ele>106</ele>
        <time>2022-03-11T16:49:32Z</time>
      </trkpt>
      <trkpt lat="48.7188" lon="-1.00374">
        <ele>106</ele>
        <time>2022-03-11T16:49:36Z</time>
      </trkpt>
      <trkpt lat="48.7186" lon="-1.00393">
        <ele>106</ele>
        <time>2022-03-11T16:49:40Z</time>
      </trkpt>
      <trkpt lat="48.71841" lon="-1.00408">
        <ele>106</ele>
        <time>2022-03-11T16:49:44Z</time>
      </trkpt>
      <trkpt lat="48.71819" lon="-1.00421">
        <ele>106</ele>
        <time>2022-03-11T16:49:48Z</time>
      </trkpt>
      <trkpt lat="48.71807" lon="-1.00426">
        <ele>105</ele>
        <time>2022-03-11T16:49:51Z</time>
      </trkpt>
      <trkpt lat="48.71767" lon="-1.00438">
        <ele>104</ele>
        <time>2022-03-11T16:49:58Z</time>
      </trkpt>
      <trkpt lat="48.71693" lon="-1.00451">
        <ele>101</ele>
        <time>2022-03-11T16:50:11Z</time>
      </trkpt>
      <trkpt lat="48.7166" lon="-1.0046">
        <ele>100</ele>
        <time>2022-03-11T16:50:17Z</time>
      </trkpt>
      <trkpt lat="48.71633" lon="-1.00471">
        <ele>100</ele>
        <time>2022-03-11T16:50:22Z</time>
      </trkpt>
      <trkpt lat="48.71573" lon="-1.00505">
        <ele>98</ele>
        <time>2022-03-11T16:50:33Z</time>
      </trkpt>
      <trkpt lat="48.7153" lon="-1.00524">
        <ele>99</ele>
        <time>2022-03-11T16:50:41Z</time>
      </trkpt>
      <trkpt lat="48.71515" lon="-1.00528">
        <ele>99</ele>
        <time>2022-03-11T16:50:44Z</time>
      </trkpt>
      <trkpt lat="48.71452" lon="-1.00538">
        <ele>98</ele>
        <time>2022-03-11T16:50:55Z</time>
      </trkpt>
      <trkpt lat="48.71418" lon="-1.0055">
        <ele>96</ele>
        <time>2022-03-11T16:51:02Z</time>
      </trkpt>
      <trkpt lat="48.71404" lon="-1.0056">
        <ele>95</ele>
        <time>2022-03-11T16:51:04Z</time>
      </trkpt>
      <trkpt lat="48.71163" lon="-1.00842">
        <ele>87</ele>
        <time>2022-03-11T16:51:58Z</time>
      </trkpt>
      <trkpt lat="48.71144" lon="-1.00869">
        <ele>88</ele>
        <time>2022-03-11T16:52:03Z</time>
      </trkpt>
      <trkpt lat="48.71132" lon="-1.00892">
        <ele>88</ele>
        <time>2022-03-11T16:52:07Z</time>
      </trkpt>
      <trkpt lat="48.71123" lon="-1.00921">
        <ele>88</ele>
        <time>2022-03-11T16:52:10Z</time>
      </trkpt>
      <trkpt lat="48.70989" lon="-1.01591">
        <ele>83</ele>
        <time>2022-03-11T16:53:33Z</time>
      </trkpt>
      <trkpt lat="48.71201" lon="-1.0165">
        <ele>77</ele>
        <time>2022-03-11T16:54:11Z</time>
      </trkpt>
      <trkpt lat="48.71216" lon="-1.01654">
        <ele>77</ele>
        <time>2022-03-11T16:54:14Z</time>
      </trkpt>
      <trkpt lat="48.71336" lon="-1.01688">
        <ele>79</ele>
        <time>2022-03-11T16:54:35Z</time>
      </trkpt>
      <trkpt lat="48.71372" lon="-1.01692">
        <ele>81</ele>
        <time>2022-03-11T16:54:42Z</time>
      </trkpt>
      <trkpt lat="48.71401" lon="-1.01688">
        <ele>82</ele>
        <time>2022-03-11T16:54:47Z</time>
      </trkpt>
      <trkpt lat="48.71434" lon="-1.01678">
        <ele>84</ele>
        <time>2022-03-11T16:54:53Z</time>
      </trkpt>
      <trkpt lat="48.71479" lon="-1.0165">
        <ele>87</ele>
        <time>2022-03-11T16:55:02Z</time>
      </trkpt>
      <trkpt lat="48.71565" lon="-1.01585">
        <ele>95</ele>
        <time>2022-03-11T16:55:19Z</time>
      </trkpt>
      <trkpt lat="48.71652" lon="-1.01493">
        <ele>97</ele>
        <time>2022-03-11T16:55:38Z</time>
      </trkpt>
      <trkpt lat="48.72109" lon="-1.00995">
        <ele>105</ele>
        <time>2022-03-11T16:57:18Z</time>
      </trkpt>
      <trkpt lat="48.72153" lon="-1.00949">
        <ele>108</ele>
        <time>2022-03-11T16:57:27Z</time>
      </trkpt>
      <trkpt lat="48.72188" lon="-1.00925">
        <ele>110</ele>
        <time>2022-03-11T16:57:34Z</time>
      </trkpt>
      <trkpt lat="48.72496" lon="-1.00756">
        <ele>127</ele>
        <time>2022-03-11T16:58:32Z</time>
      </trkpt>
      <trkpt lat="48.72523" lon="-1.00734">
        <ele>129</ele>
        <time>2022-03-11T16:58:38Z</time>
      </trkpt>
      <trkpt lat="48.72536" lon="-1.0072">
        <ele>130</ele>
        <time>2022-03-11T16:58:41Z</time>
      </trkpt>
      <trkpt lat="48.72586" lon="-1.0061">
        <ele>135</ele>
        <time>2022-03-11T16:58:56Z</time>
      </trkpt>
      <trkpt lat="48.726" lon="-1.00593">
        <ele>136</ele>
        <time>2022-03-11T16:58:59Z</time>
      </trkpt>
      <trkpt lat="48.72617" lon="-1.0058">
        <ele>137</ele>
        <time>2022-03-11T16:59:03Z</time>
      </trkpt>
      <trkpt lat="48.72627" lon="-1.00574">
        <ele>137</ele>
        <time>2022-03-11T16:59:05Z</time>
      </trkpt>
      <trkpt lat="48.72658" lon="-1.00559">
        <ele>139</ele>
        <time>2022-03-11T16:59:11Z</time>
      </trkpt>
      <trkpt lat="48.72809" lon="-1.00504">
        <ele>158</ele>
        <time>2022-03-11T16:59:38Z</time>
      </trkpt>
      <trkpt lat="48.72817" lon="-1.00497">
        <ele>159</ele>
        <time>2022-03-11T16:59:40Z</time>
      </trkpt>
      <trkpt lat="48.72821" lon="-1.00489">
        <ele>160</ele>
        <time>2022-03-11T16:59:41Z</time>
      </trkpt>
      <trkpt lat="48.72822" lon="-1.0048">
        <ele>160</ele>
        <time>2022-03-11T16:59:42Z</time>
      </trkpt>
      <trkpt lat="48.72821" lon="-1.00471">
        <ele>160</ele>
        <time>2022-03-11T16:59:43Z</time>
      </trkpt>
      <trkpt lat="48.72816" lon="-1.00464">
        <ele>159</ele>
        <time>2022-03-11T16:59:44Z</time>
      </trkpt>
      <trkpt lat="48.72774" lon="-1.00442">
        <ele>155</ele>
        <time>2022-03-11T16:59:52Z</time>
      </trkpt>
      <trkpt lat="48.72761" lon="-1.00425">
        <ele>154</ele>
        <time>2022-03-11T16:59:55Z</time>
      </trkpt>
      <trkpt lat="48.72752" lon="-1.00408">
        <ele>154</ele>
        <time>2022-03-11T16:59:58Z</time>
      </trkpt>
      <trkpt lat="48.72748" lon="-1.00389">
        <ele>155</ele>
        <time>2022-03-11T17:00:00Z</time>
      </trkpt>
      <trkpt lat="48.72746" lon="-1.0037">
        <ele>156</ele>
        <time>2022-03-11T17:00:02Z</time>
      </trkpt>
      <trkpt lat="48.72747" lon="-1.00348">
        <ele>158</ele>
        <time>2022-03-11T17:00:05Z</time>
      </trkpt>
      <trkpt lat="48.72756" lon="-1.00224">
        <ele>164</ele>
        <time>2022-03-11T17:00:20Z</time>
      </trkpt>
      <trkpt lat="48.72762" lon="-1.0019">
        <ele>166</ele>
        <time>2022-03-11T17:00:24Z</time>
      </trkpt>
      <trkpt lat="48.72768" lon="-1.00161">
        <ele>167</ele>
        <time>2022-03-11T17:00:27Z</time>
      </trkpt>
      <trkpt lat="48.72789" lon="-1.00102">
        <ele>172</ele>
        <time>2022-03-11T17:00:35Z</time>
      </trkpt>
      <trkpt lat="48.72805" lon="-1.00067">
        <ele>174</ele>
        <time>2022-03-11T17:00:40Z</time>
      </trkpt>
      <trkpt lat="48.72866" lon="-0.99955">
        <ele>181</ele>
        <time>2022-03-11T17:00:57Z</time>
      </trkpt>
      <trkpt lat="48.72875" lon="-0.99933">
        <ele>182</ele>
        <time>2022-03-11T17:01:00Z</time>
      </trkpt>
      <trkpt lat="48.7289" lon="-0.99884">
        <ele>185</ele>
        <time>2022-03-11T17:01:07Z</time>
      </trkpt>
      <trkpt lat="48.72899" lon="-0.99846">
        <ele>187</ele>
        <time>2022-03-11T17:01:11Z</time>
      </trkpt>
      <trkpt lat="48.729" lon="-0.99828">
        <ele>188</ele>
        <time>2022-03-11T17:01:14Z</time>
      </trkpt>
      <trkpt lat="48.72899" lon="-0.99811">
        <ele>188</ele>
        <time>2022-03-11T17:01:16Z</time>
      </trkpt>
      <trkpt lat="48.72887" lon="-0.9977">
        <ele>189</ele>
        <time>2022-03-11T17:01:21Z</time>
      </trkpt>
      <trkpt lat="48.72884" lon="-0.99748">
        <ele>190</ele>
        <time>2022-03-11T17:01:23Z</time>
      </trkpt>
      <trkpt lat="48.72884" lon="-0.99726">
        <ele>190</ele>
        <time>2022-03-11T17:01:26Z</time>
      </trkpt>
      <trkpt lat="48.72886" lon="-0.99706">
        <ele>191</ele>
        <time>2022-03-11T17:01:28Z</time>
      </trkpt>
      <trkpt lat="48.7289" lon="-0.9969">
        <ele>191</ele>
        <time>2022-03-11T17:01:30Z</time>
      </trkpt>
      <trkpt lat="48.72909" lon="-0.99644">
        <ele>193</ele>
        <time>2022-03-11T17:01:37Z</time>
      </trkpt>
      <trkpt lat="48.7293" lon="-0.99607">
        <ele>194</ele>
        <time>2022-03-11T17:01:43Z</time>
      </trkpt>
      <trkpt lat="48.7295" lon="-0.99576">
        <ele>196</ele>
        <time>2022-03-11T17:01:48Z</time>
      </trkpt>
      <trkpt lat="48.72992" lon="-0.99522">
        <ele>199</ele>
        <time>2022-03-11T17:01:57Z</time>
      </trkpt>
      <trkpt lat="48.73014" lon="-0.99499">
        <ele>200</ele>
        <time>2022-03-11T17:02:02Z</time>
      </trkpt>
      <trkpt lat="48.73035" lon="-0.99481">
        <ele>200</ele>
        <time>2022-03-11T17:02:06Z</time>
      </trkpt>
      <trkpt lat="48.73053" lon="-0.9947">
        <ele>200</ele>
        <time>2022-03-11T17:02:10Z</time>
      </trkpt>
      <trkpt lat="48.73073" lon="-0.99469">
        <ele>202</ele>
        <time>2022-03-11T17:02:13Z</time>
      </trkpt>
      <trkpt lat="48.73088" lon="-0.99477">
        <ele>205</ele>
        <time>2022-03-11T17:02:16Z</time>
      </trkpt>
      <trkpt lat="48.73097" lon="-0.99484">
        <ele>205</ele>
        <time>2022-03-11T17:02:18Z</time>
      </trkpt>
      <trkpt lat="48.73178" lon="-0.996">
        <ele>214</ele>
        <time>2022-03-11T17:02:38Z</time>
      </trkpt>
      <trkpt lat="48.73196" lon="-0.99622">
        <ele>217</ele>
        <time>2022-03-11T17:02:42Z</time>
      </trkpt>
      <trkpt lat="48.73213" lon="-0.99637">
        <ele>218</ele>
        <time>2022-03-11T17:02:46Z</time>
      </trkpt>
      <trkpt lat="48.73234" lon="-0.99652">
        <ele>219</ele>
        <time>2022-03-11T17:02:50Z</time>
      </trkpt>
      <trkpt lat="48.73278" lon="-0.99672">
        <ele>221</ele>
        <time>2022-03-11T17:02:58Z</time>
      </trkpt>
      <trkpt lat="48.73291" lon="-0.99683">
        <ele>222</ele>
        <time>2022-03-11T17:03:00Z</time>
      </trkpt>
      <trkpt lat="48.73305" lon="-0.99698">
        <ele>223</ele>
        <time>2022-03-11T17:03:04Z</time>
      </trkpt>
      <trkpt lat="48.73363" lon="-0.99785">
        <ele>230</ele>
        <time>2022-03-11T17:03:18Z</time>
      </trkpt>
      <trkpt lat="48.73384" lon="-0.99805">
        <ele>231</ele>
        <time>2022-03-11T17:03:22Z</time>
      </trkpt>
      <trkpt lat="48.73402" lon="-0.99812">
        <ele>232</ele>
        <time>2022-03-11T17:03:26Z</time>
      </trkpt>
      <trkpt lat="48.73572" lon="-0.9986">
        <ele>244</ele>
        <time>2022-03-11T17:03:57Z</time>
      </trkpt>
      <trkpt lat="48.73607" lon="-0.99864">
        <ele>245</ele>
        <time>2022-03-11T17:04:03Z</time>
      </trkpt>
      <trkpt lat="48.73639" lon="-0.99863">
        <ele>246</ele>
        <time>2022-03-11T17:04:08Z</time>
      </trkpt>
      <trkpt lat="48.73648" lon="-0.99859">
        <ele>246</ele>
        <time>2022-03-11T17:04:10Z</time>
      </trkpt>
      <trkpt lat="48.73662" lon="-0.99847">
        <ele>247</ele>
        <time>2022-03-11T17:04:13Z</time>
      </trkpt>
      <trkpt lat="48.73686" lon="-0.99813">
        <ele>249</ele>
        <time>2022-03-11T17:04:19Z</time>
      </trkpt>
      <trkpt lat="48.73694" lon="-0.99795">
        <ele>250</ele>
        <time>2022-03-11T17:04:21Z</time>
      </trkpt>
      <trkpt lat="48.73701" lon="-0.99775">
        <ele>251</ele>
        <time>2022-03-11T17:04:24Z</time>
      </trkpt>
      <trkpt lat="48.73734" lon="-0.99652">
        <ele>257</ele>
        <time>2022-03-11T17:04:40Z</time>
      </trkpt>
      <trkpt lat="48.73745" lon="-0.99599">
        <ele>260</ele>
        <time>2022-03-11T17:04:46Z</time>
      </trkpt>
      <trkpt lat="48.73751" lon="-0.99586">
        <ele>261</ele>
        <time>2022-03-11T17:04:48Z</time>
      </trkpt>
      <trkpt lat="48.73765" lon="-0.99524">
        <ele>263</ele>
        <time>2022-03-11T17:04:56Z</time>
      </trkpt>
      <trkpt lat="48.73775" lon="-0.99487">
        <ele>264</ele>
        <time>2022-03-11T17:05:00Z</time>
      </trkpt>
      <trkpt lat="48.73786" lon="-0.99458">
        <ele>264</ele>
        <time>2022-03-11T17:05:04Z</time>
      </trkpt>
      <trkpt lat="48.73847" lon="-0.99379">
        <ele>265</ele>
        <time>2022-03-11T17:05:19Z</time>
      </trkpt>
      <trkpt lat="48.74043" lon="-0.9914">
        <ele>258</ele>
        <time>2022-03-11T17:06:03Z</time>
      </trkpt>
      <trkpt lat="48.74069" lon="-0.99121">
        <ele>257</ele>
        <time>2022-03-11T17:06:09Z</time>
      </trkpt>
      <trkpt lat="48.74078" lon="-0.99118">
        <ele>257</ele>
        <time>2022-03-11T17:06:10Z</time>
      </trkpt>
      <trkpt lat="48.74178" lon="-0.99102">
        <ele>259</ele>
        <time>2022-03-11T17:06:28Z</time>
      </trkpt>
      <trkpt lat="48.7426" lon="-0.99085">
        <ele>263</ele>
        <time>2022-03-11T17:06:43Z</time>
      </trkpt>
      <trkpt lat="48.74466" lon="-0.99021">
        <ele>259</ele>
        <time>2022-03-11T17:07:20Z</time>
      </trkpt>
      <trkpt lat="48.74671" lon="-0.99015">
        <ele>260</ele>
        <time>2022-03-11T17:07:57Z</time>
      </trkpt>
      <trkpt lat="48.7469" lon="-0.99009">
        <ele>262</ele>
        <time>2022-03-11T17:08:00Z</time>
      </trkpt>
      <trkpt lat="48.74704" lon="-0.98997">
        <ele>262</ele>
        <time>2022-03-11T17:08:03Z</time>
      </trkpt>
      <trkpt lat="48.74716" lon="-0.98979">
        <ele>263</ele>
        <time>2022-03-11T17:08:06Z</time>
      </trkpt>
      <trkpt lat="48.74749" lon="-0.98901">
        <ele>261</ele>
        <time>2022-03-11T17:08:17Z</time>
      </trkpt>
      <trkpt lat="48.74792" lon="-0.98782">
        <ele>266</ele>
        <time>2022-03-11T17:08:33Z</time>
      </trkpt>
      <trkpt lat="48.74806" lon="-0.98735">
        <ele>268</ele>
        <time>2022-03-11T17:08:39Z</time>
      </trkpt>
      <trkpt lat="48.74813" lon="-0.98692">
        <ele>268</ele>
        <time>2022-03-11T17:08:44Z</time>
      </trkpt>
      <trkpt lat="48.74817" lon="-0.98621">
        <ele>268</ele>
        <time>2022-03-11T17:08:52Z</time>
      </trkpt>
      <trkpt lat="48.74826" lon="-0.98581">
        <ele>269</ele>
        <time>2022-03-11T17:08:57Z</time>
      </trkpt>
      <trkpt lat="48.74833" lon="-0.98568">
        <ele>269</ele>
        <time>2022-03-11T17:08:59Z</time>
      </trkpt>
      <trkpt lat="48.74843" lon="-0.98558">
        <ele>269</ele>
        <time>2022-03-11T17:09:01Z</time>
      </trkpt>
      <trkpt lat="48.74852" lon="-0.98552">
        <ele>269</ele>
        <time>2022-03-11T17:09:03Z</time>
      </trkpt>
      <trkpt lat="48.74867" lon="-0.98548">
        <ele>270</ele>
        <time>2022-03-11T17:09:06Z</time>
      </trkpt>
      <trkpt lat="48.7489" lon="-0.98549">
        <ele>272</ele>
        <time>2022-03-11T17:09:10Z</time>
      </trkpt>
      <trkpt lat="48.7492" lon="-0.98556">
        <ele>274</ele>
        <time>2022-03-11T17:09:15Z</time>
      </trkpt>
      <trkpt lat="48.74971" lon="-0.98578">
        <ele>275</ele>
        <time>2022-03-11T17:09:25Z</time>
      </trkpt>
      <trkpt lat="48.74993" lon="-0.98599">
        <ele>276</ele>
        <time>2022-03-11T17:09:29Z</time>
      </trkpt>
      <trkpt lat="48.75" lon="-0.98618">
        <ele>278</ele>
        <time>2022-03-11T17:09:32Z</time>
      </trkpt>
      <trkpt lat="48.75011" lon="-0.98666">
        <ele>282</ele>
        <time>2022-03-11T17:09:38Z</time>
      </trkpt>
      <trkpt lat="48.75023" lon="-0.98685">
        <ele>284</ele>
        <time>2022-03-11T17:09:41Z</time>
      </trkpt>
      <trkpt lat="48.75031" lon="-0.9869">
        <ele>284</ele>
        <time>2022-03-11T17:09:43Z</time>
      </trkpt>
      <trkpt lat="48.75065" lon="-0.98694">
        <ele>285</ele>
        <time>2022-03-11T17:09:49Z</time>
      </trkpt>
      <trkpt lat="48.75091" lon="-0.98694">
        <ele>285</ele>
        <time>2022-03-11T17:09:53Z</time>
      </trkpt>
      <trkpt lat="48.75113" lon="-0.98691">
        <ele>285</ele>
        <time>2022-03-11T17:09:57Z</time>
      </trkpt>
      <trkpt lat="48.75175" lon="-0.98662">
        <ele>286</ele>
        <time>2022-03-11T17:10:09Z</time>
      </trkpt>
      <trkpt lat="48.75349" lon="-0.9857">
        <ele>289</ele>
        <time>2022-03-11T17:10:42Z</time>
      </trkpt>
      <trkpt lat="48.75386" lon="-0.98553">
        <ele>289</ele>
        <time>2022-03-11T17:10:48Z</time>
      </trkpt>
      <trkpt lat="48.75497" lon="-0.9848">
        <ele>289</ele>
        <time>2022-03-11T17:11:10Z</time>
      </trkpt>
      <trkpt lat="48.75538" lon="-0.98462">
        <ele>291</ele>
        <time>2022-03-11T17:11:18Z</time>
      </trkpt>
      <trkpt lat="48.75718" lon="-0.98411">
        <ele>302</ele>
        <time>2022-03-11T17:11:50Z</time>
      </trkpt>
      <trkpt lat="48.75741" lon="-0.98402">
        <ele>303</ele>
        <time>2022-03-11T17:11:54Z</time>
      </trkpt>
      <trkpt lat="48.75755" lon="-0.98388">
        <ele>304</ele>
        <time>2022-03-11T17:11:57Z</time>
      </trkpt>
      <trkpt lat="48.75767" lon="-0.98371">
        <ele>304</ele>
        <time>2022-03-11T17:12:00Z</time>
      </trkpt>
      <trkpt lat="48.75776" lon="-0.98349">
        <ele>305</ele>
        <time>2022-03-11T17:12:03Z</time>
      </trkpt>
      <trkpt lat="48.75899" lon="-0.98005">
        <ele>315</ele>
        <time>2022-03-11T17:12:49Z</time>
      </trkpt>
      <trkpt lat="48.75922" lon="-0.97968">
        <ele>316</ele>
        <time>2022-03-11T17:12:55Z</time>
      </trkpt>
      <trkpt lat="48.76035" lon="-0.97839">
        <ele>317</ele>
        <time>2022-03-11T17:13:20Z</time>
      </trkpt>
      <trkpt lat="48.76074" lon="-0.97806">
        <ele>318</ele>
        <time>2022-03-11T17:13:28Z</time>
      </trkpt>
      <trkpt lat="48.76377" lon="-0.97667">
        <ele>329</ele>
        <time>2022-03-11T17:14:25Z</time>
      </trkpt>
      <trkpt lat="48.76502" lon="-0.97612">
        <ele>338</ele>
        <time>2022-03-11T17:14:48Z</time>
      </trkpt>
      <trkpt lat="48.76487" lon="-0.97546">
        <ele>337</ele>
        <time>2022-03-11T17:14:56Z</time>
      </trkpt>
      <trkpt lat="48.76466" lon="-0.97461">
        <ele>336</ele>
        <time>2022-03-11T17:15:07Z</time>
      </trkpt>
      <trkpt lat="48.7645" lon="-0.97407">
        <ele>336</ele>
        <time>2022-03-11T17:15:14Z</time>
      </trkpt>
      <trkpt lat="48.76396" lon="-0.97296">
        <ele>338</ele>
        <time>2022-03-11T17:15:30Z</time>
      </trkpt>
      <trkpt lat="48.76375" lon="-0.97257">
        <ele>341</ele>
        <time>2022-03-11T17:15:36Z</time>
      </trkpt>
      <trkpt lat="48.76285" lon="-0.9712">
        <ele>353</ele>
        <time>2022-03-11T17:15:58Z</time>
      </trkpt>
      <trkpt lat="48.76264" lon="-0.97086">
        <ele>355</ele>
        <time>2022-03-11T17:16:04Z</time>
      </trkpt>
      <trkpt lat="48.76127" lon="-0.96793">
        <ele>358</ele>
        <time>2022-03-11T17:16:46Z</time>
      </trkpt>
      <trkpt lat="48.7599" lon="-0.96459">
        <ele>356</ele>
        <time>2022-03-11T17:17:32Z</time>
      </trkpt>
      <trkpt lat="48.759" lon="-0.96253">
        <ele>350</ele>
        <time>2022-03-11T17:18:01Z</time>
      </trkpt>
      <trkpt lat="48.75813" lon="-0.96049">
        <ele>341</ele>
        <time>2022-03-11T17:18:30Z</time>
      </trkpt>
      <trkpt lat="48.75693" lon="-0.95821">
        <ele>341</ele>
        <time>2022-03-11T17:19:04Z</time>
      </trkpt>
      <trkpt lat="48.75628" lon="-0.9568">
        <ele>336</ele>
        <time>2022-03-11T17:19:24Z</time>
      </trkpt>
      <trkpt lat="48.75619" lon="-0.95658">
        <ele>335</ele>
        <time>2022-03-11T17:19:27Z</time>
      </trkpt>
      <trkpt lat="48.7561" lon="-0.95628">
        <ele>335</ele>
        <time>2022-03-11T17:19:31Z</time>
      </trkpt>
      <trkpt lat="48.75602" lon="-0.95594">
        <ele>334</ele>
        <time>2022-03-11T17:19:35Z</time>
      </trkpt>
      <trkpt lat="48.75579" lon="-0.95478">
        <ele>333</ele>
        <time>2022-03-11T17:19:49Z</time>
      </trkpt>
      <trkpt lat="48.7557" lon="-0.95416">
        <ele>333</ele>
        <time>2022-03-11T17:19:57Z</time>
      </trkpt>
      <trkpt lat="48.75541" lon="-0.95139">
        <ele>337</ele>
        <time>2022-03-11T17:20:30Z</time>
      </trkpt>
      <trkpt lat="48.75531" lon="-0.95025">
        <ele>337</ele>
        <time>2022-03-11T17:20:43Z</time>
      </trkpt>
      <trkpt lat="48.75505" lon="-0.94769">
        <ele>330</ele>
        <time>2022-03-11T17:21:13Z</time>
      </trkpt>
      <trkpt lat="48.75503" lon="-0.94733">
        <ele>329</ele>
        <time>2022-03-11T17:21:18Z</time>
      </trkpt>
      <trkpt lat="48.75511" lon="-0.94545">
        <ele>327</ele>
        <time>2022-03-11T17:21:40Z</time>
      </trkpt>
      <trkpt lat="48.7552" lon="-0.94388">
        <ele>329</ele>
        <time>2022-03-11T17:21:58Z</time>
      </trkpt>
      <trkpt lat="48.75522" lon="-0.94295">
        <ele>331</ele>
        <time>2022-03-11T17:22:09Z</time>
      </trkpt>
      <trkpt lat="48.75527" lon="-0.94239">
        <ele>331</ele>
        <time>2022-03-11T17:22:16Z</time>
      </trkpt>
      <trkpt lat="48.75534" lon="-0.94196">
        <ele>330</ele>
        <time>2022-03-11T17:22:21Z</time>
      </trkpt>
      <trkpt lat="48.75548" lon="-0.94148">
        <ele>329</ele>
        <time>2022-03-11T17:22:27Z</time>
      </trkpt>
      <trkpt lat="48.75656" lon="-0.93881">
        <ele>327</ele>
        <time>2022-03-11T17:23:04Z</time>
      </trkpt>
      <trkpt lat="48.75719" lon="-0.93716">
        <ele>320</ele>
        <time>2022-03-11T17:23:26Z</time>
      </trkpt>
      <trkpt lat="48.75762" lon="-0.9364">
        <ele>315</ele>
        <time>2022-03-11T17:23:38Z</time>
      </trkpt>
      <trkpt lat="48.75778" lon="-0.93604">
        <ele>313</ele>
        <time>2022-03-11T17:23:43Z</time>
      </trkpt>
      <trkpt lat="48.75819" lon="-0.93481">
        <ele>309</ele>
        <time>2022-03-11T17:23:59Z</time>
      </trkpt>
      <trkpt lat="48.75834" lon="-0.93428">
        <ele>308</ele>
        <time>2022-03-11T17:24:06Z</time>
      </trkpt>
      <trkpt lat="48.75842" lon="-0.93382">
        <ele>309</ele>
        <time>2022-03-11T17:24:12Z</time>
      </trkpt>
      <trkpt lat="48.75845" lon="-0.93345">
        <ele>309</ele>
        <time>2022-03-11T17:24:16Z</time>
      </trkpt>
      <trkpt lat="48.75845" lon="-0.93309">
        <ele>311</ele>
        <time>2022-03-11T17:24:20Z</time>
      </trkpt>
      <trkpt lat="48.75842" lon="-0.9327">
        <ele>314</ele>
        <time>2022-03-11T17:24:25Z</time>
      </trkpt>
      <trkpt lat="48.75833" lon="-0.9322">
        <ele>317</ele>
        <time>2022-03-11T17:24:31Z</time>
      </trkpt>
      <trkpt lat="48.75775" lon="-0.92959">
        <ele>320</ele>
        <time>2022-03-11T17:25:03Z</time>
      </trkpt>
      <trkpt lat="48.75771" lon="-0.92928">
        <ele>320</ele>
        <time>2022-03-11T17:25:07Z</time>
      </trkpt>
      <trkpt lat="48.75769" lon="-0.92897">
        <ele>319</ele>
        <time>2022-03-11T17:25:11Z</time>
      </trkpt>
      <trkpt lat="48.75777" lon="-0.9251">
        <ele>312</ele>
        <time>2022-03-11T17:25:56Z</time>
      </trkpt>
      <trkpt lat="48.7578" lon="-0.92462">
        <ele>311</ele>
        <time>2022-03-11T17:26:02Z</time>
      </trkpt>
      <trkpt lat="48.7579" lon="-0.92342">
        <ele>313</ele>
        <time>2022-03-11T17:26:16Z</time>
      </trkpt>
      <trkpt lat="48.7579" lon="-0.92305">
        <ele>312</ele>
        <time>2022-03-11T17:26:20Z</time>
      </trkpt>
      <trkpt lat="48.75787" lon="-0.92272">
        <ele>311</ele>
        <time>2022-03-11T17:26:24Z</time>
      </trkpt>
      <trkpt lat="48.75774" lon="-0.92207">
        <ele>312</ele>
        <time>2022-03-11T17:26:32Z</time>
      </trkpt>
      <trkpt lat="48.75756" lon="-0.92149">
        <ele>314</ele>
        <time>2022-03-11T17:26:40Z</time>
      </trkpt>
      <trkpt lat="48.75739" lon="-0.92105">
        <ele>317</ele>
        <time>2022-03-11T17:26:46Z</time>
      </trkpt>
      <trkpt lat="48.75697" lon="-0.92016">
        <ele>324</ele>
        <time>2022-03-11T17:26:58Z</time>
      </trkpt>
      <trkpt lat="48.7568" lon="-0.91975">
        <ele>326</ele>
        <time>2022-03-11T17:27:04Z</time>
      </trkpt>
      <trkpt lat="48.75663" lon="-0.9193">
        <ele>329</ele>
        <time>2022-03-11T17:27:10Z</time>
      </trkpt>
      <trkpt lat="48.75582" lon="-0.91682">
        <ele>341</ele>
        <time>2022-03-11T17:27:43Z</time>
      </trkpt>
      <trkpt lat="48.75542" lon="-0.91541">
        <ele>337</ele>
        <time>2022-03-11T17:28:01Z</time>
      </trkpt>
      <trkpt lat="48.75519" lon="-0.91415">
        <ele>333</ele>
        <time>2022-03-11T17:28:16Z</time>
      </trkpt>
      <trkpt lat="48.75393" lon="-0.90645">
        <ele>336</ele>
        <time>2022-03-11T17:29:49Z</time>
      </trkpt>
      <trkpt lat="48.75392" lon="-0.90636">
        <ele>336</ele>
        <time>2022-03-11T17:29:50Z</time>
      </trkpt>
      <trkpt lat="48.75304" lon="-0.90655">
        <ele>336</ele>
        <time>2022-03-11T17:30:06Z</time>
      </trkpt>
      <trkpt lat="48.75255" lon="-0.90662">
        <ele>333</ele>
        <time>2022-03-11T17:30:15Z</time>
      </trkpt>
      <trkpt lat="48.74703" lon="-0.9068">
        <ele>290</ele>
        <time>2022-03-11T17:31:53Z</time>
      </trkpt>
      <trkpt lat="48.74675" lon="-0.90683">
        <ele>287</ele>
        <time>2022-03-11T17:31:58Z</time>
      </trkpt>
      <trkpt lat="48.74652" lon="-0.90689">
        <ele>286</ele>
        <time>2022-03-11T17:32:02Z</time>
      </trkpt>
      <trkpt lat="48.74633" lon="-0.90699">
        <ele>285</ele>
        <time>2022-03-11T17:32:06Z</time>
      </trkpt>
      <trkpt lat="48.73752" lon="-0.91535">
        <ele>245</ele>
        <time>2022-03-11T17:35:11Z</time>
      </trkpt>
      <trkpt lat="48.73713" lon="-0.9157">
        <ele>247</ele>
        <time>2022-03-11T17:35:19Z</time>
      </trkpt>
      <trkpt lat="48.73671" lon="-0.91599">
        <ele>251</ele>
        <time>2022-03-11T17:35:27Z</time>
      </trkpt>
      <trkpt lat="48.73628" lon="-0.91623">
        <ele>252</ele>
        <time>2022-03-11T17:35:35Z</time>
      </trkpt>
      <trkpt lat="48.73409" lon="-0.91725">
        <ele>246</ele>
        <time>2022-03-11T17:36:16Z</time>
      </trkpt>
      <trkpt lat="48.72918" lon="-0.91965">
        <ele>240</ele>
        <time>2022-03-11T17:37:48Z</time>
      </trkpt>
      <trkpt lat="48.72902" lon="-0.9197">
        <ele>238</ele>
        <time>2022-03-11T17:37:50Z</time>
      </trkpt>
      <trkpt lat="48.72867" lon="-0.91973">
        <ele>236</ele>
        <time>2022-03-11T17:37:57Z</time>
      </trkpt>
      <trkpt lat="48.72743" lon="-0.91969">
        <ele>228</ele>
        <time>2022-03-11T17:38:19Z</time>
      </trkpt>
      <trkpt lat="48.72634" lon="-0.91963">
        <ele>223</ele>
        <time>2022-03-11T17:38:38Z</time>
      </trkpt>
      <trkpt lat="48.72486" lon="-0.91965">
        <ele>223</ele>
        <time>2022-03-11T17:39:05Z</time>
      </trkpt>
      <trkpt lat="48.72484" lon="-0.91971">
        <ele>223</ele>
        <time>2022-03-11T17:39:05Z</time>
      </trkpt>
      <trkpt lat="48.72478" lon="-0.91974">
        <ele>223</ele>
        <time>2022-03-11T17:39:06Z</time>
      </trkpt>
      <trkpt lat="48.72474" lon="-0.91971">
        <ele>223</ele>
        <time>2022-03-11T17:39:07Z</time>
      </trkpt>
      <trkpt lat="48.72472" lon="-0.91964">
        <ele>223</ele>
        <time>2022-03-11T17:39:08Z</time>
      </trkpt>
      <trkpt lat="48.72473" lon="-0.91958">
        <ele>224</ele>
        <time>2022-03-11T17:39:09Z</time>
      </trkpt>
      <trkpt lat="48.72479" lon="-0.91954">
        <ele>224</ele>
        <time>2022-03-11T17:39:10Z</time>
      </trkpt>
      <trkpt lat="48.72481" lon="-0.91651">
        <ele>231</ele>
        <time>2022-03-11T17:39:46Z</time>
      </trkpt>
      <trkpt lat="48.72482" lon="-0.91624">
        <ele>231</ele>
        <time>2022-03-11T17:39:49Z</time>
      </trkpt>
      <trkpt lat="48.72487" lon="-0.91596">
        <ele>231</ele>
        <time>2022-03-11T17:39:52Z</time>
      </trkpt>
      <trkpt lat="48.72494" lon="-0.91569">
        <ele>232</ele>
        <time>2022-03-11T17:39:56Z</time>
      </trkpt>
      <trkpt lat="48.72501" lon="-0.91549">
        <ele>232</ele>
        <time>2022-03-11T17:39:58Z</time>
      </trkpt>
      <trkpt lat="48.72512" lon="-0.9153">
        <ele>233</ele>
        <time>2022-03-11T17:40:01Z</time>
      </trkpt>
      <trkpt lat="48.72526" lon="-0.9151">
        <ele>234</ele>
        <time>2022-03-11T17:40:05Z</time>
      </trkpt>
      <trkpt lat="48.72742" lon="-0.91279">
        <ele>246</ele>
        <time>2022-03-11T17:40:52Z</time>
      </trkpt>
      <trkpt lat="48.72833" lon="-0.91186">
        <ele>249</ele>
        <time>2022-03-11T17:41:11Z</time>
      </trkpt>
      <trkpt lat="48.73152" lon="-0.90849">
        <ele>270</ele>
        <time>2022-03-11T17:42:20Z</time>
      </trkpt>
      <trkpt lat="48.73168" lon="-0.90826">
        <ele>271</ele>
        <time>2022-03-11T17:42:24Z</time>
      </trkpt>
      <trkpt lat="48.73194" lon="-0.90779">
        <ele>272</ele>
        <time>2022-03-11T17:42:31Z</time>
      </trkpt>
      <trkpt lat="48.73205" lon="-0.90744">
        <ele>273</ele>
        <time>2022-03-11T17:42:36Z</time>
      </trkpt>
      <trkpt lat="48.73212" lon="-0.90715">
        <ele>274</ele>
        <time>2022-03-11T17:42:40Z</time>
      </trkpt>
      <trkpt lat="48.73217" lon="-0.90688">
        <ele>276</ele>
        <time>2022-03-11T17:42:43Z</time>
      </trkpt>
      <trkpt lat="48.73223" lon="-0.90532">
        <ele>282</ele>
        <time>2022-03-11T17:43:01Z</time>
      </trkpt>
      <trkpt lat="48.73236" lon="-0.90137">
        <ele>293</ele>
        <time>2022-03-11T17:43:48Z</time>
      </trkpt>
      <trkpt lat="48.73244" lon="-0.90067">
        <ele>295</ele>
        <time>2022-03-11T17:43:56Z</time>
      </trkpt>
      <trkpt lat="48.73251" lon="-0.90031">
        <ele>295</ele>
        <time>2022-03-11T17:44:00Z</time>
      </trkpt>
      <trkpt lat="48.73262" lon="-0.89992">
        <ele>297</ele>
        <time>2022-03-11T17:44:05Z</time>
      </trkpt>
      <trkpt lat="48.73276" lon="-0.89956">
        <ele>298</ele>
        <time>2022-03-11T17:44:10Z</time>
      </trkpt>
      <trkpt lat="48.73295" lon="-0.89917">
        <ele>301</ele>
        <time>2022-03-11T17:44:16Z</time>
      </trkpt>
      <trkpt lat="48.73566" lon="-0.89481">
        <ele>311</ele>
        <time>2022-03-11T17:45:26Z</time>
      </trkpt>
      <trkpt lat="48.73588" lon="-0.89434">
        <ele>311</ele>
        <time>2022-03-11T17:45:33Z</time>
      </trkpt>
      <trkpt lat="48.73595" lon="-0.89412">
        <ele>311</ele>
        <time>2022-03-11T17:45:36Z</time>
      </trkpt>
      <trkpt lat="48.73603" lon="-0.89376">
        <ele>310</ele>
        <time>2022-03-11T17:45:40Z</time>
      </trkpt>
      <trkpt lat="48.73606" lon="-0.8935">
        <ele>309</ele>
        <time>2022-03-11T17:45:44Z</time>
      </trkpt>
      <trkpt lat="48.73607" lon="-0.89318">
        <ele>309</ele>
        <time>2022-03-11T17:45:47Z</time>
      </trkpt>
      <trkpt lat="48.73605" lon="-0.8929">
        <ele>310</ele>
        <time>2022-03-11T17:45:51Z</time>
      </trkpt>
      <trkpt lat="48.73599" lon="-0.89262">
        <ele>309</ele>
        <time>2022-03-11T17:45:54Z</time>
      </trkpt>
      <trkpt lat="48.73593" lon="-0.89235">
        <ele>310</ele>
        <time>2022-03-11T17:45:57Z</time>
      </trkpt>
      <trkpt lat="48.73583" lon="-0.89209">
        <ele>310</ele>
        <time>2022-03-11T17:46:01Z</time>
      </trkpt>
      <trkpt lat="48.7355" lon="-0.89132">
        <ele>312</ele>
        <time>2022-03-11T17:46:12Z</time>
      </trkpt>
      <trkpt lat="48.73539" lon="-0.89098">
        <ele>313</ele>
        <time>2022-03-11T17:46:16Z</time>
      </trkpt>
      <trkpt lat="48.73529" lon="-0.89058">
        <ele>314</ele>
        <time>2022-03-11T17:46:21Z</time>
      </trkpt>
      <trkpt lat="48.73522" lon="-0.89018">
        <ele>315</ele>
        <time>2022-03-11T17:46:26Z</time>
      </trkpt>
      <trkpt lat="48.73518" lon="-0.88982">
        <ele>315</ele>
        <time>2022-03-11T17:46:30Z</time>
      </trkpt>
      <trkpt lat="48.73518" lon="-0.88941">
        <ele>314</ele>
        <time>2022-03-11T17:46:35Z</time>
      </trkpt>
      <trkpt lat="48.7352" lon="-0.88901">
        <ele>313</ele>
        <time>2022-03-11T17:46:40Z</time>
      </trkpt>
      <trkpt lat="48.73523" lon="-0.88867">
        <ele>314</ele>
        <time>2022-03-11T17:46:44Z</time>
      </trkpt>
      <trkpt lat="48.73533" lon="-0.8882">
        <ele>314</ele>
        <time>2022-03-11T17:46:50Z</time>
      </trkpt>
      <trkpt lat="48.73619" lon="-0.88448">
        <ele>315</ele>
        <time>2022-03-11T17:47:36Z</time>
      </trkpt>
      <trkpt lat="48.73631" lon="-0.88405">
        <ele>315</ele>
        <time>2022-03-11T17:47:41Z</time>
      </trkpt>
      <trkpt lat="48.73654" lon="-0.88342">
        <ele>316</ele>
        <time>2022-03-11T17:47:50Z</time>
      </trkpt>
      <trkpt lat="48.73675" lon="-0.88295">
        <ele>316</ele>
        <time>2022-03-11T17:47:56Z</time>
      </trkpt>
      <trkpt lat="48.73706" lon="-0.88231">
        <ele>316</ele>
        <time>2022-03-11T17:48:06Z</time>
      </trkpt>
      <trkpt lat="48.7396" lon="-0.87768">
        <ele>313</ele>
        <time>2022-03-11T17:49:16Z</time>
      </trkpt>
      <trkpt lat="48.73977" lon="-0.87743">
        <ele>312</ele>
        <time>2022-03-11T17:49:21Z</time>
      </trkpt>
      <trkpt lat="48.73996" lon="-0.8772">
        <ele>311</ele>
        <time>2022-03-11T17:49:25Z</time>
      </trkpt>
      <trkpt lat="48.74016" lon="-0.87703">
        <ele>311</ele>
        <time>2022-03-11T17:49:29Z</time>
      </trkpt>
      <trkpt lat="48.74037" lon="-0.87691">
        <ele>311</ele>
        <time>2022-03-11T17:49:33Z</time>
      </trkpt>
      <trkpt lat="48.74059" lon="-0.87682">
        <ele>312</ele>
        <time>2022-03-11T17:49:37Z</time>
      </trkpt>
      <trkpt lat="48.74078" lon="-0.87678">
        <ele>313</ele>
        <time>2022-03-11T17:49:41Z</time>
      </trkpt>
      <trkpt lat="48.74132" lon="-0.87678">
        <ele>314</ele>
        <time>2022-03-11T17:49:50Z</time>
      </trkpt>
      <trkpt lat="48.74168" lon="-0.87669">
        <ele>313</ele>
        <time>2022-03-11T17:49:57Z</time>
      </trkpt>
      <trkpt lat="48.74198" lon="-0.87649">
        <ele>313</ele>
        <time>2022-03-11T17:50:02Z</time>
      </trkpt>
      <trkpt lat="48.74745" lon="-0.87098">
        <ele>310</ele>
        <time>2022-03-11T17:51:59Z</time>
      </trkpt>
      <trkpt lat="48.74775" lon="-0.87062">
        <ele>310</ele>
        <time>2022-03-11T17:52:06Z</time>
      </trkpt>
      <trkpt lat="48.74794" lon="-0.8703">
        <ele>310</ele>
        <time>2022-03-11T17:52:11Z</time>
      </trkpt>
      <trkpt lat="48.74809" lon="-0.86999">
        <ele>310</ele>
        <time>2022-03-11T17:52:16Z</time>
      </trkpt>
      <trkpt lat="48.75063" lon="-0.86442">
        <ele>312</ele>
        <time>2022-03-11T17:53:35Z</time>
      </trkpt>
      <trkpt lat="48.74732" lon="-0.86179">
        <ele>315</ele>
        <time>2022-03-11T17:54:42Z</time>
      </trkpt>
      <trkpt lat="48.747" lon="-0.86165">
        <ele>315</ele>
        <time>2022-03-11T17:54:48Z</time>
      </trkpt>
      <trkpt lat="48.74648" lon="-0.86153">
        <ele>315</ele>
        <time>2022-03-11T17:54:57Z</time>
      </trkpt>
      <trkpt lat="48.74233" lon="-0.86071">
        <ele>325</ele>
        <time>2022-03-11T17:56:11Z</time>
      </trkpt>
      <trkpt lat="48.7419" lon="-0.86055">
        <ele>330</ele>
        <time>2022-03-11T17:56:19Z</time>
      </trkpt>
      <trkpt lat="48.74002" lon="-0.85954">
        <ele>342</ele>
        <time>2022-03-11T17:56:55Z</time>
      </trkpt>
      <trkpt lat="48.73981" lon="-0.85946">
        <ele>343</ele>
        <time>2022-03-11T17:56:59Z</time>
      </trkpt>
      <trkpt lat="48.73687" lon="-0.8592">
        <ele>347</ele>
        <time>2022-03-11T17:57:51Z</time>
      </trkpt>
      <trkpt lat="48.73659" lon="-0.8592">
        <ele>347</ele>
        <time>2022-03-11T17:57:56Z</time>
      </trkpt>
      <trkpt lat="48.73629" lon="-0.85924">
        <ele>346</ele>
        <time>2022-03-11T17:58:01Z</time>
      </trkpt>
      <trkpt lat="48.73401" lon="-0.85972">
        <ele>344</ele>
        <time>2022-03-11T17:58:42Z</time>
      </trkpt>
      <trkpt lat="48.7338" lon="-0.85979">
        <ele>344</ele>
        <time>2022-03-11T17:58:46Z</time>
      </trkpt>
      <trkpt lat="48.73232" lon="-0.86044">
        <ele>345</ele>
        <time>2022-03-11T17:59:14Z</time>
      </trkpt>
      <trkpt lat="48.73189" lon="-0.86057">
        <ele>344</ele>
        <time>2022-03-11T17:59:21Z</time>
      </trkpt>
      <trkpt lat="48.7315" lon="-0.86056">
        <ele>342</ele>
        <time>2022-03-11T17:59:28Z</time>
      </trkpt>
      <trkpt lat="48.73128" lon="-0.8605">
        <ele>341</ele>
        <time>2022-03-11T17:59:32Z</time>
      </trkpt>
      <trkpt lat="48.73109" lon="-0.86041">
        <ele>340</ele>
        <time>2022-03-11T17:59:36Z</time>
      </trkpt>
      <trkpt lat="48.73071" lon="-0.86012">
        <ele>337</ele>
        <time>2022-03-11T17:59:43Z</time>
      </trkpt>
      <trkpt lat="48.73043" lon="-0.85985">
        <ele>337</ele>
        <time>2022-03-11T17:59:49Z</time>
      </trkpt>
      <trkpt lat="48.7302" lon="-0.85957">
        <ele>337</ele>
        <time>2022-03-11T17:59:55Z</time>
      </trkpt>
      <trkpt lat="48.72914" lon="-0.85798">
        <ele>335</ele>
        <time>2022-03-11T18:00:21Z</time>
      </trkpt>
      <trkpt lat="48.72891" lon="-0.85767">
        <ele>334</ele>
        <time>2022-03-11T18:00:27Z</time>
      </trkpt>
      <trkpt lat="48.72868" lon="-0.85741">
        <ele>332</ele>
        <time>2022-03-11T18:00:32Z</time>
      </trkpt>
      <trkpt lat="48.72815" lon="-0.85692">
        <ele>329</ele>
        <time>2022-03-11T18:00:43Z</time>
      </trkpt>
      <trkpt lat="48.72717" lon="-0.85622">
        <ele>325</ele>
        <time>2022-03-11T18:01:02Z</time>
      </trkpt>
      <trkpt lat="48.726" lon="-0.85533">
        <ele>322</ele>
        <time>2022-03-11T18:01:25Z</time>
      </trkpt>
      <trkpt lat="48.72537" lon="-0.85461">
        <ele>317</ele>
        <time>2022-03-11T18:01:39Z</time>
      </trkpt>
      <trkpt lat="48.72515" lon="-0.85438">
        <ele>316</ele>
        <time>2022-03-11T18:01:44Z</time>
      </trkpt>
      <trkpt lat="48.72505" lon="-0.85429">
        <ele>315</ele>
        <time>2022-03-11T18:01:46Z</time>
      </trkpt>
      <trkpt lat="48.72491" lon="-0.85422">
        <ele>314</ele>
        <time>2022-03-11T18:01:49Z</time>
      </trkpt>
      <trkpt lat="48.72469" lon="-0.85417">
        <ele>312</ele>
        <time>2022-03-11T18:01:53Z</time>
      </trkpt>
      <trkpt lat="48.72305" lon="-0.85407">
        <ele>301</ele>
        <time>2022-03-11T18:02:22Z</time>
      </trkpt>
      <trkpt lat="48.72278" lon="-0.85403">
        <ele>301</ele>
        <time>2022-03-11T18:02:27Z</time>
      </trkpt>
      <trkpt lat="48.72243" lon="-0.85388">
        <ele>300</ele>
        <time>2022-03-11T18:02:33Z</time>
      </trkpt>
      <trkpt lat="48.72217" lon="-0.85369">
        <ele>298</ele>
        <time>2022-03-11T18:02:38Z</time>
      </trkpt>
      <trkpt lat="48.71946" lon="-0.85126">
        <ele>295</ele>
        <time>2022-03-11T18:03:34Z</time>
      </trkpt>
      <trkpt lat="48.71924" lon="-0.85105">
        <ele>295</ele>
        <time>2022-03-11T18:03:39Z</time>
      </trkpt>
      <trkpt lat="48.71897" lon="-0.85066">
        <ele>297</ele>
        <time>2022-03-11T18:03:46Z</time>
      </trkpt>
      <trkpt lat="48.71881" lon="-0.85034">
        <ele>298</ele>
        <time>2022-03-11T18:03:50Z</time>
      </trkpt>
      <trkpt lat="48.71865" lon="-0.84996">
        <ele>299</ele>
        <time>2022-03-11T18:03:56Z</time>
      </trkpt>
      <trkpt lat="48.71848" lon="-0.84945">
        <ele>299</ele>
        <time>2022-03-11T18:04:02Z</time>
      </trkpt>
      <trkpt lat="48.71837" lon="-0.84906">
        <ele>299</ele>
        <time>2022-03-11T18:04:07Z</time>
      </trkpt>
      <trkpt lat="48.71676" lon="-0.84139">
        <ele>300</ele>
        <time>2022-03-11T18:05:42Z</time>
      </trkpt>
      <trkpt lat="48.7167" lon="-0.8412">
        <ele>301</ele>
        <time>2022-03-11T18:05:44Z</time>
      </trkpt>
      <trkpt lat="48.71612" lon="-0.83964">
        <ele>303</ele>
        <time>2022-03-11T18:06:05Z</time>
      </trkpt>
      <trkpt lat="48.71593" lon="-0.83921">
        <ele>302</ele>
        <time>2022-03-11T18:06:11Z</time>
      </trkpt>
      <trkpt lat="48.71573" lon="-0.83882">
        <ele>300</ele>
        <time>2022-03-11T18:06:17Z</time>
      </trkpt>
      <trkpt lat="48.7155" lon="-0.83843">
        <ele>298</ele>
        <time>2022-03-11T18:06:23Z</time>
      </trkpt>
      <trkpt lat="48.71531" lon="-0.83817">
        <ele>297</ele>
        <time>2022-03-11T18:06:28Z</time>
      </trkpt>
      <trkpt lat="48.71511" lon="-0.83792">
        <ele>296</ele>
        <time>2022-03-11T18:06:32Z</time>
      </trkpt>
      <trkpt lat="48.71335" lon="-0.8361">
        <ele>280</ele>
        <time>2022-03-11T18:07:10Z</time>
      </trkpt>
      <trkpt lat="48.71183" lon="-0.8345">
        <ele>274</ele>
        <time>2022-03-11T18:07:43Z</time>
      </trkpt>
      <trkpt lat="48.71166" lon="-0.83423">
        <ele>272</ele>
        <time>2022-03-11T18:07:48Z</time>
      </trkpt>
      <trkpt lat="48.71153" lon="-0.83395">
        <ele>272</ele>
        <time>2022-03-11T18:07:52Z</time>
      </trkpt>
      <trkpt lat="48.71074" lon="-0.83168">
        <ele>268</ele>
        <time>2022-03-11T18:08:22Z</time>
      </trkpt>
      <trkpt lat="48.71044" lon="-0.8311">
        <ele>268</ele>
        <time>2022-03-11T18:08:30Z</time>
      </trkpt>
      <trkpt lat="48.71017" lon="-0.83068">
        <ele>267</ele>
        <time>2022-03-11T18:08:37Z</time>
      </trkpt>
      <trkpt lat="48.7097" lon="-0.83002">
        <ele>267</ele>
        <time>2022-03-11T18:08:49Z</time>
      </trkpt>
      <trkpt lat="48.70927" lon="-0.83055">
        <ele>263</ele>
        <time>2022-03-11T18:08:59Z</time>
      </trkpt>
      <trkpt lat="48.70913" lon="-0.8307">
        <ele>261</ele>
        <time>2022-03-11T18:09:02Z</time>
      </trkpt>
      <trkpt lat="48.70865" lon="-0.83099">
        <ele>258</ele>
        <time>2022-03-11T18:09:11Z</time>
      </trkpt>
      <trkpt lat="48.70855" lon="-0.83108">
        <ele>257</ele>
        <time>2022-03-11T18:09:13Z</time>
      </trkpt>
      <trkpt lat="48.70835" lon="-0.83138">
        <ele>258</ele>
        <time>2022-03-11T18:09:18Z</time>
      </trkpt>
      <trkpt lat="48.70803" lon="-0.83213">
        <ele>263</ele>
        <time>2022-03-11T18:09:28Z</time>
      </trkpt>
      <trkpt lat="48.70761" lon="-0.83293">
        <ele>265</ele>
        <time>2022-03-11T18:09:40Z</time>
      </trkpt>
      <trkpt lat="48.70729" lon="-0.83375">
        <ele>268</ele>
        <time>2022-03-11T18:09:52Z</time>
      </trkpt>
      <trkpt lat="48.70704" lon="-0.83464">
        <ele>270</ele>
        <time>2022-03-11T18:10:03Z</time>
      </trkpt>
      <trkpt lat="48.70688" lon="-0.83598">
        <ele>273</ele>
        <time>2022-03-11T18:10:19Z</time>
      </trkpt>
      <trkpt lat="48.70673" lon="-0.83676">
        <ele>273</ele>
        <time>2022-03-11T18:10:29Z</time>
      </trkpt>
      <trkpt lat="48.70595" lon="-0.83873">
        <ele>262</ele>
        <time>2022-03-11T18:10:56Z</time>
      </trkpt>
      <trkpt lat="48.70565" lon="-0.83974">
        <ele>255</ele>
        <time>2022-03-11T18:11:09Z</time>
      </trkpt>
      <trkpt lat="48.70521" lon="-0.84072">
        <ele>249</ele>
        <time>2022-03-11T18:11:22Z</time>
      </trkpt>
      <trkpt lat="48.70493" lon="-0.84281">
        <ele>242</ele>
        <time>2022-03-11T18:11:47Z</time>
      </trkpt>
      <trkpt lat="48.70452" lon="-0.84615">
        <ele>236</ele>
        <time>2022-03-11T18:12:27Z</time>
      </trkpt>
      <trkpt lat="48.70433" lon="-0.84714">
        <ele>237</ele>
        <time>2022-03-11T18:12:39Z</time>
      </trkpt>
      <trkpt lat="48.70423" lon="-0.84752">
        <ele>238</ele>
        <time>2022-03-11T18:12:44Z</time>
      </trkpt>
      <trkpt lat="48.70367" lon="-0.84898">
        <ele>233</ele>
        <time>2022-03-11T18:13:04Z</time>
      </trkpt>
      <trkpt lat="48.70334" lon="-0.84968">
        <ele>233</ele>
        <time>2022-03-11T18:13:14Z</time>
      </trkpt>
      <trkpt lat="48.70328" lon="-0.85002">
        <ele>233</ele>
        <time>2022-03-11T18:13:18Z</time>
      </trkpt>
      <trkpt lat="48.70317" lon="-0.85197">
        <ele>238</ele>
        <time>2022-03-11T18:13:41Z</time>
      </trkpt>
      <trkpt lat="48.70313" lon="-0.85322">
        <ele>239</ele>
        <time>2022-03-11T18:13:56Z</time>
      </trkpt>
      <trkpt lat="48.70327" lon="-0.85499">
        <ele>240</ele>
        <time>2022-03-11T18:14:17Z</time>
      </trkpt>
      <trkpt lat="48.70326" lon="-0.85723">
        <ele>230</ele>
        <time>2022-03-11T18:14:43Z</time>
      </trkpt>
      <trkpt lat="48.70315" lon="-0.85864">
        <ele>230</ele>
        <time>2022-03-11T18:15:00Z</time>
      </trkpt>
      <trkpt lat="48.70314" lon="-0.85967">
        <ele>233</ele>
        <time>2022-03-11T18:15:12Z</time>
      </trkpt>
      <trkpt lat="48.7033" lon="-0.86316">
        <ele>230</ele>
        <time>2022-03-11T18:15:53Z</time>
      </trkpt>
      <trkpt lat="48.70324" lon="-0.86345">
        <ele>229</ele>
        <time>2022-03-11T18:15:57Z</time>
      </trkpt>
      <trkpt lat="48.70308" lon="-0.8639">
        <ele>229</ele>
        <time>2022-03-11T18:16:03Z</time>
      </trkpt>
      <trkpt lat="48.70325" lon="-0.86524">
        <ele>227</ele>
        <time>2022-03-11T18:16:19Z</time>
      </trkpt>
      <trkpt lat="48.70327" lon="-0.8664">
        <ele>228</ele>
        <time>2022-03-11T18:16:32Z</time>
      </trkpt>
      <trkpt lat="48.70344" lon="-0.86719">
        <ele>227</ele>
        <time>2022-03-11T18:16:42Z</time>
      </trkpt>
      <trkpt lat="48.70398" lon="-0.86925">
        <ele>230</ele>
        <time>2022-03-11T18:17:08Z</time>
      </trkpt>
      <trkpt lat="48.70431" lon="-0.87099">
        <ele>229</ele>
        <time>2022-03-11T18:17:29Z</time>
      </trkpt>
      <trkpt lat="48.70463" lon="-0.87299">
        <ele>226</ele>
        <time>2022-03-11T18:17:54Z</time>
      </trkpt>
      <trkpt lat="48.70496" lon="-0.87428">
        <ele>229</ele>
        <time>2022-03-11T18:18:10Z</time>
      </trkpt>
      <trkpt lat="48.70566" lon="-0.87736">
        <ele>227</ele>
        <time>2022-03-11T18:18:48Z</time>
      </trkpt>
      <trkpt lat="48.70606" lon="-0.87859">
        <ele>226</ele>
        <time>2022-03-11T18:19:04Z</time>
      </trkpt>
      <trkpt lat="48.70663" lon="-0.88045">
        <ele>221</ele>
        <time>2022-03-11T18:19:28Z</time>
      </trkpt>
      <trkpt lat="48.70733" lon="-0.88289">
        <ele>218</ele>
        <time>2022-03-11T18:19:59Z</time>
      </trkpt>
      <trkpt lat="48.70776" lon="-0.88456">
        <ele>217</ele>
        <time>2022-03-11T18:20:20Z</time>
      </trkpt>
      <trkpt lat="48.70795" lon="-0.88541">
        <ele>220</ele>
        <time>2022-03-11T18:20:31Z</time>
      </trkpt>
      <trkpt lat="48.70844" lon="-0.88712">
        <ele>227</ele>
        <time>2022-03-11T18:20:53Z</time>
      </trkpt>
      <trkpt lat="48.70864" lon="-0.88859">
        <ele>226</ele>
        <time>2022-03-11T18:21:11Z</time>
      </trkpt>
      <trkpt lat="48.70871" lon="-0.88942">
        <ele>225</ele>
        <time>2022-03-11T18:21:20Z</time>
      </trkpt>
      <trkpt lat="48.70874" lon="-0.89053">
        <ele>224</ele>
        <time>2022-03-11T18:21:33Z</time>
      </trkpt>
      <trkpt lat="48.70869" lon="-0.89123">
        <ele>224</ele>
        <time>2022-03-11T18:21:42Z</time>
      </trkpt>
      <trkpt lat="48.70847" lon="-0.89359">
        <ele>219</ele>
        <time>2022-03-11T18:22:10Z</time>
      </trkpt>
      <trkpt lat="48.70845" lon="-0.89469">
        <ele>219</ele>
        <time>2022-03-11T18:22:23Z</time>
      </trkpt>
      <trkpt lat="48.70852" lon="-0.89827">
        <ele>223</ele>
        <time>2022-03-11T18:23:05Z</time>
      </trkpt>
      <trkpt lat="48.70882" lon="-0.90029">
        <ele>219</ele>
        <time>2022-03-11T18:23:29Z</time>
      </trkpt>
      <trkpt lat="48.70895" lon="-0.90128">
        <ele>216</ele>
        <time>2022-03-11T18:23:41Z</time>
      </trkpt>
      <trkpt lat="48.70916" lon="-0.90247">
        <ele>212</ele>
        <time>2022-03-11T18:23:55Z</time>
      </trkpt>
      <trkpt lat="48.70934" lon="-0.90321">
        <ele>210</ele>
        <time>2022-03-11T18:24:05Z</time>
      </trkpt>
      <trkpt lat="48.70941" lon="-0.90344">
        <ele>210</ele>
        <time>2022-03-11T18:24:07Z</time>
      </trkpt>
      <trkpt lat="48.71079" lon="-0.90485">
        <ele>207</ele>
        <time>2022-03-11T18:24:37Z</time>
      </trkpt>
      <trkpt lat="48.71237" lon="-0.90749">
        <ele>196</ele>
        <time>2022-03-11T18:25:19Z</time>
      </trkpt>
      <trkpt lat="48.71266" lon="-0.90777">
        <ele>195</ele>
        <time>2022-03-11T18:25:25Z</time>
      </trkpt>
      <trkpt lat="48.71302" lon="-0.90795">
        <ele>194</ele>
        <time>2022-03-11T18:25:32Z</time>
      </trkpt>
      <trkpt lat="48.71324" lon="-0.90797">
        <ele>194</ele>
        <time>2022-03-11T18:25:36Z</time>
      </trkpt>
      <trkpt lat="48.71384" lon="-0.9081">
        <ele>189</ele>
        <time>2022-03-11T18:25:47Z</time>
      </trkpt>
      <trkpt lat="48.71413" lon="-0.90825">
        <ele>187</ele>
        <time>2022-03-11T18:25:52Z</time>
      </trkpt>
      <trkpt lat="48.71429" lon="-0.90849">
        <ele>185</ele>
        <time>2022-03-11T18:25:56Z</time>
      </trkpt>
      <trkpt lat="48.71472" lon="-0.90955">
        <ele>182</ele>
        <time>2022-03-11T18:26:11Z</time>
      </trkpt>
      <trkpt lat="48.71494" lon="-0.91001">
        <ele>182</ele>
        <time>2022-03-11T18:26:17Z</time>
      </trkpt>
      <trkpt lat="48.71514" lon="-0.91023">
        <ele>180</ele>
        <time>2022-03-11T18:26:22Z</time>
      </trkpt>
      <trkpt lat="48.71787" lon="-0.91203">
        <ele>183</ele>
        <time>2022-03-11T18:27:15Z</time>
      </trkpt>
      <trkpt lat="48.71911" lon="-0.91253">
        <ele>195</ele>
        <time>2022-03-11T18:27:37Z</time>
      </trkpt>
      <trkpt lat="48.72011" lon="-0.91311">
        <ele>201</ele>
        <time>2022-03-11T18:27:57Z</time>
      </trkpt>
      <trkpt lat="48.72098" lon="-0.91355">
        <ele>209</ele>
        <time>2022-03-11T18:28:13Z</time>
      </trkpt>
      <trkpt lat="48.72113" lon="-0.91364">
        <ele>210</ele>
        <time>2022-03-11T18:28:16Z</time>
      </trkpt>
      <trkpt lat="48.72122" lon="-0.91376">
        <ele>211</ele>
        <time>2022-03-11T18:28:18Z</time>
      </trkpt>
      <trkpt lat="48.72134" lon="-0.91397">
        <ele>213</ele>
        <time>2022-03-11T18:28:21Z</time>
      </trkpt>
      <trkpt lat="48.72137" lon="-0.91434">
        <ele>216</ele>
        <time>2022-03-11T18:28:25Z</time>
      </trkpt>
      <trkpt lat="48.7214" lon="-0.91562">
        <ele>221</ele>
        <time>2022-03-11T18:28:40Z</time>
      </trkpt>
      <trkpt lat="48.72148" lon="-0.91597">
        <ele>222</ele>
        <time>2022-03-11T18:28:45Z</time>
      </trkpt>
      <trkpt lat="48.72162" lon="-0.91638">
        <ele>223</ele>
        <time>2022-03-11T18:28:50Z</time>
      </trkpt>
      <trkpt lat="48.72197" lon="-0.91742">
        <ele>222</ele>
        <time>2022-03-11T18:29:04Z</time>
      </trkpt>
      <trkpt lat="48.72183" lon="-0.9174">
        <ele>221</ele>
        <time>2022-03-11T18:29:06Z</time>
      </trkpt>
      <trkpt lat="48.72197" lon="-0.91742">
        <ele>222</ele>
        <time>2022-03-11T18:29:09Z</time>
      </trkpt>
      <trkpt lat="48.72257" lon="-0.91902">
        <ele>217</ele>
        <time>2022-03-11T18:29:31Z</time>
      </trkpt>
      <trkpt lat="48.72279" lon="-0.91966">
        <ele>218</ele>
        <time>2022-03-11T18:29:39Z</time>
      </trkpt>
      <trkpt lat="48.72241" lon="-0.91985">
        <ele>217</ele>
        <time>2022-03-11T18:29:46Z</time>
      </trkpt>
      <trkpt lat="48.72201" lon="-0.92026">
        <ele>214</ele>
        <time>2022-03-11T18:29:55Z</time>
      </trkpt>
      <trkpt lat="48.72075" lon="-0.92147">
        <ele>205</ele>
        <time>2022-03-11T18:30:21Z</time>
      </trkpt>
      <trkpt lat="48.71895" lon="-0.9233">
        <ele>195</ele>
        <time>2022-03-11T18:31:00Z</time>
      </trkpt>
      <trkpt lat="48.71845" lon="-0.92378">
        <ele>193</ele>
        <time>2022-03-11T18:31:10Z</time>
      </trkpt>
      <trkpt lat="48.71819" lon="-0.92394">
        <ele>192</ele>
        <time>2022-03-11T18:31:15Z</time>
      </trkpt>
      <trkpt lat="48.71795" lon="-0.92403">
        <ele>191</ele>
        <time>2022-03-11T18:31:20Z</time>
      </trkpt>
      <trkpt lat="48.71751" lon="-0.9241">
        <ele>190</ele>
        <time>2022-03-11T18:31:28Z</time>
      </trkpt>
      <trkpt lat="48.7124" lon="-0.92522">
        <ele>166</ele>
        <time>2022-03-11T18:33:00Z</time>
      </trkpt>
      <trkpt lat="48.71229" lon="-0.92525">
        <ele>167</ele>
        <time>2022-03-11T18:33:02Z</time>
      </trkpt>
      <trkpt lat="48.71041" lon="-0.92562">
        <ele>172</ele>
        <time>2022-03-11T18:33:35Z</time>
      </trkpt>
      <trkpt lat="48.7082" lon="-0.92615">
        <ele>185</ele>
        <time>2022-03-11T18:34:15Z</time>
      </trkpt>
      <trkpt lat="48.70242" lon="-0.92737">
        <ele>196</ele>
        <time>2022-03-11T18:35:59Z</time>
      </trkpt>
      <trkpt lat="48.70213" lon="-0.9275">
        <ele>197</ele>
        <time>2022-03-11T18:36:04Z</time>
      </trkpt>
      <trkpt lat="48.70191" lon="-0.92765">
        <ele>198</ele>
        <time>2022-03-11T18:36:09Z</time>
      </trkpt>
      <trkpt lat="48.7017" lon="-0.92784">
        <ele>199</ele>
        <time>2022-03-11T18:36:13Z</time>
      </trkpt>
      <trkpt lat="48.70149" lon="-0.92807">
        <ele>201</ele>
        <time>2022-03-11T18:36:18Z</time>
      </trkpt>
      <trkpt lat="48.70125" lon="-0.92842">
        <ele>204</ele>
        <time>2022-03-11T18:36:23Z</time>
      </trkpt>
      <trkpt lat="48.70104" lon="-0.92882">
        <ele>206</ele>
        <time>2022-03-11T18:36:29Z</time>
      </trkpt>
      <trkpt lat="48.7009" lon="-0.92923">
        <ele>207</ele>
        <time>2022-03-11T18:36:35Z</time>
      </trkpt>
      <trkpt lat="48.70079" lon="-0.9297">
        <ele>209</ele>
        <time>2022-03-11T18:36:41Z</time>
      </trkpt>
      <trkpt lat="48.70065" lon="-0.93081">
        <ele>214</ele>
        <time>2022-03-11T18:36:54Z</time>
      </trkpt>
      <trkpt lat="48.70061" lon="-0.93167">
        <ele>220</ele>
        <time>2022-03-11T18:37:04Z</time>
      </trkpt>
      <trkpt lat="48.70061" lon="-0.93229">
        <ele>225</ele>
        <time>2022-03-11T18:37:11Z</time>
      </trkpt>
      <trkpt lat="48.7007" lon="-0.93356">
        <ele>229</ele>
        <time>2022-03-11T18:37:26Z</time>
      </trkpt>
      <trkpt lat="48.70079" lon="-0.9352">
        <ele>237</ele>
        <time>2022-03-11T18:37:46Z</time>
      </trkpt>
      <trkpt lat="48.70085" lon="-0.93584">
        <ele>241</ele>
        <time>2022-03-11T18:37:53Z</time>
      </trkpt>
      <trkpt lat="48.70107" lon="-0.937">
        <ele>242</ele>
        <time>2022-03-11T18:38:08Z</time>
      </trkpt>
      <trkpt lat="48.70112" lon="-0.93757">
        <ele>241</ele>
        <time>2022-03-11T18:38:14Z</time>
      </trkpt>
      <trkpt lat="48.70111" lon="-0.93793">
        <ele>241</ele>
        <time>2022-03-11T18:38:18Z</time>
      </trkpt>
      <trkpt lat="48.70106" lon="-0.93946">
        <ele>241</ele>
        <time>2022-03-11T18:38:36Z</time>
      </trkpt>
      <trkpt lat="48.70109" lon="-0.93985">
        <ele>244</ele>
        <time>2022-03-11T18:38:41Z</time>
      </trkpt>
      <trkpt lat="48.70118" lon="-0.94039">
        <ele>244</ele>
        <time>2022-03-11T18:38:48Z</time>
      </trkpt>
      <trkpt lat="48.70119" lon="-0.9406">
        <ele>245</ele>
        <time>2022-03-11T18:38:50Z</time>
      </trkpt>
      <trkpt lat="48.70115" lon="-0.94078">
        <ele>246</ele>
        <time>2022-03-11T18:38:52Z</time>
      </trkpt>
      <trkpt lat="48.70107" lon="-0.94097">
        <ele>248</ele>
        <time>2022-03-11T18:38:55Z</time>
      </trkpt>
      <trkpt lat="48.70094" lon="-0.9411">
        <ele>251</ele>
        <time>2022-03-11T18:38:58Z</time>
      </trkpt>
      <trkpt lat="48.7008" lon="-0.94117">
        <ele>253</ele>
        <time>2022-03-11T18:39:00Z</time>
      </trkpt>
      <trkpt lat="48.70069" lon="-0.94118">
        <ele>255</ele>
        <time>2022-03-11T18:39:02Z</time>
      </trkpt>
      <trkpt lat="48.70058" lon="-0.94115">
        <ele>256</ele>
        <time>2022-03-11T18:39:04Z</time>
      </trkpt>
      <trkpt lat="48.70047" lon="-0.94107">
        <ele>257</ele>
        <time>2022-03-11T18:39:06Z</time>
      </trkpt>
      <trkpt lat="48.70038" lon="-0.94095">
        <ele>258</ele>
        <time>2022-03-11T18:39:09Z</time>
      </trkpt>
      <trkpt lat="48.70031" lon="-0.94081">
        <ele>258</ele>
        <time>2022-03-11T18:39:11Z</time>
      </trkpt>
      <trkpt lat="48.70001" lon="-0.93952">
        <ele>258</ele>
        <time>2022-03-11T18:39:27Z</time>
      </trkpt>
      <trkpt lat="48.69989" lon="-0.93917">
        <ele>257</ele>
        <time>2022-03-11T18:39:31Z</time>
      </trkpt>
      <trkpt lat="48.69965" lon="-0.9386">
        <ele>260</ele>
        <time>2022-03-11T18:39:39Z</time>
      </trkpt>
      <trkpt lat="48.69941" lon="-0.9382">
        <ele>261</ele>
        <time>2022-03-11T18:39:46Z</time>
      </trkpt>
      <trkpt lat="48.69917" lon="-0.93785">
        <ele>262</ele>
        <time>2022-03-11T18:39:52Z</time>
      </trkpt>
      <trkpt lat="48.69865" lon="-0.93731">
        <ele>260</ele>
        <time>2022-03-11T18:40:03Z</time>
      </trkpt>
      <trkpt lat="48.6981" lon="-0.9369">
        <ele>260</ele>
        <time>2022-03-11T18:40:14Z</time>
      </trkpt>
      <trkpt lat="48.69766" lon="-0.9365">
        <ele>262</ele>
        <time>2022-03-11T18:40:23Z</time>
      </trkpt>
      <trkpt lat="48.6973" lon="-0.93614">
        <ele>264</ele>
        <time>2022-03-11T18:40:31Z</time>
      </trkpt>
      <trkpt lat="48.69701" lon="-0.93579">
        <ele>265</ele>
        <time>2022-03-11T18:40:37Z</time>
      </trkpt>
      <trkpt lat="48.69677" lon="-0.93546">
        <ele>265</ele>
        <time>2022-03-11T18:40:43Z</time>
      </trkpt>
      <trkpt lat="48.69645" lon="-0.93495">
        <ele>266</ele>
        <time>2022-03-11T18:40:51Z</time>
      </trkpt>
      <trkpt lat="48.6962" lon="-0.93442">
        <ele>267</ele>
        <time>2022-03-11T18:40:59Z</time>
      </trkpt>
      <trkpt lat="48.69601" lon="-0.93392">
        <ele>268</ele>
        <time>2022-03-11T18:41:06Z</time>
      </trkpt>
      <trkpt lat="48.69586" lon="-0.93343">
        <ele>270</ele>
        <time>2022-03-11T18:41:12Z</time>
      </trkpt>
      <trkpt lat="48.69564" lon="-0.93239">
        <ele>273</ele>
        <time>2022-03-11T18:41:25Z</time>
      </trkpt>
      <trkpt lat="48.69555" lon="-0.93214">
        <ele>273</ele>
        <time>2022-03-11T18:41:28Z</time>
      </trkpt>
      <trkpt lat="48.69539" lon="-0.93186">
        <ele>273</ele>
        <time>2022-03-11T18:41:32Z</time>
      </trkpt>
      <trkpt lat="48.69521" lon="-0.9317">
        <ele>273</ele>
        <time>2022-03-11T18:41:36Z</time>
      </trkpt>
      <trkpt lat="48.69495" lon="-0.93154">
        <ele>273</ele>
        <time>2022-03-11T18:41:41Z</time>
      </trkpt>
      <trkpt lat="48.6896" lon="-0.92917">
        <ele>293</ele>
        <time>2022-03-11T18:43:20Z</time>
      </trkpt>
      <trkpt lat="48.68882" lon="-0.92907">
        <ele>294</ele>
        <time>2022-03-11T18:43:34Z</time>
      </trkpt>
      <trkpt lat="48.68851" lon="-0.92909">
        <ele>295</ele>
        <time>2022-03-11T18:43:40Z</time>
      </trkpt>
      <trkpt lat="48.68819" lon="-0.92915">
        <ele>294</ele>
        <time>2022-03-11T18:43:46Z</time>
      </trkpt>
      <trkpt lat="48.68768" lon="-0.92938">
        <ele>292</ele>
        <time>2022-03-11T18:43:55Z</time>
      </trkpt>
      <trkpt lat="48.6841" lon="-0.93123">
        <ele>277</ele>
        <time>2022-03-11T18:45:02Z</time>
      </trkpt>
      <trkpt lat="48.68348" lon="-0.9316">
        <ele>276</ele>
        <time>2022-03-11T18:45:14Z</time>
      </trkpt>
      <trkpt lat="48.68325" lon="-0.93176">
        <ele>276</ele>
        <time>2022-03-11T18:45:19Z</time>
      </trkpt>
      <trkpt lat="48.683" lon="-0.932">
        <ele>275</ele>
        <time>2022-03-11T18:45:24Z</time>
      </trkpt>
      <trkpt lat="48.68277" lon="-0.93228">
        <ele>275</ele>
        <time>2022-03-11T18:45:29Z</time>
      </trkpt>
      <trkpt lat="48.6824" lon="-0.93285">
        <ele>275</ele>
        <time>2022-03-11T18:45:39Z</time>
      </trkpt>
      <trkpt lat="48.67799" lon="-0.94008">
        <ele>280</ele>
        <time>2022-03-11T18:47:34Z</time>
      </trkpt>
      <trkpt lat="48.67535" lon="-0.94444">
        <ele>285</ele>
        <time>2022-03-11T18:48:44Z</time>
      </trkpt>
      <trkpt lat="48.67488" lon="-0.94509">
        <ele>284</ele>
        <time>2022-03-11T18:48:55Z</time>
      </trkpt>
      <trkpt lat="48.67463" lon="-0.94532">
        <ele>283</ele>
        <time>2022-03-11T18:49:00Z</time>
      </trkpt>
      <trkpt lat="48.67419" lon="-0.94559">
        <ele>283</ele>
        <time>2022-03-11T18:49:09Z</time>
      </trkpt>
      <trkpt lat="48.67388" lon="-0.94571">
        <ele>283</ele>
        <time>2022-03-11T18:49:14Z</time>
      </trkpt>
      <trkpt lat="48.67159" lon="-0.9464">
        <ele>281</ele>
        <time>2022-03-11T18:49:56Z</time>
      </trkpt>
      <trkpt lat="48.67139" lon="-0.94643">
        <ele>280</ele>
        <time>2022-03-11T18:49:59Z</time>
      </trkpt>
      <trkpt lat="48.6712" lon="-0.94642">
        <ele>279</ele>
        <time>2022-03-11T18:50:03Z</time>
      </trkpt>
      <trkpt lat="48.67073" lon="-0.94631">
        <ele>277</ele>
        <time>2022-03-11T18:50:11Z</time>
      </trkpt>
      <trkpt lat="48.67072" lon="-0.94641">
        <ele>277</ele>
        <time>2022-03-11T18:50:13Z</time>
      </trkpt>
      <trkpt lat="48.67068" lon="-0.9465">
        <ele>277</ele>
        <time>2022-03-11T18:50:14Z</time>
      </trkpt>
      <trkpt lat="48.67064" lon="-0.94658">
        <ele>276</ele>
        <time>2022-03-11T18:50:15Z</time>
      </trkpt>
      <trkpt lat="48.67058" lon="-0.94664">
        <ele>276</ele>
        <time>2022-03-11T18:50:16Z</time>
      </trkpt>
      <trkpt lat="48.6705" lon="-0.94667">
        <ele>276</ele>
        <time>2022-03-11T18:50:18Z</time>
      </trkpt>
      <trkpt lat="48.67041" lon="-0.94666">
        <ele>277</ele>
        <time>2022-03-11T18:50:19Z</time>
      </trkpt>
      <trkpt lat="48.67034" lon="-0.94661">
        <ele>277</ele>
        <time>2022-03-11T18:50:21Z</time>
      </trkpt>
      <trkpt lat="48.67028" lon="-0.94654">
        <ele>277</ele>
        <time>2022-03-11T18:50:22Z</time>
      </trkpt>
      <trkpt lat="48.67024" lon="-0.94645">
        <ele>277</ele>
        <time>2022-03-11T18:50:23Z</time>
      </trkpt>
      <trkpt lat="48.67022" lon="-0.94635">
        <ele>277</ele>
        <time>2022-03-11T18:50:25Z</time>
      </trkpt>
      <trkpt lat="48.67022" lon="-0.94624">
        <ele>278</ele>
        <time>2022-03-11T18:50:26Z</time>
      </trkpt>
      <trkpt lat="48.66962" lon="-0.94628">
        <ele>278</ele>
        <time>2022-03-11T18:50:37Z</time>
      </trkpt>
      <trkpt lat="48.66936" lon="-0.94622">
        <ele>278</ele>
        <time>2022-03-11T18:50:41Z</time>
      </trkpt>
      <trkpt lat="48.66918" lon="-0.94615">
        <ele>278</ele>
        <time>2022-03-11T18:50:45Z</time>
      </trkpt>
      <trkpt lat="48.66597" lon="-0.94453">
        <ele>268</ele>
        <time>2022-03-11T18:51:45Z</time>
      </trkpt>
      <trkpt lat="48.66577" lon="-0.94446">
        <ele>267</ele>
        <time>2022-03-11T18:51:48Z</time>
      </trkpt>
      <trkpt lat="48.66558" lon="-0.94442">
        <ele>266</ele>
        <time>2022-03-11T18:51:52Z</time>
      </trkpt>
      <trkpt lat="48.66512" lon="-0.94443">
        <ele>263</ele>
        <time>2022-03-11T18:52:00Z</time>
      </trkpt>
      <trkpt lat="48.66487" lon="-0.9445">
        <ele>261</ele>
        <time>2022-03-11T18:52:04Z</time>
      </trkpt>
      <trkpt lat="48.66461" lon="-0.94461">
        <ele>259</ele>
        <time>2022-03-11T18:52:09Z</time>
      </trkpt>
      <trkpt lat="48.66392" lon="-0.94504">
        <ele>256</ele>
        <time>2022-03-11T18:52:23Z</time>
      </trkpt>
      <trkpt lat="48.66356" lon="-0.94531">
        <ele>253</ele>
        <time>2022-03-11T18:52:30Z</time>
      </trkpt>
      <trkpt lat="48.66264" lon="-0.9461">
        <ele>248</ele>
        <time>2022-03-11T18:52:49Z</time>
      </trkpt>
      <trkpt lat="48.66185" lon="-0.94676">
        <ele>246</ele>
        <time>2022-03-11T18:53:05Z</time>
      </trkpt>
      <trkpt lat="48.66154" lon="-0.94706">
        <ele>245</ele>
        <time>2022-03-11T18:53:11Z</time>
      </trkpt>
      <trkpt lat="48.66141" lon="-0.94715">
        <ele>244</ele>
        <time>2022-03-11T18:53:14Z</time>
      </trkpt>
      <trkpt lat="48.66118" lon="-0.94723">
        <ele>243</ele>
        <time>2022-03-11T18:53:18Z</time>
      </trkpt>
      <trkpt lat="48.66099" lon="-0.94723">
        <ele>242</ele>
        <time>2022-03-11T18:53:21Z</time>
      </trkpt>
      <trkpt lat="48.66056" lon="-0.94711">
        <ele>240</ele>
        <time>2022-03-11T18:53:29Z</time>
      </trkpt>
      <trkpt lat="48.66022" lon="-0.94702">
        <ele>239</ele>
        <time>2022-03-11T18:53:35Z</time>
      </trkpt>
      <trkpt lat="48.66009" lon="-0.94703">
        <ele>239</ele>
        <time>2022-03-11T18:53:37Z</time>
      </trkpt>
      <trkpt lat="48.65928" lon="-0.9472">
        <ele>237</ele>
        <time>2022-03-11T18:53:52Z</time>
      </trkpt>
      <trkpt lat="48.65845" lon="-0.94733">
        <ele>235</ele>
        <time>2022-03-11T18:54:07Z</time>
      </trkpt>
      <trkpt lat="48.65825" lon="-0.94732">
        <ele>234</ele>
        <time>2022-03-11T18:54:10Z</time>
      </trkpt>
      <trkpt lat="48.65793" lon="-0.9472">
        <ele>233</ele>
        <time>2022-03-11T18:54:16Z</time>
      </trkpt>
      <trkpt lat="48.65783" lon="-0.9471">
        <ele>232</ele>
        <time>2022-03-11T18:54:18Z</time>
      </trkpt>
      <trkpt lat="48.6577" lon="-0.94692">
        <ele>231</ele>
        <time>2022-03-11T18:54:22Z</time>
      </trkpt>
      <trkpt lat="48.65764" lon="-0.94675">
        <ele>231</ele>
        <time>2022-03-11T18:54:24Z</time>
      </trkpt>
      <trkpt lat="48.65758" lon="-0.94643">
        <ele>229</ele>
        <time>2022-03-11T18:54:28Z</time>
      </trkpt>
      <trkpt lat="48.65744" lon="-0.9458">
        <ele>227</ele>
        <time>2022-03-11T18:54:36Z</time>
      </trkpt>
      <trkpt lat="48.65729" lon="-0.94545">
        <ele>227</ele>
        <time>2022-03-11T18:54:40Z</time>
      </trkpt>
      <trkpt lat="48.65706" lon="-0.94505">
        <ele>226</ele>
        <time>2022-03-11T18:54:47Z</time>
      </trkpt>
      <trkpt lat="48.65678" lon="-0.94471">
        <ele>229</ele>
        <time>2022-03-11T18:54:53Z</time>
      </trkpt>
      <trkpt lat="48.65641" lon="-0.94447">
        <ele>230</ele>
        <time>2022-03-11T18:55:00Z</time>
      </trkpt>
      <trkpt lat="48.6561" lon="-0.94424">
        <ele>229</ele>
        <time>2022-03-11T18:55:06Z</time>
      </trkpt>
      <trkpt lat="48.65592" lon="-0.94396">
        <ele>227</ele>
        <time>2022-03-11T18:55:11Z</time>
      </trkpt>
      <trkpt lat="48.65579" lon="-0.94305">
        <ele>226</ele>
        <time>2022-03-11T18:55:22Z</time>
      </trkpt>
      <trkpt lat="48.65563" lon="-0.94242">
        <ele>224</ele>
        <time>2022-03-11T18:55:30Z</time>
      </trkpt>
      <trkpt lat="48.65548" lon="-0.94207">
        <ele>225</ele>
        <time>2022-03-11T18:55:35Z</time>
      </trkpt>
      <trkpt lat="48.6553" lon="-0.94181">
        <ele>226</ele>
        <time>2022-03-11T18:55:39Z</time>
      </trkpt>
      <trkpt lat="48.65508" lon="-0.94157">
        <ele>226</ele>
        <time>2022-03-11T18:55:44Z</time>
      </trkpt>
      <trkpt lat="48.65494" lon="-0.94146">
        <ele>226</ele>
        <time>2022-03-11T18:55:47Z</time>
      </trkpt>
      <trkpt lat="48.65473" lon="-0.94138">
        <ele>225</ele>
        <time>2022-03-11T18:55:51Z</time>
      </trkpt>
      <trkpt lat="48.65351" lon="-0.94118">
        <ele>221</ele>
        <time>2022-03-11T18:56:13Z</time>
      </trkpt>
      <trkpt lat="48.65335" lon="-0.94113">
        <ele>221</ele>
        <time>2022-03-11T18:56:15Z</time>
      </trkpt>
      <trkpt lat="48.65278" lon="-0.94083">
        <ele>223</ele>
        <time>2022-03-11T18:56:26Z</time>
      </trkpt>
      <trkpt lat="48.65243" lon="-0.94069">
        <ele>224</ele>
        <time>2022-03-11T18:56:33Z</time>
      </trkpt>
      <trkpt lat="48.65191" lon="-0.9406">
        <ele>224</ele>
        <time>2022-03-11T18:56:42Z</time>
      </trkpt>
      <trkpt lat="48.65152" lon="-0.94064">
        <ele>224</ele>
        <time>2022-03-11T18:56:49Z</time>
      </trkpt>
      <trkpt lat="48.65079" lon="-0.94085">
        <ele>224</ele>
        <time>2022-03-11T18:57:02Z</time>
      </trkpt>
      <trkpt lat="48.65039" lon="-0.94101">
        <ele>222</ele>
        <time>2022-03-11T18:57:09Z</time>
      </trkpt>
      <trkpt lat="48.6501" lon="-0.94118">
        <ele>221</ele>
        <time>2022-03-11T18:57:15Z</time>
      </trkpt>
      <trkpt lat="48.64963" lon="-0.9416">
        <ele>218</ele>
        <time>2022-03-11T18:57:25Z</time>
      </trkpt>
      <trkpt lat="48.64926" lon="-0.94199">
        <ele>218</ele>
        <time>2022-03-11T18:57:33Z</time>
      </trkpt>
      <trkpt lat="48.64891" lon="-0.94228">
        <ele>219</ele>
        <time>2022-03-11T18:57:40Z</time>
      </trkpt>
      <trkpt lat="48.64859" lon="-0.94251">
        <ele>220</ele>
        <time>2022-03-11T18:57:46Z</time>
      </trkpt>
      <trkpt lat="48.64794" lon="-0.94286">
        <ele>218</ele>
        <time>2022-03-11T18:57:58Z</time>
      </trkpt>
      <trkpt lat="48.64777" lon="-0.94289">
        <ele>217</ele>
        <time>2022-03-11T18:58:01Z</time>
      </trkpt>
      <trkpt lat="48.64752" lon="-0.94289">
        <ele>217</ele>
        <time>2022-03-11T18:58:06Z</time>
      </trkpt>
      <trkpt lat="48.6475" lon="-0.9436">
        <ele>210</ele>
        <time>2022-03-11T18:58:14Z</time>
      </trkpt>
      <trkpt lat="48.6475" lon="-0.94512">
        <ele>193</ele>
        <time>2022-03-11T18:58:32Z</time>
      </trkpt>
      <trkpt lat="48.6459" lon="-0.94533">
        <ele>173</ele>
        <time>2022-03-11T18:59:01Z</time>
      </trkpt>
      <trkpt lat="48.64534" lon="-0.94557">
        <ele>168</ele>
        <time>2022-03-11T18:59:11Z</time>
      </trkpt>
      <trkpt lat="48.64515" lon="-0.94582">
        <ele>163</ele>
        <time>2022-03-11T18:59:16Z</time>
      </trkpt>
      <trkpt lat="48.64502" lon="-0.9462">
        <ele>158</ele>
        <time>2022-03-11T18:59:21Z</time>
      </trkpt>
      <trkpt lat="48.64497" lon="-0.94653">
        <ele>154</ele>
        <time>2022-03-11T18:59:25Z</time>
      </trkpt>
      <trkpt lat="48.64502" lon="-0.94725">
        <ele>148</ele>
        <time>2022-03-11T18:59:33Z</time>
      </trkpt>
      <trkpt lat="48.64496" lon="-0.94774">
        <ele>149</ele>
        <time>2022-03-11T18:59:39Z</time>
      </trkpt>
      <trkpt lat="48.64491" lon="-0.94821">
        <ele>152</ele>
        <time>2022-03-11T18:59:44Z</time>
      </trkpt>
      <trkpt lat="48.64463" lon="-0.95059">
        <ele>164</ele>
        <time>2022-03-11T19:00:13Z</time>
      </trkpt>
      <trkpt lat="48.64436" lon="-0.95165">
        <ele>167</ele>
        <time>2022-03-11T19:00:26Z</time>
      </trkpt>
      <trkpt lat="48.64399" lon="-0.95271">
        <ele>174</ele>
        <time>2022-03-11T19:00:40Z</time>
      </trkpt>
      <trkpt lat="48.6436" lon="-0.95341">
        <ele>178</ele>
        <time>2022-03-11T19:00:51Z</time>
      </trkpt>
      <trkpt lat="48.64279" lon="-0.95453">
        <ele>178</ele>
        <time>2022-03-11T19:01:11Z</time>
      </trkpt>
      <trkpt lat="48.64263" lon="-0.95497">
        <ele>178</ele>
        <time>2022-03-11T19:01:17Z</time>
      </trkpt>
      <trkpt lat="48.64257" lon="-0.95516">
        <ele>178</ele>
        <time>2022-03-11T19:01:19Z</time>
      </trkpt>
      <trkpt lat="48.64248" lon="-0.95537">
        <ele>178</ele>
        <time>2022-03-11T19:01:22Z</time>
      </trkpt>
      <trkpt lat="48.64189" lon="-0.95629">
        <ele>176</ele>
        <time>2022-03-11T19:01:37Z</time>
      </trkpt>
      <trkpt lat="48.64097" lon="-0.95865">
        <ele>165</ele>
        <time>2022-03-11T19:02:09Z</time>
      </trkpt>
      <trkpt lat="48.64057" lon="-0.95977">
        <ele>162</ele>
        <time>2022-03-11T19:02:24Z</time>
      </trkpt>
      <trkpt lat="48.64037" lon="-0.961">
        <ele>160</ele>
        <time>2022-03-11T19:02:39Z</time>
      </trkpt>
      <trkpt lat="48.6402" lon="-0.9614">
        <ele>159</ele>
        <time>2022-03-11T19:02:45Z</time>
      </trkpt>
      <trkpt lat="48.63983" lon="-0.96202">
        <ele>159</ele>
        <time>2022-03-11T19:02:55Z</time>
      </trkpt>
      <trkpt lat="48.63981" lon="-0.96269">
        <ele>161</ele>
        <time>2022-03-11T19:03:02Z</time>
      </trkpt>
      <trkpt lat="48.63965" lon="-0.96494">
        <ele>160</ele>
        <time>2022-03-11T19:03:29Z</time>
      </trkpt>
      <trkpt lat="48.63972" lon="-0.9652">
        <ele>159</ele>
        <time>2022-03-11T19:03:32Z</time>
      </trkpt>
      <trkpt lat="48.64002" lon="-0.966">
        <ele>160</ele>
        <time>2022-03-11T19:03:43Z</time>
      </trkpt>
      <trkpt lat="48.64006" lon="-0.96619">
        <ele>159</ele>
        <time>2022-03-11T19:03:45Z</time>
      </trkpt>
      <trkpt lat="48.64008" lon="-0.96676">
        <ele>157</ele>
        <time>2022-03-11T19:03:52Z</time>
      </trkpt>
      <trkpt lat="48.64014" lon="-0.96735">
        <ele>154</ele>
        <time>2022-03-11T19:03:59Z</time>
      </trkpt>
      <trkpt lat="48.64044" lon="-0.96786">
        <ele>154</ele>
        <time>2022-03-11T19:04:07Z</time>
      </trkpt>
      <trkpt lat="48.64049" lon="-0.96807">
        <ele>153</ele>
        <time>2022-03-11T19:04:10Z</time>
      </trkpt>
      <trkpt lat="48.64055" lon="-0.96916">
        <ele>153</ele>
        <time>2022-03-11T19:04:23Z</time>
      </trkpt>
      <trkpt lat="48.6404" lon="-0.9713">
        <ele>153</ele>
        <time>2022-03-11T19:04:48Z</time>
      </trkpt>
      <trkpt lat="48.64027" lon="-0.97486">
        <ele>151</ele>
        <time>2022-03-11T19:05:30Z</time>
      </trkpt>
      <trkpt lat="48.64025" lon="-0.97628">
        <ele>150</ele>
        <time>2022-03-11T19:05:47Z</time>
      </trkpt>
      <trkpt lat="48.64012" lon="-0.97672">
        <ele>148</ele>
        <time>2022-03-11T19:05:52Z</time>
      </trkpt>
      <trkpt lat="48.63961" lon="-0.97812">
        <ele>151</ele>
        <time>2022-03-11T19:06:11Z</time>
      </trkpt>
      <trkpt lat="48.63928" lon="-0.97892">
        <ele>150</ele>
        <time>2022-03-11T19:06:22Z</time>
      </trkpt>
      <trkpt lat="48.63909" lon="-0.9797">
        <ele>148</ele>
        <time>2022-03-11T19:06:32Z</time>
      </trkpt>
      <trkpt lat="48.63871" lon="-0.98222">
        <ele>135</ele>
        <time>2022-03-11T19:07:02Z</time>
      </trkpt>
      <trkpt lat="48.63873" lon="-0.98312">
        <ele>131</ele>
        <time>2022-03-11T19:07:13Z</time>
      </trkpt>
      <trkpt lat="48.63892" lon="-0.98385">
        <ele>131</ele>
        <time>2022-03-11T19:07:22Z</time>
      </trkpt>
      <trkpt lat="48.63891" lon="-0.98438">
        <ele>131</ele>
        <time>2022-03-11T19:07:28Z</time>
      </trkpt>
      <trkpt lat="48.63869" lon="-0.98499">
        <ele>131</ele>
        <time>2022-03-11T19:07:37Z</time>
      </trkpt>
      <trkpt lat="48.63851" lon="-0.98572">
        <ele>129</ele>
        <time>2022-03-11T19:07:46Z</time>
      </trkpt>
      <trkpt lat="48.63841" lon="-0.98666">
        <ele>128</ele>
        <time>2022-03-11T19:07:57Z</time>
      </trkpt>
      <trkpt lat="48.63845" lon="-0.9876">
        <ele>126</ele>
        <time>2022-03-11T19:08:08Z</time>
      </trkpt>
      <trkpt lat="48.63872" lon="-0.98873">
        <ele>124</ele>
        <time>2022-03-11T19:08:22Z</time>
      </trkpt>
      <trkpt lat="48.6387" lon="-0.98898">
        <ele>124</ele>
        <time>2022-03-11T19:08:25Z</time>
      </trkpt>
      <trkpt lat="48.63835" lon="-0.98972">
        <ele>123</ele>
        <time>2022-03-11T19:08:36Z</time>
      </trkpt>
      <trkpt lat="48.63829" lon="-0.99026">
        <ele>125</ele>
        <time>2022-03-11T19:08:42Z</time>
      </trkpt>
      <trkpt lat="48.63831" lon="-0.99071">
        <ele>127</ele>
        <time>2022-03-11T19:08:48Z</time>
      </trkpt>
      <trkpt lat="48.63856" lon="-0.99202">
        <ele>132</ele>
        <time>2022-03-11T19:09:04Z</time>
      </trkpt>
      <trkpt lat="48.63865" lon="-0.99294">
        <ele>134</ele>
        <time>2022-03-11T19:09:15Z</time>
      </trkpt>
      <trkpt lat="48.63866" lon="-0.99392">
        <ele>135</ele>
        <time>2022-03-11T19:09:26Z</time>
      </trkpt>
      <trkpt lat="48.63902" lon="-0.9967">
        <ele>133</ele>
        <time>2022-03-11T19:09:59Z</time>
      </trkpt>
      <trkpt lat="48.63916" lon="-0.99718">
        <ele>132</ele>
        <time>2022-03-11T19:10:06Z</time>
      </trkpt>
      <trkpt lat="48.63977" lon="-0.99947">
        <ele>130</ele>
        <time>2022-03-11T19:10:35Z</time>
      </trkpt>
      <trkpt lat="48.64022" lon="-1.00124">
        <ele>131</ele>
        <time>2022-03-11T19:10:57Z</time>
      </trkpt>
      <trkpt lat="48.64052" lon="-1.00201">
        <ele>133</ele>
        <time>2022-03-11T19:11:07Z</time>
      </trkpt>
      <trkpt lat="48.64102" lon="-1.00336">
        <ele>133</ele>
        <time>2022-03-11T19:11:26Z</time>
      </trkpt>
      <trkpt lat="48.64175" lon="-1.00491">
        <ele>135</ele>
        <time>2022-03-11T19:11:48Z</time>
      </trkpt>
      <trkpt lat="48.64248" lon="-1.00654">
        <ele>137</ele>
        <time>2022-03-11T19:12:11Z</time>
      </trkpt>
      <trkpt lat="48.64259" lon="-1.00715">
        <ele>138</ele>
        <time>2022-03-11T19:12:19Z</time>
      </trkpt>
      <trkpt lat="48.64259" lon="-1.00823">
        <ele>139</ele>
        <time>2022-03-11T19:12:31Z</time>
      </trkpt>
      <trkpt lat="48.64265" lon="-1.00991">
        <ele>138</ele>
        <time>2022-03-11T19:12:51Z</time>
      </trkpt>
      <trkpt lat="48.64254" lon="-1.0113">
        <ele>134</ele>
        <time>2022-03-11T19:13:07Z</time>
      </trkpt>
      <trkpt lat="48.64248" lon="-1.01175">
        <ele>133</ele>
        <time>2022-03-11T19:13:13Z</time>
      </trkpt>
      <trkpt lat="48.64187" lon="-1.01323">
        <ele>125</ele>
        <time>2022-03-11T19:13:33Z</time>
      </trkpt>
      <trkpt lat="48.64148" lon="-1.01392">
        <ele>122</ele>
        <time>2022-03-11T19:13:44Z</time>
      </trkpt>
      <trkpt lat="48.64128" lon="-1.01464">
        <ele>121</ele>
        <time>2022-03-11T19:13:53Z</time>
      </trkpt>
      <trkpt lat="48.64121" lon="-1.01512">
        <ele>122</ele>
        <time>2022-03-11T19:13:59Z</time>
      </trkpt>
      <trkpt lat="48.64118" lon="-1.01547">
        <ele>124</ele>
        <time>2022-03-11T19:14:03Z</time>
      </trkpt>
      <trkpt lat="48.64124" lon="-1.01571">
        <ele>126</ele>
        <time>2022-03-11T19:14:06Z</time>
      </trkpt>
      <trkpt lat="48.64148" lon="-1.01633">
        <ele>129</ele>
        <time>2022-03-11T19:14:15Z</time>
      </trkpt>
      <trkpt lat="48.64156" lon="-1.01678">
        <ele>132</ele>
        <time>2022-03-11T19:14:20Z</time>
      </trkpt>
      <trkpt lat="48.64156" lon="-1.0172">
        <ele>134</ele>
        <time>2022-03-11T19:14:25Z</time>
      </trkpt>
      <trkpt lat="48.64161" lon="-1.01781">
        <ele>135</ele>
        <time>2022-03-11T19:14:32Z</time>
      </trkpt>
      <trkpt lat="48.64174" lon="-1.01842">
        <ele>137</ele>
        <time>2022-03-11T19:14:40Z</time>
      </trkpt>
      <trkpt lat="48.64208" lon="-1.01927">
        <ele>139</ele>
        <time>2022-03-11T19:14:51Z</time>
      </trkpt>
      <trkpt lat="48.64224" lon="-1.01996">
        <ele>141</ele>
        <time>2022-03-11T19:15:00Z</time>
      </trkpt>
      <trkpt lat="48.6422" lon="-1.02137">
        <ele>135</ele>
        <time>2022-03-11T19:15:17Z</time>
      </trkpt>
      <trkpt lat="48.64226" lon="-1.02205">
        <ele>134</ele>
        <time>2022-03-11T19:15:25Z</time>
      </trkpt>
      <trkpt lat="48.64218" lon="-1.02258">
        <ele>132</ele>
        <time>2022-03-11T19:15:31Z</time>
      </trkpt>
      <trkpt lat="48.6421" lon="-1.02365">
        <ele>133</ele>
        <time>2022-03-11T19:15:44Z</time>
      </trkpt>
      <trkpt lat="48.64197" lon="-1.02395">
        <ele>133</ele>
        <time>2022-03-11T19:15:48Z</time>
      </trkpt>
      <trkpt lat="48.6418" lon="-1.02449">
        <ele>134</ele>
        <time>2022-03-11T19:15:55Z</time>
      </trkpt>
      <trkpt lat="48.64176" lon="-1.02487">
        <ele>134</ele>
        <time>2022-03-11T19:16:00Z</time>
      </trkpt>
      <trkpt lat="48.64171" lon="-1.02682">
        <ele>142</ele>
        <time>2022-03-11T19:16:22Z</time>
      </trkpt>
      <trkpt lat="48.64186" lon="-1.02824">
        <ele>140</ele>
        <time>2022-03-11T19:16:39Z</time>
      </trkpt>
      <trkpt lat="48.64252" lon="-1.03212">
        <ele>134</ele>
        <time>2022-03-11T19:17:26Z</time>
      </trkpt>
      <trkpt lat="48.64268" lon="-1.03264">
        <ele>133</ele>
        <time>2022-03-11T19:17:33Z</time>
      </trkpt>
      <trkpt lat="48.64343" lon="-1.03367">
        <ele>132</ele>
        <time>2022-03-11T19:17:51Z</time>
      </trkpt>
      <trkpt lat="48.64352" lon="-1.03386">
        <ele>132</ele>
        <time>2022-03-11T19:17:54Z</time>
      </trkpt>
      <trkpt lat="48.64356" lon="-1.03411">
        <ele>132</ele>
        <time>2022-03-11T19:17:57Z</time>
      </trkpt>
      <trkpt lat="48.64354" lon="-1.03495">
        <ele>133</ele>
        <time>2022-03-11T19:18:07Z</time>
      </trkpt>
      <trkpt lat="48.64343" lon="-1.03585">
        <ele>132</ele>
        <time>2022-03-11T19:18:18Z</time>
      </trkpt>
      <trkpt lat="48.64343" lon="-1.03642">
        <ele>133</ele>
        <time>2022-03-11T19:18:24Z</time>
      </trkpt>
      <trkpt lat="48.64346" lon="-1.03676">
        <ele>133</ele>
        <time>2022-03-11T19:18:28Z</time>
      </trkpt>
      <trkpt lat="48.64377" lon="-1.03862">
        <ele>133</ele>
        <time>2022-03-11T19:18:51Z</time>
      </trkpt>
      <trkpt lat="48.64433" lon="-1.04061">
        <ele>138</ele>
        <time>2022-03-11T19:19:16Z</time>
      </trkpt>
      <trkpt lat="48.64436" lon="-1.04079">
        <ele>139</ele>
        <time>2022-03-11T19:19:19Z</time>
      </trkpt>
      <trkpt lat="48.6444" lon="-1.0413">
        <ele>140</ele>
        <time>2022-03-11T19:19:25Z</time>
      </trkpt>
      <trkpt lat="48.64444" lon="-1.04262">
        <ele>141</ele>
        <time>2022-03-11T19:19:40Z</time>
      </trkpt>
      <trkpt lat="48.64449" lon="-1.04283">
        <ele>142</ele>
        <time>2022-03-11T19:19:43Z</time>
      </trkpt>
      <trkpt lat="48.64452" lon="-1.04289">
        <ele>142</ele>
        <time>2022-03-11T19:19:44Z</time>
      </trkpt>
      <trkpt lat="48.6444" lon="-1.04304">
        <ele>141</ele>
        <time>2022-03-11T19:19:46Z</time>
      </trkpt>
      <trkpt lat="48.64419" lon="-1.04321">
        <ele>139</ele>
        <time>2022-03-11T19:19:51Z</time>
      </trkpt>
      <trkpt lat="48.6442" lon="-1.04327">
        <ele>139</ele>
        <time>2022-03-11T19:19:51Z</time>
      </trkpt>
      <trkpt lat="48.64418" lon="-1.04354">
        <ele>140</ele>
        <time>2022-03-11T19:19:55Z</time>
      </trkpt>
      <trkpt lat="48.64398" lon="-1.04429">
        <ele>140</ele>
        <time>2022-03-11T19:20:04Z</time>
      </trkpt>
      <trkpt lat="48.64337" lon="-1.04605">
        <ele>142</ele>
        <time>2022-03-11T19:20:27Z</time>
      </trkpt>
      <trkpt lat="48.64327" lon="-1.0477">
        <ele>145</ele>
        <time>2022-03-11T19:20:47Z</time>
      </trkpt>
      <trkpt lat="48.64339" lon="-1.04884">
        <ele>144</ele>
        <time>2022-03-11T19:21:01Z</time>
      </trkpt>
      <trkpt lat="48.64359" lon="-1.05141">
        <ele>143</ele>
        <time>2022-03-11T19:21:31Z</time>
      </trkpt>
      <trkpt lat="48.64362" lon="-1.05394">
        <ele>139</ele>
        <time>2022-03-11T19:22:01Z</time>
      </trkpt>
      <trkpt lat="48.64359" lon="-1.05506">
        <ele>137</ele>
        <time>2022-03-11T19:22:14Z</time>
      </trkpt>
      <trkpt lat="48.64332" lon="-1.05579">
        <ele>135</ele>
        <time>2022-03-11T19:22:24Z</time>
      </trkpt>
      <trkpt lat="48.64314" lon="-1.05682">
        <ele>130</ele>
        <time>2022-03-11T19:22:36Z</time>
      </trkpt>
      <trkpt lat="48.64306" lon="-1.05718">
        <ele>126</ele>
        <time>2022-03-11T19:22:41Z</time>
      </trkpt>
      <trkpt lat="48.64286" lon="-1.05755">
        <ele>121</ele>
        <time>2022-03-11T19:22:46Z</time>
      </trkpt>
      <trkpt lat="48.64256" lon="-1.05791">
        <ele>117</ele>
        <time>2022-03-11T19:22:53Z</time>
      </trkpt>
      <trkpt lat="48.6424" lon="-1.05815">
        <ele>116</ele>
        <time>2022-03-11T19:22:57Z</time>
      </trkpt>
      <trkpt lat="48.64221" lon="-1.05875">
        <ele>117</ele>
        <time>2022-03-11T19:23:05Z</time>
      </trkpt>
      <trkpt lat="48.64218" lon="-1.05928">
        <ele>119</ele>
        <time>2022-03-11T19:23:11Z</time>
      </trkpt>
      <trkpt lat="48.6422" lon="-1.06035">
        <ele>122</ele>
        <time>2022-03-11T19:23:24Z</time>
      </trkpt>
      <trkpt lat="48.64205" lon="-1.06222">
        <ele>128</ele>
        <time>2022-03-11T19:23:46Z</time>
      </trkpt>
      <trkpt lat="48.64205" lon="-1.06247">
        <ele>129</ele>
        <time>2022-03-11T19:23:49Z</time>
      </trkpt>
      <trkpt lat="48.64198" lon="-1.06445">
        <ele>126</ele>
        <time>2022-03-11T19:24:12Z</time>
      </trkpt>
      <trkpt lat="48.64218" lon="-1.0663">
        <ele>121</ele>
        <time>2022-03-11T19:24:34Z</time>
      </trkpt>
      <trkpt lat="48.64209" lon="-1.06912">
        <ele>116</ele>
        <time>2022-03-11T19:25:07Z</time>
      </trkpt>
      <trkpt lat="48.64202" lon="-1.0692">
        <ele>116</ele>
        <time>2022-03-11T19:25:09Z</time>
      </trkpt>
      <trkpt lat="48.64181" lon="-1.06928">
        <ele>115</ele>
        <time>2022-03-11T19:25:13Z</time>
      </trkpt>
      <trkpt lat="48.63981" lon="-1.07136">
        <ele>106</ele>
        <time>2022-03-11T19:25:56Z</time>
      </trkpt>
      <trkpt lat="48.6397" lon="-1.07158">
        <ele>105</ele>
        <time>2022-03-11T19:25:59Z</time>
      </trkpt>
      <trkpt lat="48.63903" lon="-1.07555">
        <ele>105</ele>
        <time>2022-03-11T19:26:47Z</time>
      </trkpt>
      <trkpt lat="48.63941" lon="-1.0781">
        <ele>112</ele>
        <time>2022-03-11T19:27:18Z</time>
      </trkpt>
      <trkpt lat="48.63937" lon="-1.0787">
        <ele>113</ele>
        <time>2022-03-11T19:27:25Z</time>
      </trkpt>
      <trkpt lat="48.63931" lon="-1.0792">
        <ele>115</ele>
        <time>2022-03-11T19:27:31Z</time>
      </trkpt>
      <trkpt lat="48.63981" lon="-1.07913">
        <ele>113</ele>
        <time>2022-03-11T19:27:40Z</time>
      </trkpt>
      <trkpt lat="48.64167" lon="-1.07864">
        <ele>112</ele>
        <time>2022-03-11T19:28:14Z</time>
      </trkpt>
      <trkpt lat="48.64184" lon="-1.07868">
        <ele>112</ele>
        <time>2022-03-11T19:28:17Z</time>
      </trkpt>
      <trkpt lat="48.64255" lon="-1.07956">
        <ele>112</ele>
        <time>2022-03-11T19:28:33Z</time>
      </trkpt>
      <trkpt lat="48.64259" lon="-1.07986">
        <ele>113</ele>
        <time>2022-03-11T19:28:37Z</time>
      </trkpt>
      <trkpt lat="48.64257" lon="-1.08029">
        <ele>115</ele>
        <time>2022-03-11T19:28:42Z</time>
      </trkpt>
      <trkpt lat="48.64242" lon="-1.08235">
        <ele>119</ele>
        <time>2022-03-11T19:29:06Z</time>
      </trkpt>
      <trkpt lat="48.64243" lon="-1.08482">
        <ele>122</ele>
        <time>2022-03-11T19:29:35Z</time>
      </trkpt>
      <trkpt lat="48.64251" lon="-1.08559">
        <ele>124</ele>
        <time>2022-03-11T19:29:44Z</time>
      </trkpt>
      <trkpt lat="48.64211" lon="-1.08845">
        <ele>130</ele>
        <time>2022-03-11T19:30:19Z</time>
      </trkpt>
      <trkpt lat="48.64206" lon="-1.08924">
        <ele>129</ele>
        <time>2022-03-11T19:30:28Z</time>
      </trkpt>
      <trkpt lat="48.6421" lon="-1.08969">
        <ele>130</ele>
        <time>2022-03-11T19:30:33Z</time>
      </trkpt>
      <trkpt lat="48.64255" lon="-1.09145">
        <ele>129</ele>
        <time>2022-03-11T19:30:56Z</time>
      </trkpt>
      <trkpt lat="48.64274" lon="-1.09261">
        <ele>127</ele>
        <time>2022-03-11T19:31:10Z</time>
      </trkpt>
      <trkpt lat="48.64303" lon="-1.09372">
        <ele>130</ele>
        <time>2022-03-11T19:31:24Z</time>
      </trkpt>
      <trkpt lat="48.64313" lon="-1.09615">
        <ele>131</ele>
        <time>2022-03-11T19:31:52Z</time>
      </trkpt>
      <trkpt lat="48.64317" lon="-1.09653">
        <ele>132</ele>
        <time>2022-03-11T19:31:57Z</time>
      </trkpt>
      <trkpt lat="48.64325" lon="-1.09806">
        <ele>131</ele>
        <time>2022-03-11T19:32:15Z</time>
      </trkpt>
      <trkpt lat="48.64345" lon="-1.10053">
        <ele>127</ele>
        <time>2022-03-11T19:32:44Z</time>
      </trkpt>
      <trkpt lat="48.6425" lon="-1.10304">
        <ele>127</ele>
        <time>2022-03-11T19:33:18Z</time>
      </trkpt>
      <trkpt lat="48.64217" lon="-1.1051">
        <ele>137</ele>
        <time>2022-03-11T19:33:43Z</time>
      </trkpt>
      <trkpt lat="48.64223" lon="-1.10613">
        <ele>139</ele>
        <time>2022-03-11T19:33:55Z</time>
      </trkpt>
      <trkpt lat="48.64227" lon="-1.10832">
        <ele>141</ele>
        <time>2022-03-11T19:34:21Z</time>
      </trkpt>
      <trkpt lat="48.64254" lon="-1.10945">
        <ele>139</ele>
        <time>2022-03-11T19:34:35Z</time>
      </trkpt>
      <trkpt lat="48.64255" lon="-1.10986">
        <ele>138</ele>
        <time>2022-03-11T19:34:40Z</time>
      </trkpt>
      <trkpt lat="48.64233" lon="-1.11158">
        <ele>135</ele>
        <time>2022-03-11T19:35:01Z</time>
      </trkpt>
      <trkpt lat="48.64214" lon="-1.1137">
        <ele>132</ele>
        <time>2022-03-11T19:35:26Z</time>
      </trkpt>
      <trkpt lat="48.6422" lon="-1.1157">
        <ele>130</ele>
        <time>2022-03-11T19:35:49Z</time>
      </trkpt>
      <trkpt lat="48.64206" lon="-1.11718">
        <ele>123</ele>
        <time>2022-03-11T19:36:07Z</time>
      </trkpt>
      <trkpt lat="48.64247" lon="-1.12206">
        <ele>105</ele>
        <time>2022-03-11T19:37:05Z</time>
      </trkpt>
      <trkpt lat="48.64272" lon="-1.12255">
        <ele>103</ele>
        <time>2022-03-11T19:37:12Z</time>
      </trkpt>
      <trkpt lat="48.6432" lon="-1.12368">
        <ele>98</ele>
        <time>2022-03-11T19:37:28Z</time>
      </trkpt>
      <trkpt lat="48.6436" lon="-1.12428">
        <ele>96</ele>
        <time>2022-03-11T19:37:38Z</time>
      </trkpt>
      <trkpt lat="48.64531" lon="-1.12623">
        <ele>97</ele>
        <time>2022-03-11T19:38:16Z</time>
      </trkpt>
      <trkpt lat="48.64547" lon="-1.12536">
        <ele>100</ele>
        <time>2022-03-11T19:38:26Z</time>
      </trkpt>
      <trkpt lat="48.64553" lon="-1.12524">
        <ele>101</ele>
        <time>2022-03-11T19:38:28Z</time>
      </trkpt>
      <trkpt lat="48.64592" lon="-1.12497">
        <ele>104</ele>
        <time>2022-03-11T19:38:36Z</time>
      </trkpt>
      <trkpt lat="48.64597" lon="-1.12486">
        <ele>104</ele>
        <time>2022-03-11T19:38:37Z</time>
      </trkpt>
      <trkpt lat="48.64604" lon="-1.12444">
        <ele>105</ele>
        <time>2022-03-11T19:38:42Z</time>
      </trkpt>
      <trkpt lat="48.64609" lon="-1.12434">
        <ele>106</ele>
        <time>2022-03-11T19:38:44Z</time>
      </trkpt>
      <trkpt lat="48.6466" lon="-1.12445">
        <ele>111</ele>
        <time>2022-03-11T19:38:53Z</time>
      </trkpt>
      <trkpt lat="48.64768" lon="-1.12484">
        <ele>122</ele>
        <time>2022-03-11T19:39:13Z</time>
      </trkpt>
      <trkpt lat="48.64799" lon="-1.12491">
        <ele>127</ele>
        <time>2022-03-11T19:39:18Z</time>
      </trkpt>
      <trkpt lat="48.64812" lon="-1.12488">
        <ele>129</ele>
        <time>2022-03-11T19:39:21Z</time>
      </trkpt>
      <trkpt lat="48.64827" lon="-1.1247">
        <ele>131</ele>
        <time>2022-03-11T19:39:24Z</time>
      </trkpt>
      <trkpt lat="48.64832" lon="-1.12457">
        <ele>132</ele>
        <time>2022-03-11T19:39:26Z</time>
      </trkpt>
      <trkpt lat="48.64838" lon="-1.12411">
        <ele>132</ele>
        <time>2022-03-11T19:39:31Z</time>
      </trkpt>
      <trkpt lat="48.6484" lon="-1.12376">
        <ele>132</ele>
        <time>2022-03-11T19:39:36Z</time>
      </trkpt>
      <trkpt lat="48.6485" lon="-1.1234">
        <ele>132</ele>
        <time>2022-03-11T19:39:40Z</time>
      </trkpt>
      <trkpt lat="48.6488" lon="-1.12326">
        <ele>137</ele>
        <time>2022-03-11T19:39:46Z</time>
      </trkpt>
      <trkpt lat="48.64904" lon="-1.12331">
        <ele>141</ele>
        <time>2022-03-11T19:39:50Z</time>
      </trkpt>
      <trkpt lat="48.64924" lon="-1.12318">
        <ele>144</ele>
        <time>2022-03-11T19:39:54Z</time>
      </trkpt>
      <trkpt lat="48.64932" lon="-1.12306">
        <ele>145</ele>
        <time>2022-03-11T19:39:56Z</time>
      </trkpt>
      <trkpt lat="48.64949" lon="-1.12241">
        <ele>147</ele>
        <time>2022-03-11T19:40:04Z</time>
      </trkpt>
      <trkpt lat="48.64984" lon="-1.12175">
        <ele>152</ele>
        <time>2022-03-11T19:40:14Z</time>
      </trkpt>
      <trkpt lat="48.64995" lon="-1.12166">
        <ele>154</ele>
        <time>2022-03-11T19:40:16Z</time>
      </trkpt>
      <trkpt lat="48.65014" lon="-1.12166">
        <ele>157</ele>
        <time>2022-03-11T19:40:20Z</time>
      </trkpt>
      <trkpt lat="48.65023" lon="-1.12171">
        <ele>159</ele>
        <time>2022-03-11T19:40:21Z</time>
      </trkpt>
      <trkpt lat="48.65106" lon="-1.12411">
        <ele>177</ele>
        <time>2022-03-11T19:40:53Z</time>
      </trkpt>
      <trkpt lat="48.65119" lon="-1.12457">
        <ele>179</ele>
        <time>2022-03-11T19:40:59Z</time>
      </trkpt>
      <trkpt lat="48.6514" lon="-1.12479">
        <ele>182</ele>
        <time>2022-03-11T19:41:04Z</time>
      </trkpt>
      <trkpt lat="48.65154" lon="-1.12482">
        <ele>184</ele>
        <time>2022-03-11T19:41:06Z</time>
      </trkpt>
      <trkpt lat="48.65242" lon="-1.12455">
        <ele>191</ele>
        <time>2022-03-11T19:41:22Z</time>
      </trkpt>
      <trkpt lat="48.65356" lon="-1.12413">
        <ele>193</ele>
        <time>2022-03-11T19:41:43Z</time>
      </trkpt>
      <trkpt lat="48.65438" lon="-1.1238">
        <ele>198</ele>
        <time>2022-03-11T19:41:58Z</time>
      </trkpt>
      <trkpt lat="48.6549" lon="-1.12357">
        <ele>201</ele>
        <time>2022-03-11T19:42:08Z</time>
      </trkpt>
      <trkpt lat="48.65549" lon="-1.12313">
        <ele>204</ele>
        <time>2022-03-11T19:42:20Z</time>
      </trkpt>
      <trkpt lat="48.65621" lon="-1.12287">
        <ele>205</ele>
        <time>2022-03-11T19:42:33Z</time>
      </trkpt>
      <trkpt lat="48.65653" lon="-1.12279">
        <ele>205</ele>
        <time>2022-03-11T19:42:38Z</time>
      </trkpt>
      <trkpt lat="48.65711" lon="-1.12238">
        <ele>206</ele>
        <time>2022-03-11T19:42:50Z</time>
      </trkpt>
      <trkpt lat="48.6579" lon="-1.12168">
        <ele>208</ele>
        <time>2022-03-11T19:43:06Z</time>
      </trkpt>
      <trkpt lat="48.65993" lon="-1.12002">
        <ele>219</ele>
        <time>2022-03-11T19:43:47Z</time>
      </trkpt>
      <trkpt lat="48.66241" lon="-1.11887">
        <ele>225</ele>
        <time>2022-03-11T19:44:33Z</time>
      </trkpt>
      <trkpt lat="48.66276" lon="-1.11878">
        <ele>225</ele>
        <time>2022-03-11T19:44:40Z</time>
      </trkpt>
      <trkpt lat="48.66418" lon="-1.11899">
        <ele>222</ele>
        <time>2022-03-11T19:45:05Z</time>
      </trkpt>
      <trkpt lat="48.66441" lon="-1.11895">
        <ele>222</ele>
        <time>2022-03-11T19:45:09Z</time>
      </trkpt>
      <trkpt lat="48.66593" lon="-1.1184">
        <ele>223</ele>
        <time>2022-03-11T19:45:37Z</time>
      </trkpt>
      <trkpt lat="48.66665" lon="-1.11786">
        <ele>223</ele>
        <time>2022-03-11T19:45:51Z</time>
      </trkpt>
      <trkpt lat="48.66729" lon="-1.11757">
        <ele>224</ele>
        <time>2022-03-11T19:46:03Z</time>
      </trkpt>
      <trkpt lat="48.66696" lon="-1.11843">
        <ele>223</ele>
        <time>2022-03-11T19:46:15Z</time>
      </trkpt>
      <trkpt lat="48.66683" lon="-1.11893">
        <ele>224</ele>
        <time>2022-03-11T19:46:21Z</time>
      </trkpt>
      <trkpt lat="48.66678" lon="-1.11933">
        <ele>225</ele>
        <time>2022-03-11T19:46:26Z</time>
      </trkpt>
      <trkpt lat="48.66679" lon="-1.11997">
        <ele>224</ele>
        <time>2022-03-11T19:46:33Z</time>
      </trkpt>
      <trkpt lat="48.66683" lon="-1.12037">
        <ele>223</ele>
        <time>2022-03-11T19:46:38Z</time>
      </trkpt>
      <trkpt lat="48.6669" lon="-1.12085">
        <ele>222</ele>
        <time>2022-03-11T19:46:44Z</time>
      </trkpt>
      <trkpt lat="48.66815" lon="-1.1274">
        <ele>233</ele>
        <time>2022-03-11T19:48:04Z</time>
      </trkpt>
      <trkpt lat="48.66961" lon="-1.13529">
        <ele>227</ele>
        <time>2022-03-11T19:49:40Z</time>
      </trkpt>
      <trkpt lat="48.66971" lon="-1.13613">
        <ele>226</ele>
        <time>2022-03-11T19:49:50Z</time>
      </trkpt>
      <trkpt lat="48.66993" lon="-1.13946">
        <ele>219</ele>
        <time>2022-03-11T19:50:30Z</time>
      </trkpt>
      <trkpt lat="48.67007" lon="-1.14197">
        <ele>212</ele>
        <time>2022-03-11T19:50:59Z</time>
      </trkpt>
      <trkpt lat="48.67007" lon="-1.14215">
        <ele>212</ele>
        <time>2022-03-11T19:51:01Z</time>
      </trkpt>
      <trkpt lat="48.67013" lon="-1.14267">
        <ele>212</ele>
        <time>2022-03-11T19:51:08Z</time>
      </trkpt>
      <trkpt lat="48.67013" lon="-1.14285">
        <ele>212</ele>
        <time>2022-03-11T19:51:10Z</time>
      </trkpt>
      <trkpt lat="48.67249" lon="-1.14371">
        <ele>214</ele>
        <time>2022-03-11T19:51:53Z</time>
      </trkpt>
      <trkpt lat="48.67292" lon="-1.14381">
        <ele>214</ele>
        <time>2022-03-11T19:52:01Z</time>
      </trkpt>
      <trkpt lat="48.67348" lon="-1.14388">
        <ele>213</ele>
        <time>2022-03-11T19:52:11Z</time>
      </trkpt>
      <trkpt lat="48.67471" lon="-1.1439">
        <ele>209</ele>
        <time>2022-03-11T19:52:33Z</time>
      </trkpt>
      <trkpt lat="48.67502" lon="-1.14394">
        <ele>208</ele>
        <time>2022-03-11T19:52:38Z</time>
      </trkpt>
      <trkpt lat="48.67553" lon="-1.14409">
        <ele>206</ele>
        <time>2022-03-11T19:52:47Z</time>
      </trkpt>
      <trkpt lat="48.67595" lon="-1.14434">
        <ele>203</ele>
        <time>2022-03-11T19:52:55Z</time>
      </trkpt>
      <trkpt lat="48.67627" lon="-1.14466">
        <ele>202</ele>
        <time>2022-03-11T19:53:02Z</time>
      </trkpt>
      <trkpt lat="48.67649" lon="-1.14504">
        <ele>201</ele>
        <time>2022-03-11T19:53:08Z</time>
      </trkpt>
      <trkpt lat="48.67668" lon="-1.14551">
        <ele>200</ele>
        <time>2022-03-11T19:53:15Z</time>
      </trkpt>
      <trkpt lat="48.67697" lon="-1.14647">
        <ele>198</ele>
        <time>2022-03-11T19:53:27Z</time>
      </trkpt>
      <trkpt lat="48.67715" lon="-1.14696">
        <ele>196</ele>
        <time>2022-03-11T19:53:34Z</time>
      </trkpt>
      <trkpt lat="48.67733" lon="-1.14741">
        <ele>195</ele>
        <time>2022-03-11T19:53:40Z</time>
      </trkpt>
      <trkpt lat="48.67791" lon="-1.14853">
        <ele>193</ele>
        <time>2022-03-11T19:53:57Z</time>
      </trkpt>
      <trkpt lat="48.67829" lon="-1.14917">
        <ele>194</ele>
        <time>2022-03-11T19:54:07Z</time>
      </trkpt>
      <trkpt lat="48.67891" lon="-1.1501">
        <ele>190</ele>
        <time>2022-03-11T19:54:22Z</time>
      </trkpt>
      <trkpt lat="48.67946" lon="-1.1508">
        <ele>187</ele>
        <time>2022-03-11T19:54:35Z</time>
      </trkpt>
      <trkpt lat="48.68003" lon="-1.15144">
        <ele>185</ele>
        <time>2022-03-11T19:54:48Z</time>
      </trkpt>
      <trkpt lat="48.68039" lon="-1.15179">
        <ele>183</ele>
        <time>2022-03-11T19:54:55Z</time>
      </trkpt>
      <trkpt lat="48.68081" lon="-1.15213">
        <ele>182</ele>
        <time>2022-03-11T19:55:04Z</time>
      </trkpt>
      <trkpt lat="48.68131" lon="-1.15239">
        <ele>180</ele>
        <time>2022-03-11T19:55:13Z</time>
      </trkpt>
      <trkpt lat="48.68189" lon="-1.15258">
        <ele>178</ele>
        <time>2022-03-11T19:55:24Z</time>
      </trkpt>
      <trkpt lat="48.68274" lon="-1.15278">
        <ele>176</ele>
        <time>2022-03-11T19:55:39Z</time>
      </trkpt>
      <trkpt lat="48.68318" lon="-1.15283">
        <ele>176</ele>
        <time>2022-03-11T19:55:47Z</time>
      </trkpt>
      <trkpt lat="48.68405" lon="-1.15271">
        <ele>175</ele>
        <time>2022-03-11T19:56:02Z</time>
      </trkpt>
      <trkpt lat="48.68607" lon="-1.15235">
        <ele>172</ele>
        <time>2022-03-11T19:56:39Z</time>
      </trkpt>
      <trkpt lat="48.68655" lon="-1.15224">
        <ele>171</ele>
        <time>2022-03-11T19:56:47Z</time>
      </trkpt>
      <trkpt lat="48.68738" lon="-1.15197">
        <ele>167</ele>
        <time>2022-03-11T19:57:02Z</time>
      </trkpt>
      <trkpt lat="48.68777" lon="-1.1518">
        <ele>167</ele>
        <time>2022-03-11T19:57:09Z</time>
      </trkpt>
      <trkpt lat="48.68813" lon="-1.15156">
        <ele>166</ele>
        <time>2022-03-11T19:57:16Z</time>
      </trkpt>
      <trkpt lat="48.6885" lon="-1.15121">
        <ele>165</ele>
        <time>2022-03-11T19:57:24Z</time>
      </trkpt>
      <trkpt lat="48.68865" lon="-1.15102">
        <ele>165</ele>
        <time>2022-03-11T19:57:28Z</time>
      </trkpt>
      <trkpt lat="48.68878" lon="-1.15082">
        <ele>165</ele>
        <time>2022-03-11T19:57:31Z</time>
      </trkpt>
      <trkpt lat="48.68903" lon="-1.15035">
        <ele>165</ele>
        <time>2022-03-11T19:57:38Z</time>
      </trkpt>
      <trkpt lat="48.68926" lon="-1.14997">
        <ele>165</ele>
        <time>2022-03-11T19:57:44Z</time>
      </trkpt>
      <trkpt lat="48.68953" lon="-1.14959">
        <ele>165</ele>
        <time>2022-03-11T19:57:51Z</time>
      </trkpt>
      <trkpt lat="48.68992" lon="-1.14913">
        <ele>164</ele>
        <time>2022-03-11T19:58:00Z</time>
      </trkpt>
      <trkpt lat="48.69067" lon="-1.14841">
        <ele>164</ele>
        <time>2022-03-11T19:58:15Z</time>
      </trkpt>
      <trkpt lat="48.69093" lon="-1.14827">
        <ele>163</ele>
        <time>2022-03-11T19:58:20Z</time>
      </trkpt>
      <trkpt lat="48.69202" lon="-1.14795">
        <ele>156</ele>
        <time>2022-03-11T19:58:40Z</time>
      </trkpt>
      <trkpt lat="48.69233" lon="-1.14795">
        <ele>155</ele>
        <time>2022-03-11T19:58:46Z</time>
      </trkpt>
      <trkpt lat="48.69251" lon="-1.14803">
        <ele>154</ele>
        <time>2022-03-11T19:58:49Z</time>
      </trkpt>
      <trkpt lat="48.69268" lon="-1.14818">
        <ele>153</ele>
        <time>2022-03-11T19:58:52Z</time>
      </trkpt>
      <trkpt lat="48.6928" lon="-1.14835">
        <ele>151</ele>
        <time>2022-03-11T19:58:55Z</time>
      </trkpt>
      <trkpt lat="48.69297" lon="-1.14865">
        <ele>151</ele>
        <time>2022-03-11T19:59:00Z</time>
      </trkpt>
      <trkpt lat="48.69313" lon="-1.14903">
        <ele>150</ele>
        <time>2022-03-11T19:59:05Z</time>
      </trkpt>
      <trkpt lat="48.69332" lon="-1.14963">
        <ele>149</ele>
        <time>2022-03-11T19:59:13Z</time>
      </trkpt>
      <trkpt lat="48.69347" lon="-1.14992">
        <ele>147</ele>
        <time>2022-03-11T19:59:17Z</time>
      </trkpt>
      <trkpt lat="48.69359" lon="-1.15005">
        <ele>147</ele>
        <time>2022-03-11T19:59:20Z</time>
      </trkpt>
      <trkpt lat="48.69377" lon="-1.15014">
        <ele>146</ele>
        <time>2022-03-11T19:59:23Z</time>
      </trkpt>
      <trkpt lat="48.69422" lon="-1.15029">
        <ele>143</ele>
        <time>2022-03-11T19:59:32Z</time>
      </trkpt>
      <trkpt lat="48.69444" lon="-1.15039">
        <ele>142</ele>
        <time>2022-03-11T19:59:36Z</time>
      </trkpt>
      <trkpt lat="48.69471" lon="-1.15056">
        <ele>140</ele>
        <time>2022-03-11T19:59:41Z</time>
      </trkpt>
      <trkpt lat="48.69531" lon="-1.15112">
        <ele>139</ele>
        <time>2022-03-11T19:59:53Z</time>
      </trkpt>
      <trkpt lat="48.6959" lon="-1.15171">
        <ele>137</ele>
        <time>2022-03-11T20:00:06Z</time>
      </trkpt>
      <trkpt lat="48.69601" lon="-1.15186">
        <ele>135</ele>
        <time>2022-03-11T20:00:09Z</time>
      </trkpt>
      <trkpt lat="48.69609" lon="-1.15203">
        <ele>134</ele>
        <time>2022-03-11T20:00:11Z</time>
      </trkpt>
      <trkpt lat="48.69615" lon="-1.15218">
        <ele>134</ele>
        <time>2022-03-11T20:00:13Z</time>
      </trkpt>
      <trkpt lat="48.69617" lon="-1.15237">
        <ele>134</ele>
        <time>2022-03-11T20:00:15Z</time>
      </trkpt>
      <trkpt lat="48.69622" lon="-1.15334">
        <ele>132</ele>
        <time>2022-03-11T20:00:27Z</time>
      </trkpt>
      <trkpt lat="48.69632" lon="-1.15377">
        <ele>132</ele>
        <time>2022-03-11T20:00:32Z</time>
      </trkpt>
      <trkpt lat="48.69641" lon="-1.15396">
        <ele>131</ele>
        <time>2022-03-11T20:00:35Z</time>
      </trkpt>
      <trkpt lat="48.69662" lon="-1.15433">
        <ele>130</ele>
        <time>2022-03-11T20:00:41Z</time>
      </trkpt>
      <trkpt lat="48.69695" lon="-1.15485">
        <ele>128</ele>
        <time>2022-03-11T20:00:49Z</time>
      </trkpt>
      <trkpt lat="48.69726" lon="-1.15525">
        <ele>126</ele>
        <time>2022-03-11T20:00:56Z</time>
      </trkpt>
      <trkpt lat="48.6986" lon="-1.15685">
        <ele>118</ele>
        <time>2022-03-11T20:01:27Z</time>
      </trkpt>
      <trkpt lat="48.69887" lon="-1.15719">
        <ele>116</ele>
        <time>2022-03-11T20:01:33Z</time>
      </trkpt>
      <trkpt lat="48.69901" lon="-1.15746">
        <ele>115</ele>
        <time>2022-03-11T20:01:37Z</time>
      </trkpt>
      <trkpt lat="48.69906" lon="-1.15762">
        <ele>114</ele>
        <time>2022-03-11T20:01:39Z</time>
      </trkpt>
      <trkpt lat="48.69907" lon="-1.1578">
        <ele>114</ele>
        <time>2022-03-11T20:01:41Z</time>
      </trkpt>
      <trkpt lat="48.69907" lon="-1.15799">
        <ele>114</ele>
        <time>2022-03-11T20:01:43Z</time>
      </trkpt>
      <trkpt lat="48.69903" lon="-1.15819">
        <ele>114</ele>
        <time>2022-03-11T20:01:46Z</time>
      </trkpt>
      <trkpt lat="48.69892" lon="-1.15846">
        <ele>115</ele>
        <time>2022-03-11T20:01:50Z</time>
      </trkpt>
      <trkpt lat="48.69879" lon="-1.15859">
        <ele>115</ele>
        <time>2022-03-11T20:01:52Z</time>
      </trkpt>
      <trkpt lat="48.69854" lon="-1.15867">
        <ele>116</ele>
        <time>2022-03-11T20:01:57Z</time>
      </trkpt>
      <trkpt lat="48.69834" lon="-1.15869">
        <ele>118</ele>
        <time>2022-03-11T20:02:00Z</time>
      </trkpt>
      <trkpt lat="48.69823" lon="-1.15874">
        <ele>119</ele>
        <time>2022-03-11T20:02:03Z</time>
      </trkpt>
      <trkpt lat="48.69815" lon="-1.15881">
        <ele>119</ele>
        <time>2022-03-11T20:02:04Z</time>
      </trkpt>
      <trkpt lat="48.69811" lon="-1.15889">
        <ele>119</ele>
        <time>2022-03-11T20:02:05Z</time>
      </trkpt>
      <trkpt lat="48.69808" lon="-1.15905">
        <ele>118</ele>
        <time>2022-03-11T20:02:07Z</time>
      </trkpt>
      <trkpt lat="48.69808" lon="-1.15918">
        <ele>117</ele>
        <time>2022-03-11T20:02:09Z</time>
      </trkpt>
      <trkpt lat="48.69818" lon="-1.15946">
        <ele>117</ele>
        <time>2022-03-11T20:02:13Z</time>
      </trkpt>
      <trkpt lat="48.69892" lon="-1.16058">
        <ele>108</ele>
        <time>2022-03-11T20:02:31Z</time>
      </trkpt>
      <trkpt lat="48.69929" lon="-1.16107">
        <ele>104</ele>
        <time>2022-03-11T20:02:40Z</time>
      </trkpt>
      <trkpt lat="48.70039" lon="-1.16208">
        <ele>98</ele>
        <time>2022-03-11T20:03:03Z</time>
      </trkpt>
      <trkpt lat="48.70086" lon="-1.16265">
        <ele>93</ele>
        <time>2022-03-11T20:03:14Z</time>
      </trkpt>
      <trkpt lat="48.7011" lon="-1.16299">
        <ele>91</ele>
        <time>2022-03-11T20:03:19Z</time>
      </trkpt>
      <trkpt lat="48.70129" lon="-1.16332">
        <ele>91</ele>
        <time>2022-03-11T20:03:24Z</time>
      </trkpt>
      <trkpt lat="48.70154" lon="-1.16393">
        <ele>89</ele>
        <time>2022-03-11T20:03:33Z</time>
      </trkpt>
      <trkpt lat="48.70162" lon="-1.1641">
        <ele>88</ele>
        <time>2022-03-11T20:03:35Z</time>
      </trkpt>
      <trkpt lat="48.70172" lon="-1.16425">
        <ele>88</ele>
        <time>2022-03-11T20:03:38Z</time>
      </trkpt>
      <trkpt lat="48.70192" lon="-1.16439">
        <ele>88</ele>
        <time>2022-03-11T20:03:42Z</time>
      </trkpt>
      <trkpt lat="48.70218" lon="-1.16446">
        <ele>87</ele>
        <time>2022-03-11T20:03:46Z</time>
      </trkpt>
      <trkpt lat="48.70307" lon="-1.16442">
        <ele>81</ele>
        <time>2022-03-11T20:04:02Z</time>
      </trkpt>
      <trkpt lat="48.70338" lon="-1.16449">
        <ele>80</ele>
        <time>2022-03-11T20:04:08Z</time>
      </trkpt>
      <trkpt lat="48.70437" lon="-1.16484">
        <ele>77</ele>
        <time>2022-03-11T20:04:26Z</time>
      </trkpt>
      <trkpt lat="48.70468" lon="-1.16492">
        <ele>76</ele>
        <time>2022-03-11T20:04:32Z</time>
      </trkpt>
      <trkpt lat="48.71427" lon="-1.16525">
        <ele>33</ele>
        <time>2022-03-11T20:07:22Z</time>
      </trkpt>
      <trkpt lat="48.71565" lon="-1.16533">
        <ele>31</ele>
        <time>2022-03-11T20:07:47Z</time>
      </trkpt>
      <trkpt lat="48.71595" lon="-1.16537">
        <ele>31</ele>
        <time>2022-03-11T20:07:52Z</time>
      </trkpt>
      <trkpt lat="48.71622" lon="-1.16545">
        <ele>32</ele>
        <time>2022-03-11T20:07:57Z</time>
      </trkpt>
      <trkpt lat="48.71645" lon="-1.16556">
        <ele>32</ele>
        <time>2022-03-11T20:08:01Z</time>
      </trkpt>
      <trkpt lat="48.71663" lon="-1.16567">
        <ele>32</ele>
        <time>2022-03-11T20:08:05Z</time>
      </trkpt>
      <trkpt lat="48.71682" lon="-1.16581">
        <ele>33</ele>
        <time>2022-03-11T20:08:09Z</time>
      </trkpt>
      <trkpt lat="48.71712" lon="-1.16609">
        <ele>35</ele>
        <time>2022-03-11T20:08:15Z</time>
      </trkpt>
      <trkpt lat="48.7172" lon="-1.16623">
        <ele>36</ele>
        <time>2022-03-11T20:08:17Z</time>
      </trkpt>
      <trkpt lat="48.71725" lon="-1.16636">
        <ele>37</ele>
        <time>2022-03-11T20:08:19Z</time>
      </trkpt>
      <trkpt lat="48.71728" lon="-1.1665">
        <ele>38</ele>
        <time>2022-03-11T20:08:21Z</time>
      </trkpt>
      <trkpt lat="48.71728" lon="-1.16664">
        <ele>39</ele>
        <time>2022-03-11T20:08:22Z</time>
      </trkpt>
      <trkpt lat="48.71716" lon="-1.1674">
        <ele>42</ele>
        <time>2022-03-11T20:08:31Z</time>
      </trkpt>
      <trkpt lat="48.71715" lon="-1.16784">
        <ele>43</ele>
        <time>2022-03-11T20:08:37Z</time>
      </trkpt>
      <trkpt lat="48.71716" lon="-1.16809">
        <ele>44</ele>
        <time>2022-03-11T20:08:39Z</time>
      </trkpt>
      <trkpt lat="48.71724" lon="-1.16861">
        <ele>45</ele>
        <time>2022-03-11T20:08:46Z</time>
      </trkpt>
      <trkpt lat="48.71732" lon="-1.16891">
        <ele>45</ele>
        <time>2022-03-11T20:08:50Z</time>
      </trkpt>
      <trkpt lat="48.71743" lon="-1.16921">
        <ele>46</ele>
        <time>2022-03-11T20:08:54Z</time>
      </trkpt>
      <trkpt lat="48.71754" lon="-1.16945">
        <ele>46</ele>
        <time>2022-03-11T20:08:57Z</time>
      </trkpt>
      <trkpt lat="48.71773" lon="-1.16978">
        <ele>47</ele>
        <time>2022-03-11T20:09:02Z</time>
      </trkpt>
      <trkpt lat="48.71786" lon="-1.16993">
        <ele>47</ele>
        <time>2022-03-11T20:09:05Z</time>
      </trkpt>
      <trkpt lat="48.7181" lon="-1.17007">
        <ele>48</ele>
        <time>2022-03-11T20:09:10Z</time>
      </trkpt>
      <trkpt lat="48.71822" lon="-1.1701">
        <ele>49</ele>
        <time>2022-03-11T20:09:12Z</time>
      </trkpt>
      <trkpt lat="48.71826" lon="-1.17">
        <ele>50</ele>
        <time>2022-03-11T20:09:13Z</time>
      </trkpt>
      <trkpt lat="48.71832" lon="-1.16995">
        <ele>50</ele>
        <time>2022-03-11T20:09:14Z</time>
      </trkpt>
      <trkpt lat="48.7184" lon="-1.16997">
        <ele>50</ele>
        <time>2022-03-11T20:09:16Z</time>
      </trkpt>
      <trkpt lat="48.71845" lon="-1.17006">
        <ele>50</ele>
        <time>2022-03-11T20:09:17Z</time>
      </trkpt>
      <trkpt lat="48.71845" lon="-1.17013">
        <ele>50</ele>
        <time>2022-03-11T20:09:18Z</time>
      </trkpt>
      <trkpt lat="48.719" lon="-1.17016">
        <ele>50</ele>
        <time>2022-03-11T20:09:28Z</time>
      </trkpt>
      <trkpt lat="48.71962" lon="-1.17007">
        <ele>52</ele>
        <time>2022-03-11T20:09:39Z</time>
      </trkpt>
      <trkpt lat="48.71991" lon="-1.16996">
        <ele>53</ele>
        <time>2022-03-11T20:09:44Z</time>
      </trkpt>
      <trkpt lat="48.72258" lon="-1.16832">
        <ele>63</ele>
        <time>2022-03-11T20:10:35Z</time>
      </trkpt>
      <trkpt lat="48.72423" lon="-1.16735">
        <ele>65</ele>
        <time>2022-03-11T20:11:07Z</time>
      </trkpt>
      <trkpt lat="48.72448" lon="-1.16833">
        <ele>59</ele>
        <time>2022-03-11T20:11:19Z</time>
      </trkpt>
      <trkpt lat="48.7248" lon="-1.16974">
        <ele>56</ele>
        <time>2022-03-11T20:11:37Z</time>
      </trkpt>
      <trkpt lat="48.72502" lon="-1.17061">
        <ele>55</ele>
        <time>2022-03-11T20:11:48Z</time>
      </trkpt>
      <trkpt lat="48.72513" lon="-1.17127">
        <ele>55</ele>
        <time>2022-03-11T20:11:56Z</time>
      </trkpt>
      <trkpt lat="48.72515" lon="-1.17148">
        <ele>55</ele>
        <time>2022-03-11T20:11:58Z</time>
      </trkpt>
      <trkpt lat="48.72516" lon="-1.17157">
        <ele>55</ele>
        <time>2022-03-11T20:11:59Z</time>
      </trkpt>
      <trkpt lat="48.72517" lon="-1.17209">
        <ele>57</ele>
        <time>2022-03-11T20:12:05Z</time>
      </trkpt>
      <trkpt lat="48.72504" lon="-1.17591">
        <ele>74</ele>
        <time>2022-03-11T20:12:50Z</time>
      </trkpt>
      <trkpt lat="48.72504" lon="-1.17658">
        <ele>74</ele>
        <time>2022-03-11T20:12:58Z</time>
      </trkpt>
      <trkpt lat="48.72506" lon="-1.1773">
        <ele>73</ele>
        <time>2022-03-11T20:13:07Z</time>
      </trkpt>
      <trkpt lat="48.72514" lon="-1.17779">
        <ele>71</ele>
        <time>2022-03-11T20:13:13Z</time>
      </trkpt>
      <trkpt lat="48.7254" lon="-1.17893">
        <ele>65</ele>
        <time>2022-03-11T20:13:27Z</time>
      </trkpt>
      <trkpt lat="48.72594" lon="-1.18075">
        <ele>56</ele>
        <time>2022-03-11T20:13:50Z</time>
      </trkpt>
      <trkpt lat="48.72607" lon="-1.18135">
        <ele>59</ele>
        <time>2022-03-11T20:13:58Z</time>
      </trkpt>
      <trkpt lat="48.72675" lon="-1.18527">
        <ele>71</ele>
        <time>2022-03-11T20:14:45Z</time>
      </trkpt>
      <trkpt lat="48.72693" lon="-1.18643">
        <ele>69</ele>
        <time>2022-03-11T20:14:59Z</time>
      </trkpt>
      <trkpt lat="48.72699" lon="-1.18718">
        <ele>69</ele>
        <time>2022-03-11T20:15:08Z</time>
      </trkpt>
      <trkpt lat="48.72697" lon="-1.18797">
        <ele>67</ele>
        <time>2022-03-11T20:15:17Z</time>
      </trkpt>
      <trkpt lat="48.72661" lon="-1.19039">
        <ele>68</ele>
        <time>2022-03-11T20:15:46Z</time>
      </trkpt>
      <trkpt lat="48.72605" lon="-1.19386">
        <ele>76</ele>
        <time>2022-03-11T20:16:28Z</time>
      </trkpt>
      <trkpt lat="48.72596" lon="-1.19494">
        <ele>76</ele>
        <time>2022-03-11T20:16:41Z</time>
      </trkpt>
      <trkpt lat="48.72569" lon="-1.19953">
        <ele>68</ele>
        <time>2022-03-11T20:17:35Z</time>
      </trkpt>
      <trkpt lat="48.72569" lon="-1.19997">
        <ele>67</ele>
        <time>2022-03-11T20:17:40Z</time>
      </trkpt>
      <trkpt lat="48.72574" lon="-1.20064">
        <ele>65</ele>
        <time>2022-03-11T20:17:48Z</time>
      </trkpt>
      <trkpt lat="48.72579" lon="-1.20105">
        <ele>64</ele>
        <time>2022-03-11T20:17:53Z</time>
      </trkpt>
      <trkpt lat="48.72588" lon="-1.20147">
        <ele>65</ele>
        <time>2022-03-11T20:17:58Z</time>
      </trkpt>
      <trkpt lat="48.72598" lon="-1.20187">
        <ele>65</ele>
        <time>2022-03-11T20:18:03Z</time>
      </trkpt>
      <trkpt lat="48.72682" lon="-1.2048">
        <ele>59</ele>
        <time>2022-03-11T20:18:41Z</time>
      </trkpt>
      <trkpt lat="48.72695" lon="-1.20541">
        <ele>57</ele>
        <time>2022-03-11T20:18:48Z</time>
      </trkpt>
      <trkpt lat="48.727" lon="-1.20584">
        <ele>55</ele>
        <time>2022-03-11T20:18:53Z</time>
      </trkpt>
      <trkpt lat="48.72703" lon="-1.20659">
        <ele>54</ele>
        <time>2022-03-11T20:19:02Z</time>
      </trkpt>
      <trkpt lat="48.72702" lon="-1.20695">
        <ele>53</ele>
        <time>2022-03-11T20:19:07Z</time>
      </trkpt>
      <trkpt lat="48.72695" lon="-1.20759">
        <ele>50</ele>
        <time>2022-03-11T20:19:14Z</time>
      </trkpt>
      <trkpt lat="48.7269" lon="-1.20785">
        <ele>48</ele>
        <time>2022-03-11T20:19:17Z</time>
      </trkpt>
      <trkpt lat="48.72676" lon="-1.2084">
        <ele>45</ele>
        <time>2022-03-11T20:19:24Z</time>
      </trkpt>
      <trkpt lat="48.72652" lon="-1.20909">
        <ele>42</ele>
        <time>2022-03-11T20:19:33Z</time>
      </trkpt>
      <trkpt lat="48.7263" lon="-1.20956">
        <ele>40</ele>
        <time>2022-03-11T20:19:40Z</time>
      </trkpt>
      <trkpt lat="48.72545" lon="-1.21104">
        <ele>36</ele>
        <time>2022-03-11T20:20:03Z</time>
      </trkpt>
      <trkpt lat="48.7253" lon="-1.21141">
        <ele>33</ele>
        <time>2022-03-11T20:20:08Z</time>
      </trkpt>
      <trkpt lat="48.72514" lon="-1.21198">
        <ele>30</ele>
        <time>2022-03-11T20:20:16Z</time>
      </trkpt>
      <trkpt lat="48.72507" lon="-1.21238">
        <ele>28</ele>
        <time>2022-03-11T20:20:20Z</time>
      </trkpt>
      <trkpt lat="48.72498" lon="-1.21315">
        <ele>26</ele>
        <time>2022-03-11T20:20:30Z</time>
      </trkpt>
      <trkpt lat="48.72491" lon="-1.21355">
        <ele>26</ele>
        <time>2022-03-11T20:20:34Z</time>
      </trkpt>
      <trkpt lat="48.72484" lon="-1.21388">
        <ele>27</ele>
        <time>2022-03-11T20:20:39Z</time>
      </trkpt>
      <trkpt lat="48.72464" lon="-1.21446">
        <ele>27</ele>
        <time>2022-03-11T20:20:46Z</time>
      </trkpt>
      <trkpt lat="48.72443" lon="-1.21488">
        <ele>28</ele>
        <time>2022-03-11T20:20:52Z</time>
      </trkpt>
      <trkpt lat="48.72273" lon="-1.21759">
        <ele>39</ele>
        <time>2022-03-11T20:21:36Z</time>
      </trkpt>
      <trkpt lat="48.72234" lon="-1.21826">
        <ele>43</ele>
        <time>2022-03-11T20:21:47Z</time>
      </trkpt>
      <trkpt lat="48.72169" lon="-1.21971">
        <ele>50</ele>
        <time>2022-03-11T20:22:07Z</time>
      </trkpt>
      <trkpt lat="48.72117" lon="-1.22101">
        <ele>55</ele>
        <time>2022-03-11T20:22:25Z</time>
      </trkpt>
      <trkpt lat="48.72079" lon="-1.22187">
        <ele>52</ele>
        <time>2022-03-11T20:22:37Z</time>
      </trkpt>
      <trkpt lat="48.72035" lon="-1.22293">
        <ele>51</ele>
        <time>2022-03-11T20:22:52Z</time>
      </trkpt>
      <trkpt lat="48.72014" lon="-1.22333">
        <ele>51</ele>
        <time>2022-03-11T20:22:58Z</time>
      </trkpt>
      <trkpt lat="48.71945" lon="-1.22456">
        <ele>51</ele>
        <time>2022-03-11T20:23:17Z</time>
      </trkpt>
      <trkpt lat="48.71907" lon="-1.22545">
        <ele>50</ele>
        <time>2022-03-11T20:23:29Z</time>
      </trkpt>
      <trkpt lat="48.71874" lon="-1.22639">
        <ele>49</ele>
        <time>2022-03-11T20:23:42Z</time>
      </trkpt>
      <trkpt lat="48.71856" lon="-1.22696">
        <ele>48</ele>
        <time>2022-03-11T20:23:49Z</time>
      </trkpt>
      <trkpt lat="48.7174" lon="-1.23136">
        <ele>34</ele>
        <time>2022-03-11T20:24:45Z</time>
      </trkpt>
      <trkpt lat="48.71698" lon="-1.23305">
        <ele>26</ele>
        <time>2022-03-11T20:25:06Z</time>
      </trkpt>
      <trkpt lat="48.71676" lon="-1.23397">
        <ele>23</ele>
        <time>2022-03-11T20:25:18Z</time>
      </trkpt>
      <trkpt lat="48.71663" lon="-1.23474">
        <ele>22</ele>
        <time>2022-03-11T20:25:27Z</time>
      </trkpt>
      <trkpt lat="48.71653" lon="-1.23548">
        <ele>21</ele>
        <time>2022-03-11T20:25:36Z</time>
      </trkpt>
      <trkpt lat="48.71649" lon="-1.23593">
        <ele>22</ele>
        <time>2022-03-11T20:25:41Z</time>
      </trkpt>
      <trkpt lat="48.71615" lon="-1.23819">
        <ele>22</ele>
        <time>2022-03-11T20:26:08Z</time>
      </trkpt>
      <trkpt lat="48.71611" lon="-1.23877">
        <ele>24</ele>
        <time>2022-03-11T20:26:15Z</time>
      </trkpt>
      <trkpt lat="48.71608" lon="-1.24099">
        <ele>31</ele>
        <time>2022-03-11T20:26:41Z</time>
      </trkpt>
      <trkpt lat="48.71605" lon="-1.24182">
        <ele>31</ele>
        <time>2022-03-11T20:26:51Z</time>
      </trkpt>
      <trkpt lat="48.71602" lon="-1.24217">
        <ele>31</ele>
        <time>2022-03-11T20:26:55Z</time>
      </trkpt>
      <trkpt lat="48.71595" lon="-1.24256">
        <ele>31</ele>
        <time>2022-03-11T20:27:00Z</time>
      </trkpt>
      <trkpt lat="48.71588" lon="-1.24283">
        <ele>31</ele>
        <time>2022-03-11T20:27:03Z</time>
      </trkpt>
      <trkpt lat="48.71548" lon="-1.24415">
        <ele>33</ele>
        <time>2022-03-11T20:27:20Z</time>
      </trkpt>
      <trkpt lat="48.71491" lon="-1.24591">
        <ele>30</ele>
        <time>2022-03-11T20:27:43Z</time>
      </trkpt>
      <trkpt lat="48.71446" lon="-1.2472">
        <ele>27</ele>
        <time>2022-03-11T20:28:01Z</time>
      </trkpt>
      <trkpt lat="48.71421" lon="-1.24786">
        <ele>25</ele>
        <time>2022-03-11T20:28:10Z</time>
      </trkpt>
      <trkpt lat="48.71401" lon="-1.24854">
        <ele>22</ele>
        <time>2022-03-11T20:28:18Z</time>
      </trkpt>
      <trkpt lat="48.71393" lon="-1.24889">
        <ele>22</ele>
        <time>2022-03-11T20:28:23Z</time>
      </trkpt>
      <trkpt lat="48.71382" lon="-1.24968">
        <ele>22</ele>
        <time>2022-03-11T20:28:32Z</time>
      </trkpt>
      <trkpt lat="48.71364" lon="-1.25213">
        <ele>28</ele>
        <time>2022-03-11T20:29:01Z</time>
      </trkpt>
      <trkpt lat="48.71357" lon="-1.25281">
        <ele>29</ele>
        <time>2022-03-11T20:29:09Z</time>
      </trkpt>
      <trkpt lat="48.7135" lon="-1.2533">
        <ele>28</ele>
        <time>2022-03-11T20:29:15Z</time>
      </trkpt>
      <trkpt lat="48.7133" lon="-1.25422">
        <ele>26</ele>
        <time>2022-03-11T20:29:26Z</time>
      </trkpt>
      <trkpt lat="48.71318" lon="-1.25464">
        <ele>26</ele>
        <time>2022-03-11T20:29:32Z</time>
      </trkpt>
      <trkpt lat="48.71298" lon="-1.25521">
        <ele>26</ele>
        <time>2022-03-11T20:29:39Z</time>
      </trkpt>
      <trkpt lat="48.71229" lon="-1.25691">
        <ele>23</ele>
        <time>2022-03-11T20:30:03Z</time>
      </trkpt>
      <trkpt lat="48.71213" lon="-1.25741">
        <ele>22</ele>
        <time>2022-03-11T20:30:09Z</time>
      </trkpt>
      <trkpt lat="48.71188" lon="-1.25828">
        <ele>24</ele>
        <time>2022-03-11T20:30:20Z</time>
      </trkpt>
      <trkpt lat="48.71173" lon="-1.25871">
        <ele>24</ele>
        <time>2022-03-11T20:30:26Z</time>
      </trkpt>
      <trkpt lat="48.71153" lon="-1.25917">
        <ele>24</ele>
        <time>2022-03-11T20:30:33Z</time>
      </trkpt>
      <trkpt lat="48.71053" lon="-1.26109">
        <ele>21</ele>
        <time>2022-03-11T20:31:01Z</time>
      </trkpt>
      <trkpt lat="48.70984" lon="-1.2625">
        <ele>23</ele>
        <time>2022-03-11T20:31:22Z</time>
      </trkpt>
      <trkpt lat="48.7092" lon="-1.26196">
        <ele>18</ele>
        <time>2022-03-11T20:31:35Z</time>
      </trkpt>
      <trkpt lat="48.70887" lon="-1.26169">
        <ele>17</ele>
        <time>2022-03-11T20:31:42Z</time>
      </trkpt>
      <trkpt lat="48.70834" lon="-1.26128">
        <ele>15</ele>
        <time>2022-03-11T20:31:52Z</time>
      </trkpt>
      <trkpt lat="48.70819" lon="-1.2612">
        <ele>15</ele>
        <time>2022-03-11T20:31:55Z</time>
      </trkpt>
      <trkpt lat="48.70797" lon="-1.2612">
        <ele>15</ele>
        <time>2022-03-11T20:31:59Z</time>
      </trkpt>
      <trkpt lat="48.70777" lon="-1.26129">
        <ele>15</ele>
        <time>2022-03-11T20:32:03Z</time>
      </trkpt>
      <trkpt lat="48.70693" lon="-1.26185">
        <ele>16</ele>
        <time>2022-03-11T20:32:19Z</time>
      </trkpt>
      <trkpt lat="48.70632" lon="-1.26217">
        <ele>19</ele>
        <time>2022-03-11T20:32:30Z</time>
      </trkpt>
      <trkpt lat="48.70622" lon="-1.26216">
        <ele>20</ele>
        <time>2022-03-11T20:32:32Z</time>
      </trkpt>
      <trkpt lat="48.70603" lon="-1.26207">
        <ele>21</ele>
        <time>2022-03-11T20:32:36Z</time>
      </trkpt>
      <trkpt lat="48.70493" lon="-1.26112">
        <ele>29</ele>
        <time>2022-03-11T20:32:58Z</time>
      </trkpt>
      <trkpt lat="48.70391" lon="-1.26026">
        <ele>32</ele>
        <time>2022-03-11T20:33:19Z</time>
      </trkpt>
      <trkpt lat="48.70379" lon="-1.26035">
        <ele>31</ele>
        <time>2022-03-11T20:33:21Z</time>
      </trkpt>
      <trkpt lat="48.70341" lon="-1.26072">
        <ele>30</ele>
        <time>2022-03-11T20:33:30Z</time>
      </trkpt>
      <trkpt lat="48.70331" lon="-1.26085">
        <ele>30</ele>
        <time>2022-03-11T20:33:32Z</time>
      </trkpt>
      <trkpt lat="48.70323" lon="-1.26099">
        <ele>31</ele>
        <time>2022-03-11T20:33:34Z</time>
      </trkpt>
      <trkpt lat="48.70318" lon="-1.26115">
        <ele>32</ele>
        <time>2022-03-11T20:33:36Z</time>
      </trkpt>
      <trkpt lat="48.70313" lon="-1.26139">
        <ele>33</ele>
        <time>2022-03-11T20:33:39Z</time>
      </trkpt>
      <trkpt lat="48.7031" lon="-1.26176">
        <ele>34</ele>
        <time>2022-03-11T20:33:43Z</time>
      </trkpt>
      <trkpt lat="48.70309" lon="-1.26324">
        <ele>38</ele>
        <time>2022-03-11T20:34:01Z</time>
      </trkpt>
      <trkpt lat="48.70281" lon="-1.26714">
        <ele>35</ele>
        <time>2022-03-11T20:34:47Z</time>
      </trkpt>
      <trkpt lat="48.70288" lon="-1.26947">
        <ele>34</ele>
        <time>2022-03-11T20:35:14Z</time>
      </trkpt>
      <trkpt lat="48.70296" lon="-1.27053">
        <ele>33</ele>
        <time>2022-03-11T20:35:27Z</time>
      </trkpt>
      <trkpt lat="48.70124" lon="-1.27058">
        <ele>47</ele>
        <time>2022-03-11T20:35:57Z</time>
      </trkpt>
      <trkpt lat="48.69948" lon="-1.27046">
        <ele>62</ele>
        <time>2022-03-11T20:36:29Z</time>
      </trkpt>
      <trkpt lat="48.69913" lon="-1.27049">
        <ele>65</ele>
        <time>2022-03-11T20:36:35Z</time>
      </trkpt>
      <trkpt lat="48.69752" lon="-1.27099">
        <ele>84</ele>
        <time>2022-03-11T20:37:04Z</time>
      </trkpt>
      <trkpt lat="48.69601" lon="-1.27338">
        <ele>105</ele>
        <time>2022-03-11T20:37:43Z</time>
      </trkpt>
      <trkpt lat="48.69576" lon="-1.27359">
        <ele>107</ele>
        <time>2022-03-11T20:37:48Z</time>
      </trkpt>
      <trkpt lat="48.69556" lon="-1.27368">
        <ele>108</ele>
        <time>2022-03-11T20:37:52Z</time>
      </trkpt>
      <trkpt lat="48.6947" lon="-1.27362">
        <ele>113</ele>
        <time>2022-03-11T20:38:07Z</time>
      </trkpt>
      <trkpt lat="48.69436" lon="-1.27356">
        <ele>115</ele>
        <time>2022-03-11T20:38:13Z</time>
      </trkpt>
      <trkpt lat="48.69422" lon="-1.27352">
        <ele>115</ele>
        <time>2022-03-11T20:38:16Z</time>
      </trkpt>
      <trkpt lat="48.69381" lon="-1.27321">
        <ele>119</ele>
        <time>2022-03-11T20:38:24Z</time>
      </trkpt>
      <trkpt lat="48.69361" lon="-1.27316">
        <ele>120</ele>
        <time>2022-03-11T20:38:28Z</time>
      </trkpt>
      <trkpt lat="48.69311" lon="-1.2733">
        <ele>121</ele>
        <time>2022-03-11T20:38:37Z</time>
      </trkpt>
      <trkpt lat="48.69234" lon="-1.27376">
        <ele>119</ele>
        <time>2022-03-11T20:38:51Z</time>
      </trkpt>
      <trkpt lat="48.69154" lon="-1.274">
        <ele>116</ele>
        <time>2022-03-11T20:39:06Z</time>
      </trkpt>
      <trkpt lat="48.69142" lon="-1.27419">
        <ele>116</ele>
        <time>2022-03-11T20:39:09Z</time>
      </trkpt>
      <trkpt lat="48.69136" lon="-1.27439">
        <ele>116</ele>
        <time>2022-03-11T20:39:12Z</time>
      </trkpt>
      <trkpt lat="48.69133" lon="-1.27501">
        <ele>116</ele>
        <time>2022-03-11T20:39:19Z</time>
      </trkpt>
      <trkpt lat="48.6913" lon="-1.27599">
        <ele>116</ele>
        <time>2022-03-11T20:39:30Z</time>
      </trkpt>
      <trkpt lat="48.69124" lon="-1.27687">
        <ele>116</ele>
        <time>2022-03-11T20:39:41Z</time>
      </trkpt>
      <trkpt lat="48.69075" lon="-1.28069">
        <ele>116</ele>
        <time>2022-03-11T20:40:26Z</time>
      </trkpt>
      <trkpt lat="48.69067" lon="-1.28106">
        <ele>116</ele>
        <time>2022-03-11T20:40:31Z</time>
      </trkpt>
      <trkpt lat="48.69074" lon="-1.28367">
        <ele>118</ele>
        <time>2022-03-11T20:41:02Z</time>
      </trkpt>
      <trkpt lat="48.69074" lon="-1.28484">
        <ele>119</ele>
        <time>2022-03-11T20:41:15Z</time>
      </trkpt>
      <trkpt lat="48.6907" lon="-1.28518">
        <ele>118</ele>
        <time>2022-03-11T20:41:20Z</time>
      </trkpt>
      <trkpt lat="48.69065" lon="-1.28535">
        <ele>118</ele>
        <time>2022-03-11T20:41:22Z</time>
      </trkpt>
      <trkpt lat="48.6904" lon="-1.28574">
        <ele>116</ele>
        <time>2022-03-11T20:41:28Z</time>
      </trkpt>
      <trkpt lat="48.69032" lon="-1.286">
        <ele>115</ele>
        <time>2022-03-11T20:41:31Z</time>
      </trkpt>
      <trkpt lat="48.68996" lon="-1.28739">
        <ele>113</ele>
        <time>2022-03-11T20:41:49Z</time>
      </trkpt>
      <trkpt lat="48.68988" lon="-1.28758">
        <ele>112</ele>
        <time>2022-03-11T20:41:52Z</time>
      </trkpt>
      <trkpt lat="48.68975" lon="-1.2877">
        <ele>112</ele>
        <time>2022-03-11T20:41:54Z</time>
      </trkpt>
      <trkpt lat="48.68938" lon="-1.28779">
        <ele>110</ele>
        <time>2022-03-11T20:42:01Z</time>
      </trkpt>
      <trkpt lat="48.68931" lon="-1.28787">
        <ele>109</ele>
        <time>2022-03-11T20:42:03Z</time>
      </trkpt>
      <trkpt lat="48.68922" lon="-1.28806">
        <ele>109</ele>
        <time>2022-03-11T20:42:05Z</time>
      </trkpt>
      <trkpt lat="48.68918" lon="-1.28945">
        <ele>110</ele>
        <time>2022-03-11T20:42:22Z</time>
      </trkpt>
      <trkpt lat="48.68912" lon="-1.29047">
        <ele>111</ele>
        <time>2022-03-11T20:42:34Z</time>
      </trkpt>
      <trkpt lat="48.69003" lon="-1.29026">
        <ele>112</ele>
        <time>2022-03-11T20:42:50Z</time>
      </trkpt>
      <trkpt lat="48.69048" lon="-1.29022">
        <ele>114</ele>
        <time>2022-03-11T20:42:58Z</time>
      </trkpt>
      <trkpt lat="48.69103" lon="-1.28998">
        <ele>116</ele>
        <time>2022-03-11T20:43:08Z</time>
      </trkpt>
      <trkpt lat="48.69222" lon="-1.28952">
        <ele>117</ele>
        <time>2022-03-11T20:43:30Z</time>
      </trkpt>
      <trkpt lat="48.69377" lon="-1.2896">
        <ele>114</ele>
        <time>2022-03-11T20:43:58Z</time>
      </trkpt>
      <trkpt lat="48.6946" lon="-1.28974">
        <ele>108</ele>
        <time>2022-03-11T20:44:13Z</time>
      </trkpt>
      <trkpt lat="48.6949" lon="-1.28984">
        <ele>105</ele>
        <time>2022-03-11T20:44:18Z</time>
      </trkpt>
      <trkpt lat="48.6955" lon="-1.28984">
        <ele>96</ele>
        <time>2022-03-11T20:44:29Z</time>
      </trkpt>
      <trkpt lat="48.69588" lon="-1.28991">
        <ele>90</ele>
        <time>2022-03-11T20:44:36Z</time>
      </trkpt>
      <trkpt lat="48.69623" lon="-1.29012">
        <ele>84</ele>
        <time>2022-03-11T20:44:42Z</time>
      </trkpt>
      <trkpt lat="48.69658" lon="-1.29043">
        <ele>77</ele>
        <time>2022-03-11T20:44:49Z</time>
      </trkpt>
      <trkpt lat="48.69679" lon="-1.29087">
        <ele>73</ele>
        <time>2022-03-11T20:44:56Z</time>
      </trkpt>
      <trkpt lat="48.6969" lon="-1.29103">
        <ele>70</ele>
        <time>2022-03-11T20:44:59Z</time>
      </trkpt>
      <trkpt lat="48.69702" lon="-1.29115">
        <ele>68</ele>
        <time>2022-03-11T20:45:01Z</time>
      </trkpt>
      <trkpt lat="48.69818" lon="-1.29204">
        <ele>49</ele>
        <time>2022-03-11T20:45:24Z</time>
      </trkpt>
      <trkpt lat="48.69867" lon="-1.29232">
        <ele>44</ele>
        <time>2022-03-11T20:45:34Z</time>
      </trkpt>
      <trkpt lat="48.69928" lon="-1.29251">
        <ele>40</ele>
        <time>2022-03-11T20:45:45Z</time>
      </trkpt>
      <trkpt lat="48.70144" lon="-1.2929">
        <ele>20</ele>
        <time>2022-03-11T20:46:23Z</time>
      </trkpt>
      <trkpt lat="48.70128" lon="-1.29549">
        <ele>16</ele>
        <time>2022-03-11T20:46:54Z</time>
      </trkpt>
      <trkpt lat="48.7011" lon="-1.29648">
        <ele>16</ele>
        <time>2022-03-11T20:47:06Z</time>
      </trkpt>
      <trkpt lat="48.7011" lon="-1.29673">
        <ele>16</ele>
        <time>2022-03-11T20:47:09Z</time>
      </trkpt>
      <trkpt lat="48.70124" lon="-1.29834">
        <ele>18</ele>
        <time>2022-03-11T20:47:28Z</time>
      </trkpt>
      <trkpt lat="48.70128" lon="-1.29944">
        <ele>17</ele>
        <time>2022-03-11T20:47:41Z</time>
      </trkpt>
      <trkpt lat="48.70145" lon="-1.30083">
        <ele>16</ele>
        <time>2022-03-11T20:47:57Z</time>
      </trkpt>
      <trkpt lat="48.70147" lon="-1.30121">
        <ele>15</ele>
        <time>2022-03-11T20:48:02Z</time>
      </trkpt>
      <trkpt lat="48.70148" lon="-1.30184">
        <ele>15</ele>
        <time>2022-03-11T20:48:09Z</time>
      </trkpt>
      <trkpt lat="48.70147" lon="-1.30218">
        <ele>16</ele>
        <time>2022-03-11T20:48:13Z</time>
      </trkpt>
      <trkpt lat="48.70134" lon="-1.3034">
        <ele>20</ele>
        <time>2022-03-11T20:48:28Z</time>
      </trkpt>
      <trkpt lat="48.70123" lon="-1.30421">
        <ele>23</ele>
        <time>2022-03-11T20:48:38Z</time>
      </trkpt>
      <trkpt lat="48.70117" lon="-1.30453">
        <ele>24</ele>
        <time>2022-03-11T20:48:41Z</time>
      </trkpt>
      <trkpt lat="48.7008" lon="-1.30574">
        <ele>31</ele>
        <time>2022-03-11T20:48:57Z</time>
      </trkpt>
      <trkpt lat="48.70064" lon="-1.30656">
        <ele>30</ele>
        <time>2022-03-11T20:49:07Z</time>
      </trkpt>
      <trkpt lat="48.7006" lon="-1.30688">
        <ele>29</ele>
        <time>2022-03-11T20:49:11Z</time>
      </trkpt>
      <trkpt lat="48.70047" lon="-1.30905">
        <ele>27</ele>
        <time>2022-03-11T20:49:37Z</time>
      </trkpt>
      <trkpt lat="48.70045" lon="-1.31065">
        <ele>21</ele>
        <time>2022-03-11T20:49:55Z</time>
      </trkpt>
      <trkpt lat="48.70043" lon="-1.31087">
        <ele>20</ele>
        <time>2022-03-11T20:49:58Z</time>
      </trkpt>
      <trkpt lat="48.70032" lon="-1.31127">
        <ele>21</ele>
        <time>2022-03-11T20:50:03Z</time>
      </trkpt>
      <trkpt lat="48.7001" lon="-1.31174">
        <ele>21</ele>
        <time>2022-03-11T20:50:10Z</time>
      </trkpt>
      <trkpt lat="48.69992" lon="-1.31233">
        <ele>21</ele>
        <time>2022-03-11T20:50:18Z</time>
      </trkpt>
      <trkpt lat="48.69953" lon="-1.3131">
        <ele>22</ele>
        <time>2022-03-11T20:50:29Z</time>
      </trkpt>
      <trkpt lat="48.69949" lon="-1.31327">
        <ele>22</ele>
        <time>2022-03-11T20:50:31Z</time>
      </trkpt>
      <trkpt lat="48.69947" lon="-1.31363">
        <ele>22</ele>
        <time>2022-03-11T20:50:35Z</time>
      </trkpt>
      <trkpt lat="48.69951" lon="-1.3142">
        <ele>21</ele>
        <time>2022-03-11T20:50:42Z</time>
      </trkpt>
      <trkpt lat="48.69951" lon="-1.31449">
        <ele>22</ele>
        <time>2022-03-11T20:50:45Z</time>
      </trkpt>
      <trkpt lat="48.69946" lon="-1.31483">
        <ele>24</ele>
        <time>2022-03-11T20:50:49Z</time>
      </trkpt>
      <trkpt lat="48.69916" lon="-1.31646">
        <ele>29</ele>
        <time>2022-03-11T20:51:09Z</time>
      </trkpt>
      <trkpt lat="48.69907" lon="-1.3166">
        <ele>29</ele>
        <time>2022-03-11T20:51:12Z</time>
      </trkpt>
      <trkpt lat="48.69897" lon="-1.3167">
        <ele>29</ele>
        <time>2022-03-11T20:51:14Z</time>
      </trkpt>
      <trkpt lat="48.69811" lon="-1.31714">
        <ele>33</ele>
        <time>2022-03-11T20:51:30Z</time>
      </trkpt>
      <trkpt lat="48.69799" lon="-1.31726">
        <ele>33</ele>
        <time>2022-03-11T20:51:32Z</time>
      </trkpt>
      <trkpt lat="48.69788" lon="-1.31743">
        <ele>34</ele>
        <time>2022-03-11T20:51:35Z</time>
      </trkpt>
      <trkpt lat="48.69716" lon="-1.31966">
        <ele>40</ele>
        <time>2022-03-11T20:52:04Z</time>
      </trkpt>
      <trkpt lat="48.69706" lon="-1.31993">
        <ele>41</ele>
        <time>2022-03-11T20:52:08Z</time>
      </trkpt>
      <trkpt lat="48.69671" lon="-1.32057">
        <ele>42</ele>
        <time>2022-03-11T20:52:18Z</time>
      </trkpt>
      <trkpt lat="48.69667" lon="-1.32068">
        <ele>43</ele>
        <time>2022-03-11T20:52:19Z</time>
      </trkpt>
      <trkpt lat="48.69656" lon="-1.32122">
        <ele>43</ele>
        <time>2022-03-11T20:52:26Z</time>
      </trkpt>
      <trkpt lat="48.69611" lon="-1.32387">
        <ele>36</ele>
        <time>2022-03-11T20:52:58Z</time>
      </trkpt>
      <trkpt lat="48.69597" lon="-1.32502">
        <ele>34</ele>
        <time>2022-03-11T20:53:12Z</time>
      </trkpt>
      <trkpt lat="48.69588" lon="-1.32547">
        <ele>34</ele>
        <time>2022-03-11T20:53:17Z</time>
      </trkpt>
      <trkpt lat="48.69578" lon="-1.32578">
        <ele>35</ele>
        <time>2022-03-11T20:53:21Z</time>
      </trkpt>
      <trkpt lat="48.6957" lon="-1.326">
        <ele>36</ele>
        <time>2022-03-11T20:53:24Z</time>
      </trkpt>
      <trkpt lat="48.6954" lon="-1.32663">
        <ele>39</ele>
        <time>2022-03-11T20:53:33Z</time>
      </trkpt>
      <trkpt lat="48.69527" lon="-1.327">
        <ele>40</ele>
        <time>2022-03-11T20:53:38Z</time>
      </trkpt>
      <trkpt lat="48.69517" lon="-1.32743">
        <ele>41</ele>
        <time>2022-03-11T20:53:44Z</time>
      </trkpt>
      <trkpt lat="48.69511" lon="-1.32754">
        <ele>42</ele>
        <time>2022-03-11T20:53:45Z</time>
      </trkpt>
      <trkpt lat="48.69506" lon="-1.3276">
        <ele>42</ele>
        <time>2022-03-11T20:53:47Z</time>
      </trkpt>
      <trkpt lat="48.6951" lon="-1.32773">
        <ele>42</ele>
        <time>2022-03-11T20:53:48Z</time>
      </trkpt>
      <trkpt lat="48.69511" lon="-1.32787">
        <ele>42</ele>
        <time>2022-03-11T20:53:50Z</time>
      </trkpt>
      <trkpt lat="48.69504" lon="-1.32834">
        <ele>43</ele>
        <time>2022-03-11T20:53:56Z</time>
      </trkpt>
      <trkpt lat="48.69492" lon="-1.32892">
        <ele>43</ele>
        <time>2022-03-11T20:54:03Z</time>
      </trkpt>
      <trkpt lat="48.69464" lon="-1.33001">
        <ele>40</ele>
        <time>2022-03-11T20:54:16Z</time>
      </trkpt>
      <trkpt lat="48.6946" lon="-1.33023">
        <ele>40</ele>
        <time>2022-03-11T20:54:19Z</time>
      </trkpt>
      <trkpt lat="48.69457" lon="-1.3306">
        <ele>39</ele>
        <time>2022-03-11T20:54:23Z</time>
      </trkpt>
      <trkpt lat="48.69458" lon="-1.33098">
        <ele>38</ele>
        <time>2022-03-11T20:54:28Z</time>
      </trkpt>
      <trkpt lat="48.69466" lon="-1.33171">
        <ele>37</ele>
        <time>2022-03-11T20:54:37Z</time>
      </trkpt>
      <trkpt lat="48.69468" lon="-1.33203">
        <ele>36</ele>
        <time>2022-03-11T20:54:40Z</time>
      </trkpt>
      <trkpt lat="48.69467" lon="-1.33239">
        <ele>35</ele>
        <time>2022-03-11T20:54:45Z</time>
      </trkpt>
      <trkpt lat="48.69444" lon="-1.33436">
        <ele>26</ele>
        <time>2022-03-11T20:55:08Z</time>
      </trkpt>
      <trkpt lat="48.69446" lon="-1.33492">
        <ele>24</ele>
        <time>2022-03-11T20:55:15Z</time>
      </trkpt>
      <trkpt lat="48.69452" lon="-1.33554">
        <ele>23</ele>
        <time>2022-03-11T20:55:22Z</time>
      </trkpt>
      <trkpt lat="48.69467" lon="-1.3367">
        <ele>20</ele>
        <time>2022-03-11T20:55:36Z</time>
      </trkpt>
      <trkpt lat="48.69469" lon="-1.33705">
        <ele>21</ele>
        <time>2022-03-11T20:55:40Z</time>
      </trkpt>
      <trkpt lat="48.69467" lon="-1.338">
        <ele>24</ele>
        <time>2022-03-11T20:55:51Z</time>
      </trkpt>
      <trkpt lat="48.69469" lon="-1.33834">
        <ele>25</ele>
        <time>2022-03-11T20:55:55Z</time>
      </trkpt>
      <trkpt lat="48.69474" lon="-1.3386">
        <ele>25</ele>
        <time>2022-03-11T20:55:58Z</time>
      </trkpt>
      <trkpt lat="48.6948" lon="-1.33882">
        <ele>26</ele>
        <time>2022-03-11T20:56:01Z</time>
      </trkpt>
      <trkpt lat="48.695" lon="-1.33921">
        <ele>25</ele>
        <time>2022-03-11T20:56:07Z</time>
      </trkpt>
      <trkpt lat="48.69517" lon="-1.3397">
        <ele>24</ele>
        <time>2022-03-11T20:56:14Z</time>
      </trkpt>
      <trkpt lat="48.69569" lon="-1.34088">
        <ele>20</ele>
        <time>2022-03-11T20:56:30Z</time>
      </trkpt>
      <trkpt lat="48.69583" lon="-1.34127">
        <ele>18</ele>
        <time>2022-03-11T20:56:35Z</time>
      </trkpt>
      <trkpt lat="48.69589" lon="-1.34151">
        <ele>17</ele>
        <time>2022-03-11T20:56:38Z</time>
      </trkpt>
      <trkpt lat="48.69597" lon="-1.34207">
        <ele>16</ele>
        <time>2022-03-11T20:56:45Z</time>
      </trkpt>
      <trkpt lat="48.69599" lon="-1.34268">
        <ele>15</ele>
        <time>2022-03-11T20:56:52Z</time>
      </trkpt>
      <trkpt lat="48.69602" lon="-1.34311">
        <ele>15</ele>
        <time>2022-03-11T20:56:57Z</time>
      </trkpt>
      <trkpt lat="48.69609" lon="-1.34345">
        <ele>14</ele>
        <time>2022-03-11T20:57:02Z</time>
      </trkpt>
      <trkpt lat="48.69617" lon="-1.34376">
        <ele>13</ele>
        <time>2022-03-11T20:57:06Z</time>
      </trkpt>
      <trkpt lat="48.69631" lon="-1.34412">
        <ele>12</ele>
        <time>2022-03-11T20:57:10Z</time>
      </trkpt>
      <trkpt lat="48.69638" lon="-1.34424">
        <ele>12</ele>
        <time>2022-03-11T20:57:12Z</time>
      </trkpt>
      <trkpt lat="48.69653" lon="-1.3445">
        <ele>12</ele>
        <time>2022-03-11T20:57:16Z</time>
      </trkpt>
      <trkpt lat="48.69684" lon="-1.3449">
        <ele>11</ele>
        <time>2022-03-11T20:57:24Z</time>
      </trkpt>
      <trkpt lat="48.69703" lon="-1.34518">
        <ele>11</ele>
        <time>2022-03-11T20:57:28Z</time>
      </trkpt>
      <trkpt lat="48.69717" lon="-1.34545">
        <ele>10</ele>
        <time>2022-03-11T20:57:32Z</time>
      </trkpt>
      <trkpt lat="48.6974" lon="-1.34604">
        <ele>9</ele>
        <time>2022-03-11T20:57:40Z</time>
      </trkpt>
      <trkpt lat="48.69746" lon="-1.34599">
        <ele>9</ele>
        <time>2022-03-11T20:57:42Z</time>
      </trkpt>
      <trkpt lat="48.69779" lon="-1.3457">
        <ele>9</ele>
        <time>2022-03-11T20:57:48Z</time>
      </trkpt>
      <trkpt lat="48.69805" lon="-1.34542">
        <ele>8</ele>
        <time>2022-03-11T20:57:54Z</time>
      </trkpt>
      <trkpt lat="48.6982" lon="-1.34532">
        <ele>8</ele>
        <time>2022-03-11T20:57:57Z</time>
      </trkpt>
      <trkpt lat="48.69825" lon="-1.34547">
        <ele>8</ele>
        <time>2022-03-11T20:57:59Z</time>
      </trkpt>
      <trkpt lat="48.69826" lon="-1.34594">
        <ele>8</ele>
        <time>2022-03-11T20:58:04Z</time>
      </trkpt>
      <trkpt lat="48.69829" lon="-1.34613">
        <ele>8</ele>
        <time>2022-03-11T20:58:07Z</time>
      </trkpt>
      <trkpt lat="48.69846" lon="-1.34671">
        <ele>7</ele>
        <time>2022-03-11T20:58:14Z</time>
      </trkpt>
      <trkpt lat="48.6986" lon="-1.34694">
        <ele>7</ele>
        <time>2022-03-11T20:58:18Z</time>
      </trkpt>
      <trkpt lat="48.69911" lon="-1.34762">
        <ele>8</ele>
        <time>2022-03-11T20:58:30Z</time>
      </trkpt>
      <trkpt lat="48.69938" lon="-1.34803">
        <ele>8</ele>
        <time>2022-03-11T20:58:37Z</time>
      </trkpt>
      <trkpt lat="48.7002" lon="-1.34939">
        <ele>7</ele>
        <time>2022-03-11T20:58:58Z</time>
      </trkpt>
      <trkpt lat="48.70028" lon="-1.34949">
        <ele>7</ele>
        <time>2022-03-11T20:59:00Z</time>
      </trkpt>
      <trkpt lat="48.701" lon="-1.35025">
        <ele>6</ele>
        <time>2022-03-11T20:59:16Z</time>
      </trkpt>
      <trkpt lat="48.70155" lon="-1.3509">
        <ele>7</ele>
        <time>2022-03-11T20:59:28Z</time>
      </trkpt>
      <trkpt lat="48.70189" lon="-1.35138">
        <ele>7</ele>
        <time>2022-03-11T20:59:37Z</time>
      </trkpt>
      <trkpt lat="48.70202" lon="-1.35168">
        <ele>7</ele>
        <time>2022-03-11T20:59:41Z</time>
      </trkpt>
      <trkpt lat="48.70207" lon="-1.35194">
        <ele>8</ele>
        <time>2022-03-11T20:59:44Z</time>
      </trkpt>
      <trkpt lat="48.70207" lon="-1.3522">
        <ele>8</ele>
        <time>2022-03-11T20:59:47Z</time>
      </trkpt>
      <trkpt lat="48.70205" lon="-1.35238">
        <ele>9</ele>
        <time>2022-03-11T20:59:49Z</time>
      </trkpt>
      <trkpt lat="48.70201" lon="-1.35262">
        <ele>9</ele>
        <time>2022-03-11T20:59:52Z</time>
      </trkpt>
      <trkpt lat="48.70187" lon="-1.35326">
        <ele>11</ele>
        <time>2022-03-11T21:00:00Z</time>
      </trkpt>
      <trkpt lat="48.70176" lon="-1.35368">
        <ele>12</ele>
        <time>2022-03-11T21:00:05Z</time>
      </trkpt>
      <trkpt lat="48.70163" lon="-1.35405">
        <ele>13</ele>
        <time>2022-03-11T21:00:10Z</time>
      </trkpt>
      <trkpt lat="48.70112" lon="-1.35506">
        <ele>14</ele>
        <time>2022-03-11T21:00:25Z</time>
      </trkpt>
      <trkpt lat="48.69954" lon="-1.35833">
        <ele>16</ele>
        <time>2022-03-11T21:01:13Z</time>
      </trkpt>
      <trkpt lat="48.69881" lon="-1.35991">
        <ele>14</ele>
        <time>2022-03-11T21:01:35Z</time>
      </trkpt>
      <trkpt lat="48.69872" lon="-1.36013">
        <ele>13</ele>
        <time>2022-03-11T21:01:38Z</time>
      </trkpt>
      <trkpt lat="48.69866" lon="-1.36031">
        <ele>13</ele>
        <time>2022-03-11T21:01:41Z</time>
      </trkpt>
      <trkpt lat="48.6986" lon="-1.3606">
        <ele>13</ele>
        <time>2022-03-11T21:01:44Z</time>
      </trkpt>
      <trkpt lat="48.69828" lon="-1.36235">
        <ele>12</ele>
        <time>2022-03-11T21:02:06Z</time>
      </trkpt>
      <trkpt lat="48.69814" lon="-1.36288">
        <ele>12</ele>
        <time>2022-03-11T21:02:12Z</time>
      </trkpt>
      <trkpt lat="48.69794" lon="-1.36343">
        <ele>10</ele>
        <time>2022-03-11T21:02:20Z</time>
      </trkpt>
      <trkpt lat="48.69777" lon="-1.36381">
        <ele>10</ele>
        <time>2022-03-11T21:02:25Z</time>
      </trkpt>
      <trkpt lat="48.69749" lon="-1.36435">
        <ele>9</ele>
        <time>2022-03-11T21:02:33Z</time>
      </trkpt>
      <trkpt lat="48.69735" lon="-1.36457">
        <ele>10</ele>
        <time>2022-03-11T21:02:37Z</time>
      </trkpt>
      <trkpt lat="48.69705" lon="-1.36487">
        <ele>9</ele>
        <time>2022-03-11T21:02:43Z</time>
      </trkpt>
      <trkpt lat="48.69639" lon="-1.3653">
        <ele>7</ele>
        <time>2022-03-11T21:02:56Z</time>
      </trkpt>
      <trkpt lat="48.69621" lon="-1.36545">
        <ele>7</ele>
        <time>2022-03-11T21:03:00Z</time>
      </trkpt>
      <trkpt lat="48.69584" lon="-1.36588">
        <ele>8</ele>
        <time>2022-03-11T21:03:08Z</time>
      </trkpt>
      <trkpt lat="48.69565" lon="-1.36616">
        <ele>8</ele>
        <time>2022-03-11T21:03:13Z</time>
      </trkpt>
      <trkpt lat="48.69551" lon="-1.36642">
        <ele>7</ele>
        <time>2022-03-11T21:03:17Z</time>
      </trkpt>
      <trkpt lat="48.69535" lon="-1.36683">
        <ele>7</ele>
        <time>2022-03-11T21:03:22Z</time>
      </trkpt>
      <trkpt lat="48.69503" lon="-1.36785">
        <ele>7</ele>
        <time>2022-03-11T21:03:35Z</time>
      </trkpt>
      <trkpt lat="48.69495" lon="-1.36819">
        <ele>8</ele>
        <time>2022-03-11T21:03:40Z</time>
      </trkpt>
      <trkpt lat="48.69487" lon="-1.36863">
        <ele>8</ele>
        <time>2022-03-11T21:03:45Z</time>
      </trkpt>
      <trkpt lat="48.69486" lon="-1.36897">
        <ele>8</ele>
        <time>2022-03-11T21:03:49Z</time>
      </trkpt>
      <trkpt lat="48.69488" lon="-1.36919">
        <ele>8</ele>
        <time>2022-03-11T21:03:52Z</time>
      </trkpt>
      <trkpt lat="48.69497" lon="-1.36969">
        <ele>7</ele>
        <time>2022-03-11T21:03:58Z</time>
      </trkpt>
      <trkpt lat="48.69501" lon="-1.3701">
        <ele>7</ele>
        <time>2022-03-11T21:04:03Z</time>
      </trkpt>
      <trkpt lat="48.69501" lon="-1.37032">
        <ele>7</ele>
        <time>2022-03-11T21:04:05Z</time>
      </trkpt>
      <trkpt lat="48.69498" lon="-1.37052">
        <ele>7</ele>
        <time>2022-03-11T21:04:08Z</time>
      </trkpt>
      <trkpt lat="48.69494" lon="-1.37071">
        <ele>7</ele>
        <time>2022-03-11T21:04:10Z</time>
      </trkpt>
      <trkpt lat="48.69455" lon="-1.37247">
        <ele>9</ele>
        <time>2022-03-11T21:04:32Z</time>
      </trkpt>
      <trkpt lat="48.69441" lon="-1.37295">
        <ele>10</ele>
        <time>2022-03-11T21:04:38Z</time>
      </trkpt>
      <trkpt lat="48.69436" lon="-1.37306">
        <ele>10</ele>
        <time>2022-03-11T21:04:39Z</time>
      </trkpt>
      <trkpt lat="48.69428" lon="-1.37318">
        <ele>10</ele>
        <time>2022-03-11T21:04:41Z</time>
      </trkpt>
      <trkpt lat="48.69377" lon="-1.37385">
        <ele>10</ele>
        <time>2022-03-11T21:04:54Z</time>
      </trkpt>
      <trkpt lat="48.69379" lon="-1.37393">
        <ele>10</ele>
        <time>2022-03-11T21:04:55Z</time>
      </trkpt>
      <trkpt lat="48.69377" lon="-1.374">
        <ele>10</ele>
        <time>2022-03-11T21:04:55Z</time>
      </trkpt>
      <trkpt lat="48.69371" lon="-1.37404">
        <ele>10</ele>
        <time>2022-03-11T21:04:57Z</time>
      </trkpt>
      <trkpt lat="48.69367" lon="-1.37401">
        <ele>10</ele>
        <time>2022-03-11T21:04:57Z</time>
      </trkpt>
      <trkpt lat="48.69187" lon="-1.37639">
        <ele>8</ele>
        <time>2022-03-11T21:05:40Z</time>
      </trkpt>
      <trkpt lat="48.69167" lon="-1.3767">
        <ele>8</ele>
        <time>2022-03-11T21:05:45Z</time>
      </trkpt>
      <trkpt lat="48.69076" lon="-1.37828">
        <ele>5</ele>
        <time>2022-03-11T21:06:10Z</time>
      </trkpt>
      <trkpt lat="48.69051" lon="-1.37868">
        <ele>6</ele>
        <time>2022-03-11T21:06:16Z</time>
      </trkpt>
      <trkpt lat="48.69022" lon="-1.37899">
        <ele>6</ele>
        <time>2022-03-11T21:06:22Z</time>
      </trkpt>
      <trkpt lat="48.68991" lon="-1.37926">
        <ele>6</ele>
        <time>2022-03-11T21:06:29Z</time>
      </trkpt>
      <trkpt lat="48.68953" lon="-1.37955">
        <ele>7</ele>
        <time>2022-03-11T21:06:36Z</time>
      </trkpt>
      <trkpt lat="48.68902" lon="-1.37973">
        <ele>8</ele>
        <time>2022-03-11T21:06:46Z</time>
      </trkpt>
      <trkpt lat="48.6883" lon="-1.37993">
        <ele>10</ele>
        <time>2022-03-11T21:06:59Z</time>
      </trkpt>
      <trkpt lat="48.68755" lon="-1.38011">
        <ele>10</ele>
        <time>2022-03-11T21:07:12Z</time>
      </trkpt>
      <trkpt lat="48.68705" lon="-1.38028">
        <ele>9</ele>
        <time>2022-03-11T21:07:21Z</time>
      </trkpt>
      <trkpt lat="48.68677" lon="-1.38046">
        <ele>9</ele>
        <time>2022-03-11T21:07:27Z</time>
      </trkpt>
      <trkpt lat="48.68661" lon="-1.38061">
        <ele>9</ele>
        <time>2022-03-11T21:07:30Z</time>
      </trkpt>
      <trkpt lat="48.68638" lon="-1.38087">
        <ele>10</ele>
        <time>2022-03-11T21:07:35Z</time>
      </trkpt>
      <trkpt lat="48.68405" lon="-1.38404">
        <ele>14</ele>
        <time>2022-03-11T21:08:31Z</time>
      </trkpt>
      <trkpt lat="48.68369" lon="-1.38457">
        <ele>11</ele>
        <time>2022-03-11T21:08:40Z</time>
      </trkpt>
      <trkpt lat="48.68357" lon="-1.38482">
        <ele>11</ele>
        <time>2022-03-11T21:08:43Z</time>
      </trkpt>
      <trkpt lat="48.68341" lon="-1.38521">
        <ele>9</ele>
        <time>2022-03-11T21:08:49Z</time>
      </trkpt>
      <trkpt lat="48.68299" lon="-1.38663">
        <ele>8</ele>
        <time>2022-03-11T21:09:07Z</time>
      </trkpt>
      <trkpt lat="48.68288" lon="-1.38692">
        <ele>8</ele>
        <time>2022-03-11T21:09:11Z</time>
      </trkpt>
      <trkpt lat="48.68272" lon="-1.38723">
        <ele>8</ele>
        <time>2022-03-11T21:09:16Z</time>
      </trkpt>
      <trkpt lat="48.68267" lon="-1.38732">
        <ele>8</ele>
        <time>2022-03-11T21:09:17Z</time>
      </trkpt>
      <trkpt lat="48.68241" lon="-1.38774">
        <ele>8</ele>
        <time>2022-03-11T21:09:24Z</time>
      </trkpt>
      <trkpt lat="48.68228" lon="-1.38806">
        <ele>8</ele>
        <time>2022-03-11T21:09:28Z</time>
      </trkpt>
      <trkpt lat="48.68067" lon="-1.39296">
        <ele>8</ele>
        <time>2022-03-11T21:10:33Z</time>
      </trkpt>
      <trkpt lat="48.68052" lon="-1.3937">
        <ele>8</ele>
        <time>2022-03-11T21:10:42Z</time>
      </trkpt>
      <trkpt lat="48.68004" lon="-1.39666">
        <ele>8</ele>
        <time>2022-03-11T21:11:17Z</time>
      </trkpt>
      <trkpt lat="48.67979" lon="-1.39813">
        <ele>7</ele>
        <time>2022-03-11T21:11:35Z</time>
      </trkpt>
      <trkpt lat="48.67975" lon="-1.39847">
        <ele>7</ele>
        <time>2022-03-11T21:11:39Z</time>
      </trkpt>
      <trkpt lat="48.67973" lon="-1.40189">
        <ele>10</ele>
        <time>2022-03-11T21:12:19Z</time>
      </trkpt>
      <trkpt lat="48.67975" lon="-1.40235">
        <ele>10</ele>
        <time>2022-03-11T21:12:25Z</time>
      </trkpt>
      <trkpt lat="48.67988" lon="-1.40344">
        <ele>10</ele>
        <time>2022-03-11T21:12:38Z</time>
      </trkpt>
      <trkpt lat="48.68022" lon="-1.40589">
        <ele>7</ele>
        <time>2022-03-11T21:13:07Z</time>
      </trkpt>
      <trkpt lat="48.68078" lon="-1.40877">
        <ele>10</ele>
        <time>2022-03-11T21:13:43Z</time>
      </trkpt>
      <trkpt lat="48.68122" lon="-1.41087">
        <ele>16</ele>
        <time>2022-03-11T21:14:08Z</time>
      </trkpt>
      <trkpt lat="48.68141" lon="-1.41169">
        <ele>19</ele>
        <time>2022-03-11T21:14:19Z</time>
      </trkpt>
      <trkpt lat="48.68175" lon="-1.4128">
        <ele>23</ele>
        <time>2022-03-11T21:14:33Z</time>
      </trkpt>
      <trkpt lat="48.68182" lon="-1.41301">
        <ele>24</ele>
        <time>2022-03-11T21:14:36Z</time>
      </trkpt>
      <trkpt lat="48.68217" lon="-1.41378">
        <ele>26</ele>
        <time>2022-03-11T21:14:47Z</time>
      </trkpt>
      <trkpt lat="48.68223" lon="-1.41401">
        <ele>27</ele>
        <time>2022-03-11T21:14:50Z</time>
      </trkpt>
      <trkpt lat="48.68237" lon="-1.41471">
        <ele>27</ele>
        <time>2022-03-11T21:14:58Z</time>
      </trkpt>
      <trkpt lat="48.68247" lon="-1.41514">
        <ele>27</ele>
        <time>2022-03-11T21:15:04Z</time>
      </trkpt>
      <trkpt lat="48.68306" lon="-1.41729">
        <ele>23</ele>
        <time>2022-03-11T21:15:31Z</time>
      </trkpt>
      <trkpt lat="48.68316" lon="-1.4176">
        <ele>21</ele>
        <time>2022-03-11T21:15:35Z</time>
      </trkpt>
      <trkpt lat="48.68491" lon="-1.42186">
        <ele>17</ele>
        <time>2022-03-11T21:16:34Z</time>
      </trkpt>
      <trkpt lat="48.68509" lon="-1.42237">
        <ele>17</ele>
        <time>2022-03-11T21:16:41Z</time>
      </trkpt>
      <trkpt lat="48.68541" lon="-1.42376">
        <ele>23</ele>
        <time>2022-03-11T21:16:58Z</time>
      </trkpt>
      <trkpt lat="48.68548" lon="-1.42421">
        <ele>25</ele>
        <time>2022-03-11T21:17:04Z</time>
      </trkpt>
      <trkpt lat="48.68549" lon="-1.42457">
        <ele>27</ele>
        <time>2022-03-11T21:17:08Z</time>
      </trkpt>
      <trkpt lat="48.68543" lon="-1.42583">
        <ele>31</ele>
        <time>2022-03-11T21:17:23Z</time>
      </trkpt>
      <trkpt lat="48.68539" lon="-1.42627">
        <ele>29</ele>
        <time>2022-03-11T21:17:28Z</time>
      </trkpt>
      <trkpt lat="48.68523" lon="-1.42722">
        <ele>25</ele>
        <time>2022-03-11T21:17:39Z</time>
      </trkpt>
      <trkpt lat="48.68517" lon="-1.42765">
        <ele>24</ele>
        <time>2022-03-11T21:17:45Z</time>
      </trkpt>
      <trkpt lat="48.68516" lon="-1.42783">
        <ele>24</ele>
        <time>2022-03-11T21:17:47Z</time>
      </trkpt>
      <trkpt lat="48.68517" lon="-1.42801">
        <ele>24</ele>
        <time>2022-03-11T21:17:49Z</time>
      </trkpt>
      <trkpt lat="48.68525" lon="-1.42846">
        <ele>24</ele>
        <time>2022-03-11T21:17:54Z</time>
      </trkpt>
      <trkpt lat="48.68658" lon="-1.43442">
        <ele>35</ele>
        <time>2022-03-11T21:19:08Z</time>
      </trkpt>
      <trkpt lat="48.68673" lon="-1.4349">
        <ele>35</ele>
        <time>2022-03-11T21:19:14Z</time>
      </trkpt>
      <trkpt lat="48.68681" lon="-1.43509">
        <ele>35</ele>
        <time>2022-03-11T21:19:17Z</time>
      </trkpt>
      <trkpt lat="48.68701" lon="-1.43549">
        <ele>35</ele>
        <time>2022-03-11T21:19:23Z</time>
      </trkpt>
      <trkpt lat="48.68715" lon="-1.43581">
        <ele>35</ele>
        <time>2022-03-11T21:19:27Z</time>
      </trkpt>
      <trkpt lat="48.68724" lon="-1.43609">
        <ele>35</ele>
        <time>2022-03-11T21:19:31Z</time>
      </trkpt>
      <trkpt lat="48.6876" lon="-1.43747">
        <ele>36</ele>
        <time>2022-03-11T21:19:48Z</time>
      </trkpt>
      <trkpt lat="48.68798" lon="-1.43874">
        <ele>37</ele>
        <time>2022-03-11T21:20:05Z</time>
      </trkpt>
      <trkpt lat="48.68804" lon="-1.43901">
        <ele>38</ele>
        <time>2022-03-11T21:20:08Z</time>
      </trkpt>
      <trkpt lat="48.68825" lon="-1.44039">
        <ele>39</ele>
        <time>2022-03-11T21:20:25Z</time>
      </trkpt>
      <trkpt lat="48.68831" lon="-1.44105">
        <ele>39</ele>
        <time>2022-03-11T21:20:33Z</time>
      </trkpt>
      <trkpt lat="48.68833" lon="-1.44438">
        <ele>35</ele>
        <time>2022-03-11T21:21:12Z</time>
      </trkpt>
      <trkpt lat="48.68837" lon="-1.4452">
        <ele>34</ele>
        <time>2022-03-11T21:21:21Z</time>
      </trkpt>
      <trkpt lat="48.68839" lon="-1.44545">
        <ele>33</ele>
        <time>2022-03-11T21:21:24Z</time>
      </trkpt>
      <trkpt lat="48.68844" lon="-1.44569">
        <ele>33</ele>
        <time>2022-03-11T21:21:27Z</time>
      </trkpt>
      <trkpt lat="48.68864" lon="-1.44639">
        <ele>32</ele>
        <time>2022-03-11T21:21:36Z</time>
      </trkpt>
      <trkpt lat="48.6887" lon="-1.44667">
        <ele>32</ele>
        <time>2022-03-11T21:21:40Z</time>
      </trkpt>
      <trkpt lat="48.68872" lon="-1.44685">
        <ele>32</ele>
        <time>2022-03-11T21:21:42Z</time>
      </trkpt>
      <trkpt lat="48.68874" lon="-1.44718">
        <ele>31</ele>
        <time>2022-03-11T21:21:46Z</time>
      </trkpt>
      <trkpt lat="48.68869" lon="-1.44834">
        <ele>32</ele>
        <time>2022-03-11T21:21:59Z</time>
      </trkpt>
      <trkpt lat="48.68872" lon="-1.44883">
        <ele>33</ele>
        <time>2022-03-11T21:22:05Z</time>
      </trkpt>
      <trkpt lat="48.68922" lon="-1.45242">
        <ele>33</ele>
        <time>2022-03-11T21:22:48Z</time>
      </trkpt>
      <trkpt lat="48.68925" lon="-1.45285">
        <ele>32</ele>
        <time>2022-03-11T21:22:53Z</time>
      </trkpt>
      <trkpt lat="48.68923" lon="-1.45328">
        <ele>32</ele>
        <time>2022-03-11T21:22:58Z</time>
      </trkpt>
      <trkpt lat="48.68913" lon="-1.45373">
        <ele>31</ele>
        <time>2022-03-11T21:23:04Z</time>
      </trkpt>
      <trkpt lat="48.68851" lon="-1.45543">
        <ele>32</ele>
        <time>2022-03-11T21:23:27Z</time>
      </trkpt>
      <trkpt lat="48.68833" lon="-1.45609">
        <ele>32</ele>
        <time>2022-03-11T21:23:35Z</time>
      </trkpt>
      <trkpt lat="48.6881" lon="-1.45733">
        <ele>30</ele>
        <time>2022-03-11T21:23:50Z</time>
      </trkpt>
      <trkpt lat="48.68779" lon="-1.45878">
        <ele>26</ele>
        <time>2022-03-11T21:24:08Z</time>
      </trkpt>
      <trkpt lat="48.68769" lon="-1.45933">
        <ele>24</ele>
        <time>2022-03-11T21:24:15Z</time>
      </trkpt>
      <trkpt lat="48.68744" lon="-1.46137">
        <ele>18</ele>
        <time>2022-03-11T21:24:39Z</time>
      </trkpt>
      <trkpt lat="48.68677" lon="-1.46455">
        <ele>13</ele>
        <time>2022-03-11T21:25:19Z</time>
      </trkpt>
      <trkpt lat="48.68656" lon="-1.46598">
        <ele>13</ele>
        <time>2022-03-11T21:25:36Z</time>
      </trkpt>
      <trkpt lat="48.68651" lon="-1.46624">
        <ele>13</ele>
        <time>2022-03-11T21:25:39Z</time>
      </trkpt>
      <trkpt lat="48.68636" lon="-1.46668">
        <ele>14</ele>
        <time>2022-03-11T21:25:45Z</time>
      </trkpt>
      <trkpt lat="48.6862" lon="-1.46697">
        <ele>13</ele>
        <time>2022-03-11T21:25:49Z</time>
      </trkpt>
      <trkpt lat="48.68558" lon="-1.46765">
        <ele>12</ele>
        <time>2022-03-11T21:26:03Z</time>
      </trkpt>
      <trkpt lat="48.6855" lon="-1.46777">
        <ele>12</ele>
        <time>2022-03-11T21:26:05Z</time>
      </trkpt>
      <trkpt lat="48.68535" lon="-1.4681">
        <ele>11</ele>
        <time>2022-03-11T21:26:10Z</time>
      </trkpt>
      <trkpt lat="48.68527" lon="-1.46835">
        <ele>11</ele>
        <time>2022-03-11T21:26:13Z</time>
      </trkpt>
      <trkpt lat="48.68497" lon="-1.46972">
        <ele>12</ele>
        <time>2022-03-11T21:26:30Z</time>
      </trkpt>
      <trkpt lat="48.68482" lon="-1.47024">
        <ele>12</ele>
        <time>2022-03-11T21:26:36Z</time>
      </trkpt>
      <trkpt lat="48.68442" lon="-1.47148">
        <ele>10</ele>
        <time>2022-03-11T21:26:53Z</time>
      </trkpt>
      <trkpt lat="48.68438" lon="-1.47168">
        <ele>10</ele>
        <time>2022-03-11T21:26:55Z</time>
      </trkpt>
      <trkpt lat="48.68437" lon="-1.47181">
        <ele>10</ele>
        <time>2022-03-11T21:26:57Z</time>
      </trkpt>
      <trkpt lat="48.68442" lon="-1.47202">
        <ele>10</ele>
        <time>2022-03-11T21:26:59Z</time>
      </trkpt>
      <trkpt lat="48.68449" lon="-1.47217">
        <ele>9</ele>
        <time>2022-03-11T21:27:01Z</time>
      </trkpt>
      <trkpt lat="48.68456" lon="-1.47226">
        <ele>9</ele>
        <time>2022-03-11T21:27:03Z</time>
      </trkpt>
      <trkpt lat="48.68491" lon="-1.47262">
        <ele>9</ele>
        <time>2022-03-11T21:27:11Z</time>
      </trkpt>
      <trkpt lat="48.68496" lon="-1.4727">
        <ele>9</ele>
        <time>2022-03-11T21:27:12Z</time>
      </trkpt>
      <trkpt lat="48.68499" lon="-1.47283">
        <ele>9</ele>
        <time>2022-03-11T21:27:14Z</time>
      </trkpt>
      <trkpt lat="48.68496" lon="-1.47308">
        <ele>10</ele>
        <time>2022-03-11T21:27:16Z</time>
      </trkpt>
      <trkpt lat="48.68463" lon="-1.47443">
        <ele>10</ele>
        <time>2022-03-11T21:27:33Z</time>
      </trkpt>
      <trkpt lat="48.68456" lon="-1.47482">
        <ele>10</ele>
        <time>2022-03-11T21:27:38Z</time>
      </trkpt>
      <trkpt lat="48.68436" lon="-1.47666">
        <ele>10</ele>
        <time>2022-03-11T21:28:00Z</time>
      </trkpt>
      <trkpt lat="48.68428" lon="-1.47707">
        <ele>10</ele>
        <time>2022-03-11T21:28:05Z</time>
      </trkpt>
      <trkpt lat="48.68425" lon="-1.47747">
        <ele>9</ele>
        <time>2022-03-11T21:28:10Z</time>
      </trkpt>
      <trkpt lat="48.6843" lon="-1.47789">
        <ele>9</ele>
        <time>2022-03-11T21:28:15Z</time>
      </trkpt>
      <trkpt lat="48.68443" lon="-1.47808">
        <ele>10</ele>
        <time>2022-03-11T21:28:18Z</time>
      </trkpt>
      <trkpt lat="48.68453" lon="-1.4782">
        <ele>10</ele>
        <time>2022-03-11T21:28:20Z</time>
      </trkpt>
      <trkpt lat="48.68483" lon="-1.47849">
        <ele>11</ele>
        <time>2022-03-11T21:28:27Z</time>
      </trkpt>
      <trkpt lat="48.68496" lon="-1.47864">
        <ele>11</ele>
        <time>2022-03-11T21:28:30Z</time>
      </trkpt>
      <trkpt lat="48.68514" lon="-1.47891">
        <ele>11</ele>
        <time>2022-03-11T21:28:34Z</time>
      </trkpt>
      <trkpt lat="48.68568" lon="-1.47962">
        <ele>12</ele>
        <time>2022-03-11T21:28:47Z</time>
      </trkpt>
      <trkpt lat="48.68582" lon="-1.47976">
        <ele>12</ele>
        <time>2022-03-11T21:28:50Z</time>
      </trkpt>
      <trkpt lat="48.68591" lon="-1.4798">
        <ele>12</ele>
        <time>2022-03-11T21:28:51Z</time>
      </trkpt>
      <trkpt lat="48.6863" lon="-1.47988">
        <ele>11</ele>
        <time>2022-03-11T21:28:58Z</time>
      </trkpt>
      <trkpt lat="48.68652" lon="-1.47991">
        <ele>11</ele>
        <time>2022-03-11T21:29:02Z</time>
      </trkpt>
      <trkpt lat="48.68676" lon="-1.47989">
        <ele>11</ele>
        <time>2022-03-11T21:29:07Z</time>
      </trkpt>
      <trkpt lat="48.68778" lon="-1.47968">
        <ele>12</ele>
        <time>2022-03-11T21:29:25Z</time>
      </trkpt>
      <trkpt lat="48.68916" lon="-1.4797">
        <ele>14</ele>
        <time>2022-03-11T21:29:50Z</time>
      </trkpt>
      <trkpt lat="48.68961" lon="-1.47972">
        <ele>15</ele>
        <time>2022-03-11T21:29:58Z</time>
      </trkpt>
      <trkpt lat="48.69045" lon="-1.47997">
        <ele>16</ele>
        <time>2022-03-11T21:30:13Z</time>
      </trkpt>
      <trkpt lat="48.69094" lon="-1.47996">
        <ele>16</ele>
        <time>2022-03-11T21:30:21Z</time>
      </trkpt>
      <trkpt lat="48.69125" lon="-1.48001">
        <ele>15</ele>
        <time>2022-03-11T21:30:27Z</time>
      </trkpt>
      <trkpt lat="48.69146" lon="-1.48007">
        <ele>15</ele>
        <time>2022-03-11T21:30:31Z</time>
      </trkpt>
      <trkpt lat="48.69234" lon="-1.48042">
        <ele>16</ele>
        <time>2022-03-11T21:30:47Z</time>
      </trkpt>
      <trkpt lat="48.69284" lon="-1.48059">
        <ele>16</ele>
        <time>2022-03-11T21:30:56Z</time>
      </trkpt>
      <trkpt lat="48.69355" lon="-1.48078">
        <ele>16</ele>
        <time>2022-03-11T21:31:09Z</time>
      </trkpt>
      <trkpt lat="48.69455" lon="-1.48101">
        <ele>16</ele>
        <time>2022-03-11T21:31:27Z</time>
      </trkpt>
      <trkpt lat="48.69478" lon="-1.48109">
        <ele>16</ele>
        <time>2022-03-11T21:31:31Z</time>
      </trkpt>
      <trkpt lat="48.69768" lon="-1.48259">
        <ele>17</ele>
        <time>2022-03-11T21:32:26Z</time>
      </trkpt>
      <trkpt lat="48.69797" lon="-1.4828">
        <ele>17</ele>
        <time>2022-03-11T21:32:31Z</time>
      </trkpt>
      <trkpt lat="48.69824" lon="-1.48305">
        <ele>18</ele>
        <time>2022-03-11T21:32:37Z</time>
      </trkpt>
      <trkpt lat="48.69853" lon="-1.48338">
        <ele>18</ele>
        <time>2022-03-11T21:32:43Z</time>
      </trkpt>
      <trkpt lat="48.69866" lon="-1.4835">
        <ele>17</ele>
        <time>2022-03-11T21:32:46Z</time>
      </trkpt>
      <trkpt lat="48.69889" lon="-1.48366">
        <ele>16</ele>
        <time>2022-03-11T21:32:51Z</time>
      </trkpt>
      <trkpt lat="48.6992" lon="-1.48375">
        <ele>16</ele>
        <time>2022-03-11T21:32:56Z</time>
      </trkpt>
      <trkpt lat="48.69982" lon="-1.48377">
        <ele>15</ele>
        <time>2022-03-11T21:33:07Z</time>
      </trkpt>
      <trkpt lat="48.70017" lon="-1.4839">
        <ele>15</ele>
        <time>2022-03-11T21:33:14Z</time>
      </trkpt>
      <trkpt lat="48.7004" lon="-1.48408">
        <ele>15</ele>
        <time>2022-03-11T21:33:18Z</time>
      </trkpt>
      <trkpt lat="48.70052" lon="-1.48422">
        <ele>15</ele>
        <time>2022-03-11T21:33:21Z</time>
      </trkpt>
      <trkpt lat="48.70203" lon="-1.48636">
        <ele>18</ele>
        <time>2022-03-11T21:33:58Z</time>
      </trkpt>
      <trkpt lat="48.70482" lon="-1.49006">
        <ele>31</ele>
        <time>2022-03-11T21:35:04Z</time>
      </trkpt>
      <trkpt lat="48.70525" lon="-1.49061">
        <ele>36</ele>
        <time>2022-03-11T21:35:14Z</time>
      </trkpt>
      <trkpt lat="48.70605" lon="-1.49153">
        <ele>41</ele>
        <time>2022-03-11T21:35:32Z</time>
      </trkpt>
      <trkpt lat="48.70652" lon="-1.492">
        <ele>42</ele>
        <time>2022-03-11T21:35:42Z</time>
      </trkpt>
      <trkpt lat="48.70767" lon="-1.49297">
        <ele>45</ele>
        <time>2022-03-11T21:36:05Z</time>
      </trkpt>
      <trkpt lat="48.70827" lon="-1.49354">
        <ele>48</ele>
        <time>2022-03-11T21:36:18Z</time>
      </trkpt>
      <trkpt lat="48.70887" lon="-1.49414">
        <ele>48</ele>
        <time>2022-03-11T21:36:31Z</time>
      </trkpt>
      <trkpt lat="48.70921" lon="-1.4945">
        <ele>47</ele>
        <time>2022-03-11T21:36:38Z</time>
      </trkpt>
      <trkpt lat="48.71009" lon="-1.49564">
        <ele>46</ele>
        <time>2022-03-11T21:36:58Z</time>
      </trkpt>
      <trkpt lat="48.71058" lon="-1.49639">
        <ele>45</ele>
        <time>2022-03-11T21:37:11Z</time>
      </trkpt>
      <trkpt lat="48.71071" lon="-1.49655">
        <ele>44</ele>
        <time>2022-03-11T21:37:14Z</time>
      </trkpt>
      <trkpt lat="48.71096" lon="-1.49678">
        <ele>44</ele>
        <time>2022-03-11T21:37:19Z</time>
      </trkpt>
      <trkpt lat="48.71114" lon="-1.49686">
        <ele>44</ele>
        <time>2022-03-11T21:37:22Z</time>
      </trkpt>
      <trkpt lat="48.71148" lon="-1.49691">
        <ele>44</ele>
        <time>2022-03-11T21:37:28Z</time>
      </trkpt>
      <trkpt lat="48.71169" lon="-1.49702">
        <ele>43</ele>
        <time>2022-03-11T21:37:32Z</time>
      </trkpt>
      <trkpt lat="48.71189" lon="-1.49726">
        <ele>42</ele>
        <time>2022-03-11T21:37:37Z</time>
      </trkpt>
      <trkpt lat="48.7121" lon="-1.49762">
        <ele>41</ele>
        <time>2022-03-11T21:37:43Z</time>
      </trkpt>
      <trkpt lat="48.71224" lon="-1.49795">
        <ele>40</ele>
        <time>2022-03-11T21:37:47Z</time>
      </trkpt>
      <trkpt lat="48.71239" lon="-1.49855">
        <ele>38</ele>
        <time>2022-03-11T21:37:55Z</time>
      </trkpt>
      <trkpt lat="48.71251" lon="-1.49917">
        <ele>37</ele>
        <time>2022-03-11T21:38:02Z</time>
      </trkpt>
      <trkpt lat="48.71257" lon="-1.49928">
        <ele>37</ele>
        <time>2022-03-11T21:38:04Z</time>
      </trkpt>
      <trkpt lat="48.71263" lon="-1.49932">
        <ele>37</ele>
        <time>2022-03-11T21:38:05Z</time>
      </trkpt>
      <trkpt lat="48.71322" lon="-1.49932">
        <ele>39</ele>
        <time>2022-03-11T21:38:16Z</time>
      </trkpt>
      <trkpt lat="48.71364" lon="-1.49941">
        <ele>40</ele>
        <time>2022-03-11T21:38:23Z</time>
      </trkpt>
      <trkpt lat="48.71448" lon="-1.4997">
        <ele>42</ele>
        <time>2022-03-11T21:38:39Z</time>
      </trkpt>
      <trkpt lat="48.71473" lon="-1.49984">
        <ele>43</ele>
        <time>2022-03-11T21:38:43Z</time>
      </trkpt>
      <trkpt lat="48.71638" lon="-1.50107">
        <ele>39</ele>
        <time>2022-03-11T21:39:16Z</time>
      </trkpt>
      <trkpt lat="48.71677" lon="-1.50142">
        <ele>37</ele>
        <time>2022-03-11T21:39:24Z</time>
      </trkpt>
      <trkpt lat="48.71698" lon="-1.50168">
        <ele>36</ele>
        <time>2022-03-11T21:39:29Z</time>
      </trkpt>
      <trkpt lat="48.71745" lon="-1.50243">
        <ele>38</ele>
        <time>2022-03-11T21:39:41Z</time>
      </trkpt>
      <trkpt lat="48.71763" lon="-1.50264">
        <ele>38</ele>
        <time>2022-03-11T21:39:45Z</time>
      </trkpt>
      <trkpt lat="48.71791" lon="-1.50289">
        <ele>38</ele>
        <time>2022-03-11T21:39:51Z</time>
      </trkpt>
      <trkpt lat="48.71905" lon="-1.50375">
        <ele>39</ele>
        <time>2022-03-11T21:40:14Z</time>
      </trkpt>
      <trkpt lat="48.71936" lon="-1.50402">
        <ele>40</ele>
        <time>2022-03-11T21:40:20Z</time>
      </trkpt>
      <trkpt lat="48.71946" lon="-1.50413">
        <ele>41</ele>
        <time>2022-03-11T21:40:22Z</time>
      </trkpt>
      <trkpt lat="48.71968" lon="-1.50443">
        <ele>42</ele>
        <time>2022-03-11T21:40:27Z</time>
      </trkpt>
      <trkpt lat="48.72051" lon="-1.50586">
        <ele>43</ele>
        <time>2022-03-11T21:40:50Z</time>
      </trkpt>
      <trkpt lat="48.7207" lon="-1.50612">
        <ele>43</ele>
        <time>2022-03-11T21:40:54Z</time>
      </trkpt>
      <trkpt lat="48.72085" lon="-1.50627">
        <ele>43</ele>
        <time>2022-03-11T21:40:57Z</time>
      </trkpt>
      <trkpt lat="48.72111" lon="-1.50649">
        <ele>42</ele>
        <time>2022-03-11T21:41:03Z</time>
      </trkpt>
      <trkpt lat="48.72163" lon="-1.50682">
        <ele>38</ele>
        <time>2022-03-11T21:41:13Z</time>
      </trkpt>
      <trkpt lat="48.72207" lon="-1.50698">
        <ele>37</ele>
        <time>2022-03-11T21:41:21Z</time>
      </trkpt>
      <trkpt lat="48.72231" lon="-1.50703">
        <ele>36</ele>
        <time>2022-03-11T21:41:25Z</time>
      </trkpt>
      <trkpt lat="48.72264" lon="-1.50707">
        <ele>36</ele>
        <time>2022-03-11T21:41:31Z</time>
      </trkpt>
      <trkpt lat="48.72316" lon="-1.50705">
        <ele>36</ele>
        <time>2022-03-11T21:41:40Z</time>
      </trkpt>
      <trkpt lat="48.72329" lon="-1.50707">
        <ele>36</ele>
        <time>2022-03-11T21:41:43Z</time>
      </trkpt>
      <trkpt lat="48.72348" lon="-1.50713">
        <ele>35</ele>
        <time>2022-03-11T21:41:46Z</time>
      </trkpt>
      <trkpt lat="48.72371" lon="-1.5073">
        <ele>35</ele>
        <time>2022-03-11T21:41:51Z</time>
      </trkpt>
      <trkpt lat="48.7239" lon="-1.50756">
        <ele>35</ele>
        <time>2022-03-11T21:41:55Z</time>
      </trkpt>
      <trkpt lat="48.72526" lon="-1.50966">
        <ele>33</ele>
        <time>2022-03-11T21:42:30Z</time>
      </trkpt>
      <trkpt lat="48.72538" lon="-1.5099">
        <ele>33</ele>
        <time>2022-03-11T21:42:33Z</time>
      </trkpt>
      <trkpt lat="48.72586" lon="-1.51104">
        <ele>31</ele>
        <time>2022-03-11T21:42:49Z</time>
      </trkpt>
      <trkpt lat="48.7262" lon="-1.5116">
        <ele>29</ele>
        <time>2022-03-11T21:42:58Z</time>
      </trkpt>
      <trkpt lat="48.72633" lon="-1.51185">
        <ele>29</ele>
        <time>2022-03-11T21:43:02Z</time>
      </trkpt>
      <trkpt lat="48.72649" lon="-1.51222">
        <ele>28</ele>
        <time>2022-03-11T21:43:07Z</time>
      </trkpt>
      <trkpt lat="48.72671" lon="-1.51283">
        <ele>27</ele>
        <time>2022-03-11T21:43:15Z</time>
      </trkpt>
      <trkpt lat="48.72679" lon="-1.51301">
        <ele>26</ele>
        <time>2022-03-11T21:43:18Z</time>
      </trkpt>
      <trkpt lat="48.72695" lon="-1.5133">
        <ele>26</ele>
        <time>2022-03-11T21:43:22Z</time>
      </trkpt>
      <trkpt lat="48.7271" lon="-1.51352">
        <ele>25</ele>
        <time>2022-03-11T21:43:26Z</time>
      </trkpt>
      <trkpt lat="48.72746" lon="-1.51392">
        <ele>25</ele>
        <time>2022-03-11T21:43:34Z</time>
      </trkpt>
      <trkpt lat="48.72784" lon="-1.5144">
        <ele>23</ele>
        <time>2022-03-11T21:43:43Z</time>
      </trkpt>
      <trkpt lat="48.72809" lon="-1.51479">
        <ele>21</ele>
        <time>2022-03-11T21:43:49Z</time>
      </trkpt>
      <trkpt lat="48.72828" lon="-1.51521">
        <ele>19</ele>
        <time>2022-03-11T21:43:55Z</time>
      </trkpt>
      <trkpt lat="48.72848" lon="-1.51583">
        <ele>17</ele>
        <time>2022-03-11T21:44:03Z</time>
      </trkpt>
      <trkpt lat="48.72856" lon="-1.51627">
        <ele>15</ele>
        <time>2022-03-11T21:44:08Z</time>
      </trkpt>
      <trkpt lat="48.72866" lon="-1.51718">
        <ele>12</ele>
        <time>2022-03-11T21:44:19Z</time>
      </trkpt>
      <trkpt lat="48.72872" lon="-1.51738">
        <ele>11</ele>
        <time>2022-03-11T21:44:22Z</time>
      </trkpt>
      <trkpt lat="48.72884" lon="-1.51761">
        <ele>11</ele>
        <time>2022-03-11T21:44:25Z</time>
      </trkpt>
      <trkpt lat="48.72906" lon="-1.51785">
        <ele>10</ele>
        <time>2022-03-11T21:44:30Z</time>
      </trkpt>
      <trkpt lat="48.72987" lon="-1.5184">
        <ele>13</ele>
        <time>2022-03-11T21:44:46Z</time>
      </trkpt>
      <trkpt lat="48.73049" lon="-1.51879">
        <ele>20</ele>
        <time>2022-03-11T21:44:58Z</time>
      </trkpt>
      <trkpt lat="48.73059" lon="-1.519">
        <ele>21</ele>
        <time>2022-03-11T21:45:01Z</time>
      </trkpt>
      <trkpt lat="48.73117" lon="-1.52088">
        <ele>28</ele>
        <time>2022-03-11T21:45:25Z</time>
      </trkpt>
      <trkpt lat="48.73129" lon="-1.52111">
        <ele>30</ele>
        <time>2022-03-11T21:45:29Z</time>
      </trkpt>
      <trkpt lat="48.7315" lon="-1.52141">
        <ele>35</ele>
        <time>2022-03-11T21:45:34Z</time>
      </trkpt>
      <trkpt lat="48.73159" lon="-1.52161">
        <ele>36</ele>
        <time>2022-03-11T21:45:37Z</time>
      </trkpt>
      <trkpt lat="48.73161" lon="-1.52173">
        <ele>37</ele>
        <time>2022-03-11T21:45:38Z</time>
      </trkpt>
      <trkpt lat="48.73161" lon="-1.52266">
        <ele>38</ele>
        <time>2022-03-11T21:45:49Z</time>
      </trkpt>
      <trkpt lat="48.73164" lon="-1.52287">
        <ele>38</ele>
        <time>2022-03-11T21:45:52Z</time>
      </trkpt>
      <trkpt lat="48.73195" lon="-1.52409">
        <ele>46</ele>
        <time>2022-03-11T21:46:07Z</time>
      </trkpt>
      <trkpt lat="48.73199" lon="-1.52428">
        <ele>48</ele>
        <time>2022-03-11T21:46:09Z</time>
      </trkpt>
      <trkpt lat="48.73202" lon="-1.52456">
        <ele>49</ele>
        <time>2022-03-11T21:46:13Z</time>
      </trkpt>
      <trkpt lat="48.73202" lon="-1.52471">
        <ele>49</ele>
        <time>2022-03-11T21:46:14Z</time>
      </trkpt>
      <trkpt lat="48.73189" lon="-1.52532">
        <ele>47</ele>
        <time>2022-03-11T21:46:22Z</time>
      </trkpt>
      <trkpt lat="48.73184" lon="-1.52565">
        <ele>48</ele>
        <time>2022-03-11T21:46:26Z</time>
      </trkpt>
      <trkpt lat="48.73181" lon="-1.52685">
        <ele>51</ele>
        <time>2022-03-11T21:46:40Z</time>
      </trkpt>
      <trkpt lat="48.73175" lon="-1.52756">
        <ele>54</ele>
        <time>2022-03-11T21:46:48Z</time>
      </trkpt>
      <trkpt lat="48.73173" lon="-1.52775">
        <ele>55</ele>
        <time>2022-03-11T21:46:51Z</time>
      </trkpt>
      <trkpt lat="48.73161" lon="-1.52821">
        <ele>54</ele>
        <time>2022-03-11T21:46:56Z</time>
      </trkpt>
      <trkpt lat="48.73157" lon="-1.5286">
        <ele>54</ele>
        <time>2022-03-11T21:47:01Z</time>
      </trkpt>
      <trkpt lat="48.73156" lon="-1.52882">
        <ele>54</ele>
        <time>2022-03-11T21:47:04Z</time>
      </trkpt>
      <trkpt lat="48.73167" lon="-1.53031">
        <ele>57</ele>
        <time>2022-03-11T21:47:21Z</time>
      </trkpt>
      <trkpt lat="48.73169" lon="-1.53049">
        <ele>56</ele>
        <time>2022-03-11T21:47:23Z</time>
      </trkpt>
      <trkpt lat="48.73172" lon="-1.53062">
        <ele>56</ele>
        <time>2022-03-11T21:47:25Z</time>
      </trkpt>
      <trkpt lat="48.73181" lon="-1.5308">
        <ele>56</ele>
        <time>2022-03-11T21:47:28Z</time>
      </trkpt>
      <trkpt lat="48.73198" lon="-1.53094">
        <ele>59</ele>
        <time>2022-03-11T21:47:31Z</time>
      </trkpt>
      <trkpt lat="48.73227" lon="-1.53112">
        <ele>64</ele>
        <time>2022-03-11T21:47:37Z</time>
      </trkpt>
      <trkpt lat="48.73293" lon="-1.53145">
        <ele>72</ele>
        <time>2022-03-11T21:47:49Z</time>
      </trkpt>
      <trkpt lat="48.733" lon="-1.53146">
        <ele>72</ele>
        <time>2022-03-11T21:47:50Z</time>
      </trkpt>
      <trkpt lat="48.73313" lon="-1.53144">
        <ele>74</ele>
        <time>2022-03-11T21:47:53Z</time>
      </trkpt>
      <trkpt lat="48.73338" lon="-1.53127">
        <ele>77</ele>
        <time>2022-03-11T21:47:57Z</time>
      </trkpt>
      <trkpt lat="48.73383" lon="-1.53078">
        <ele>81</ele>
        <time>2022-03-11T21:48:07Z</time>
      </trkpt>
      <trkpt lat="48.73391" lon="-1.53073">
        <ele>81</ele>
        <time>2022-03-11T21:48:09Z</time>
      </trkpt>
      <trkpt lat="48.73402" lon="-1.53075">
        <ele>82</ele>
        <time>2022-03-11T21:48:11Z</time>
      </trkpt>
      <trkpt lat="48.73407" lon="-1.53078">
        <ele>82</ele>
        <time>2022-03-11T21:48:12Z</time>
      </trkpt>
      <trkpt lat="48.73412" lon="-1.53086">
        <ele>83</ele>
        <time>2022-03-11T21:48:13Z</time>
      </trkpt>
      <trkpt lat="48.73455" lon="-1.53175">
        <ele>83</ele>
        <time>2022-03-11T21:48:26Z</time>
      </trkpt>
      <trkpt lat="48.73455" lon="-1.53182">
        <ele>83</ele>
        <time>2022-03-11T21:48:27Z</time>
      </trkpt>
      <trkpt lat="48.73454" lon="-1.53195">
        <ele>83</ele>
        <time>2022-03-11T21:48:28Z</time>
      </trkpt>
      <trkpt lat="48.73438" lon="-1.53245">
        <ele>81</ele>
        <time>2022-03-11T21:48:35Z</time>
      </trkpt>
      <trkpt lat="48.73433" lon="-1.53266">
        <ele>81</ele>
        <time>2022-03-11T21:48:37Z</time>
      </trkpt>
      <trkpt lat="48.7341" lon="-1.53405">
        <ele>79</ele>
        <time>2022-03-11T21:48:54Z</time>
      </trkpt>
      <trkpt lat="48.73397" lon="-1.53462">
        <ele>79</ele>
        <time>2022-03-11T21:49:01Z</time>
      </trkpt>
      <trkpt lat="48.73369" lon="-1.53579">
        <ele>79</ele>
        <time>2022-03-11T21:49:16Z</time>
      </trkpt>
      <trkpt lat="48.73361" lon="-1.5363">
        <ele>80</ele>
        <time>2022-03-11T21:49:22Z</time>
      </trkpt>
      <trkpt lat="48.73355" lon="-1.53676">
        <ele>80</ele>
        <time>2022-03-11T21:49:28Z</time>
      </trkpt>
      <trkpt lat="48.73348" lon="-1.53766">
        <ele>79</ele>
        <time>2022-03-11T21:49:38Z</time>
      </trkpt>
      <trkpt lat="48.73346" lon="-1.53912">
        <ele>80</ele>
        <time>2022-03-11T21:49:55Z</time>
      </trkpt>
      <trkpt lat="48.73348" lon="-1.53974">
        <ele>79</ele>
        <time>2022-03-11T21:50:03Z</time>
      </trkpt>
      <trkpt lat="48.73356" lon="-1.54047">
        <ele>77</ele>
        <time>2022-03-11T21:50:11Z</time>
      </trkpt>
      <trkpt lat="48.73412" lon="-1.54355">
        <ele>77</ele>
        <time>2022-03-11T21:50:49Z</time>
      </trkpt>
      <trkpt lat="48.73414" lon="-1.54385">
        <ele>77</ele>
        <time>2022-03-11T21:50:52Z</time>
      </trkpt>
      <trkpt lat="48.73415" lon="-1.54513">
        <ele>74</ele>
        <time>2022-03-11T21:51:07Z</time>
      </trkpt>
      <trkpt lat="48.73418" lon="-1.54563">
        <ele>74</ele>
        <time>2022-03-11T21:51:13Z</time>
      </trkpt>
      <trkpt lat="48.73422" lon="-1.54585">
        <ele>74</ele>
        <time>2022-03-11T21:51:16Z</time>
      </trkpt>
      <trkpt lat="48.73425" lon="-1.54598">
        <ele>74</ele>
        <time>2022-03-11T21:51:18Z</time>
      </trkpt>
      <trkpt lat="48.73431" lon="-1.54614">
        <ele>74</ele>
        <time>2022-03-11T21:51:20Z</time>
      </trkpt>
      <trkpt lat="48.73459" lon="-1.54668">
        <ele>76</ele>
        <time>2022-03-11T21:51:28Z</time>
      </trkpt>
      <trkpt lat="48.73464" lon="-1.54692">
        <ele>75</ele>
        <time>2022-03-11T21:51:31Z</time>
      </trkpt>
      <trkpt lat="48.73469" lon="-1.54754">
        <ele>75</ele>
        <time>2022-03-11T21:51:38Z</time>
      </trkpt>
      <trkpt lat="48.73476" lon="-1.54781">
        <ele>75</ele>
        <time>2022-03-11T21:51:42Z</time>
      </trkpt>
      <trkpt lat="48.73482" lon="-1.54796">
        <ele>76</ele>
        <time>2022-03-11T21:51:44Z</time>
      </trkpt>
      <trkpt lat="48.73538" lon="-1.54895">
        <ele>78</ele>
        <time>2022-03-11T21:51:59Z</time>
      </trkpt>
      <trkpt lat="48.73555" lon="-1.54922">
        <ele>79</ele>
        <time>2022-03-11T21:52:03Z</time>
      </trkpt>
      <trkpt lat="48.73573" lon="-1.54946">
        <ele>80</ele>
        <time>2022-03-11T21:52:08Z</time>
      </trkpt>
      <trkpt lat="48.73623" lon="-1.55">
        <ele>78</ele>
        <time>2022-03-11T21:52:18Z</time>
      </trkpt>
      <trkpt lat="48.73639" lon="-1.55022">
        <ele>78</ele>
        <time>2022-03-11T21:52:22Z</time>
      </trkpt>
      <trkpt lat="48.73671" lon="-1.55093">
        <ele>77</ele>
        <time>2022-03-11T21:52:32Z</time>
      </trkpt>
      <trkpt lat="48.73718" lon="-1.55157">
        <ele>77</ele>
        <time>2022-03-11T21:52:44Z</time>
      </trkpt>
      <trkpt lat="48.73737" lon="-1.5519">
        <ele>76</ele>
        <time>2022-03-11T21:52:49Z</time>
      </trkpt>
      <trkpt lat="48.73834" lon="-1.55406">
        <ele>76</ele>
        <time>2022-03-11T21:53:19Z</time>
      </trkpt>
      <trkpt lat="48.73853" lon="-1.55443">
        <ele>76</ele>
        <time>2022-03-11T21:53:25Z</time>
      </trkpt>
      <trkpt lat="48.73871" lon="-1.55469">
        <ele>76</ele>
        <time>2022-03-11T21:53:29Z</time>
      </trkpt>
      <trkpt lat="48.73968" lon="-1.55592">
        <ele>74</ele>
        <time>2022-03-11T21:53:52Z</time>
      </trkpt>
      <trkpt lat="48.74016" lon="-1.55642">
        <ele>72</ele>
        <time>2022-03-11T21:54:02Z</time>
      </trkpt>
      <trkpt lat="48.74038" lon="-1.55659">
        <ele>71</ele>
        <time>2022-03-11T21:54:07Z</time>
      </trkpt>
      <trkpt lat="48.74054" lon="-1.55668">
        <ele>70</ele>
        <time>2022-03-11T21:54:10Z</time>
      </trkpt>
      <trkpt lat="48.74092" lon="-1.55682">
        <ele>67</ele>
        <time>2022-03-11T21:54:17Z</time>
      </trkpt>
      <trkpt lat="48.74132" lon="-1.5571">
        <ele>65</ele>
        <time>2022-03-11T21:54:24Z</time>
      </trkpt>
      <trkpt lat="48.7414" lon="-1.55713">
        <ele>65</ele>
        <time>2022-03-11T21:54:26Z</time>
      </trkpt>
      <trkpt lat="48.74168" lon="-1.55716">
        <ele>63</ele>
        <time>2022-03-11T21:54:31Z</time>
      </trkpt>
      <trkpt lat="48.74182" lon="-1.55722">
        <ele>60</ele>
        <time>2022-03-11T21:54:34Z</time>
      </trkpt>
      <trkpt lat="48.74187" lon="-1.55727">
        <ele>59</ele>
        <time>2022-03-11T21:54:35Z</time>
      </trkpt>
      <trkpt lat="48.74192" lon="-1.55738">
        <ele>59</ele>
        <time>2022-03-11T21:54:36Z</time>
      </trkpt>
      <trkpt lat="48.74221" lon="-1.55812">
        <ele>57</ele>
        <time>2022-03-11T21:54:46Z</time>
      </trkpt>
      <trkpt lat="48.74234" lon="-1.55833">
        <ele>57</ele>
        <time>2022-03-11T21:54:50Z</time>
      </trkpt>
      <trkpt lat="48.74249" lon="-1.55847">
        <ele>55</ele>
        <time>2022-03-11T21:54:53Z</time>
      </trkpt>
      <trkpt lat="48.74263" lon="-1.55856">
        <ele>54</ele>
        <time>2022-03-11T21:54:55Z</time>
      </trkpt>
      <trkpt lat="48.743" lon="-1.55872">
        <ele>49</ele>
        <time>2022-03-11T21:55:02Z</time>
      </trkpt>
      <trkpt lat="48.74314" lon="-1.55882">
        <ele>48</ele>
        <time>2022-03-11T21:55:05Z</time>
      </trkpt>
      <trkpt lat="48.74342" lon="-1.55913">
        <ele>46</ele>
        <time>2022-03-11T21:55:11Z</time>
      </trkpt>
      <trkpt lat="48.74357" lon="-1.55928">
        <ele>45</ele>
        <time>2022-03-11T21:55:14Z</time>
      </trkpt>
      <trkpt lat="48.74386" lon="-1.55938">
        <ele>44</ele>
        <time>2022-03-11T21:55:20Z</time>
      </trkpt>
      <trkpt lat="48.74419" lon="-1.55956">
        <ele>43</ele>
        <time>2022-03-11T21:55:26Z</time>
      </trkpt>
      <trkpt lat="48.74428" lon="-1.55959">
        <ele>43</ele>
        <time>2022-03-11T21:55:28Z</time>
      </trkpt>
      <trkpt lat="48.74492" lon="-1.55953">
        <ele>46</ele>
        <time>2022-03-11T21:55:39Z</time>
      </trkpt>
      <trkpt lat="48.74595" lon="-1.55959">
        <ele>47</ele>
        <time>2022-03-11T21:55:57Z</time>
      </trkpt>
      <trkpt lat="48.74639" lon="-1.55946">
        <ele>48</ele>
        <time>2022-03-11T21:56:05Z</time>
      </trkpt>
      <trkpt lat="48.74711" lon="-1.55935">
        <ele>50</ele>
        <time>2022-03-11T21:56:18Z</time>
      </trkpt>
      <trkpt lat="48.74722" lon="-1.5593">
        <ele>51</ele>
        <time>2022-03-11T21:56:20Z</time>
      </trkpt>
      <trkpt lat="48.74741" lon="-1.55917">
        <ele>52</ele>
        <time>2022-03-11T21:56:24Z</time>
      </trkpt>
      <trkpt lat="48.74795" lon="-1.55859">
        <ele>54</ele>
        <time>2022-03-11T21:56:36Z</time>
      </trkpt>
      <trkpt lat="48.74817" lon="-1.55831">
        <ele>55</ele>
        <time>2022-03-11T21:56:41Z</time>
      </trkpt>
      <trkpt lat="48.74866" lon="-1.5588">
        <ele>55</ele>
        <time>2022-03-11T21:56:51Z</time>
      </trkpt>
      <trkpt lat="48.74871" lon="-1.55875">
        <ele>55</ele>
        <time>2022-03-11T21:56:52Z</time>
      </trkpt>
      <trkpt lat="48.74928" lon="-1.55868">
        <ele>57</ele>
        <time>2022-03-11T21:57:03Z</time>
      </trkpt>
      <trkpt lat="48.74946" lon="-1.55869">
        <ele>57</ele>
        <time>2022-03-11T21:57:06Z</time>
      </trkpt>
      <trkpt lat="48.74997" lon="-1.55878">
        <ele>57</ele>
        <time>2022-03-11T21:57:15Z</time>
      </trkpt>
      <trkpt lat="48.75036" lon="-1.55882">
        <ele>57</ele>
        <time>2022-03-11T21:57:22Z</time>
      </trkpt>
      <trkpt lat="48.75017" lon="-1.55995">
        <ele>55</ele>
        <time>2022-03-11T21:57:35Z</time>
      </trkpt>
      <trkpt lat="48.75002" lon="-1.56061">
        <ele>54</ele>
        <time>2022-03-11T21:57:44Z</time>
      </trkpt>
      <trkpt lat="48.75019" lon="-1.56077">
        <ele>54</ele>
        <time>2022-03-11T21:57:47Z</time>
      </trkpt>
      <trkpt lat="48.7503" lon="-1.56091">
        <ele>54</ele>
        <time>2022-03-11T21:57:50Z</time>
      </trkpt>
      <trkpt lat="48.75058" lon="-1.56111">
        <ele>54</ele>
        <time>2022-03-11T21:57:55Z</time>
      </trkpt>
      <trkpt lat="48.75107" lon="-1.56156">
        <ele>55</ele>
        <time>2022-03-11T21:58:05Z</time>
      </trkpt>
      <trkpt lat="48.75121" lon="-1.56176">
        <ele>55</ele>
        <time>2022-03-11T21:58:09Z</time>
      </trkpt>
      <trkpt lat="48.75139" lon="-1.56216">
        <ele>56</ele>
        <time>2022-03-11T21:58:15Z</time>
      </trkpt>
      <trkpt lat="48.75197" lon="-1.56362">
        <ele>57</ele>
        <time>2022-03-11T21:58:35Z</time>
      </trkpt>
      <trkpt lat="48.75206" lon="-1.56377">
        <ele>57</ele>
        <time>2022-03-11T21:58:37Z</time>
      </trkpt>
      <trkpt lat="48.75232" lon="-1.564">
        <ele>58</ele>
        <time>2022-03-11T21:58:42Z</time>
      </trkpt>
      <trkpt lat="48.7529" lon="-1.56423">
        <ele>58</ele>
        <time>2022-03-11T21:58:53Z</time>
      </trkpt>
      <trkpt lat="48.75374" lon="-1.56475">
        <ele>58</ele>
        <time>2022-03-11T21:59:09Z</time>
      </trkpt>
      <trkpt lat="48.75523" lon="-1.56545">
        <ele>58</ele>
        <time>2022-03-11T21:59:37Z</time>
      </trkpt>
      <trkpt lat="48.75609" lon="-1.56569">
        <ele>58</ele>
        <time>2022-03-11T21:59:52Z</time>
      </trkpt>
      <trkpt lat="48.75739" lon="-1.56589">
        <ele>52</ele>
        <time>2022-03-11T22:00:16Z</time>
      </trkpt>
      <trkpt lat="48.7578" lon="-1.56603">
        <ele>48</ele>
        <time>2022-03-11T22:00:23Z</time>
      </trkpt>
      <trkpt lat="48.75878" lon="-1.56657">
        <ele>40</ele>
        <time>2022-03-11T22:00:42Z</time>
      </trkpt>
      <trkpt lat="48.75925" lon="-1.56695">
        <ele>35</ele>
        <time>2022-03-11T22:00:51Z</time>
      </trkpt>
      <trkpt lat="48.75949" lon="-1.56721">
        <ele>32</ele>
        <time>2022-03-11T22:00:56Z</time>
      </trkpt>
      <trkpt lat="48.76043" lon="-1.56851">
        <ele>18</ele>
        <time>2022-03-11T22:01:19Z</time>
      </trkpt>
      <trkpt lat="48.76068" lon="-1.5688">
        <ele>15</ele>
        <time>2022-03-11T22:01:25Z</time>
      </trkpt>
      <trkpt lat="48.76081" lon="-1.56891">
        <ele>14</ele>
        <time>2022-03-11T22:01:27Z</time>
      </trkpt>
      <trkpt lat="48.76112" lon="-1.56901">
        <ele>13</ele>
        <time>2022-03-11T22:01:33Z</time>
      </trkpt>
      <trkpt lat="48.76137" lon="-1.569">
        <ele>13</ele>
        <time>2022-03-11T22:01:37Z</time>
      </trkpt>
      <trkpt lat="48.76727" lon="-1.56808">
        <ele>10</ele>
        <time>2022-03-11T22:03:23Z</time>
      </trkpt>
      <trkpt lat="48.76845" lon="-1.56793">
        <ele>10</ele>
        <time>2022-03-11T22:03:44Z</time>
      </trkpt>
      <trkpt lat="48.77039" lon="-1.56762">
        <ele>10</ele>
        <time>2022-03-11T22:04:19Z</time>
      </trkpt>
      <trkpt lat="48.7704" lon="-1.56757">
        <ele>10</ele>
        <time>2022-03-11T22:04:19Z</time>
      </trkpt>
      <trkpt lat="48.77044" lon="-1.56752">
        <ele>10</ele>
        <time>2022-03-11T22:04:20Z</time>
      </trkpt>
      <trkpt lat="48.77049" lon="-1.56755">
        <ele>10</ele>
        <time>2022-03-11T22:04:21Z</time>
      </trkpt>
      <trkpt lat="48.77051" lon="-1.5676">
        <ele>10</ele>
        <time>2022-03-11T22:04:22Z</time>
      </trkpt>
      <trkpt lat="48.77059" lon="-1.56758">
        <ele>10</ele>
        <time>2022-03-11T22:04:23Z</time>
      </trkpt>
      <trkpt lat="48.77263" lon="-1.56758">
        <ele>11</ele>
        <time>2022-03-11T22:05:00Z</time>
      </trkpt>
      <trkpt lat="48.77337" lon="-1.5676">
        <ele>12</ele>
        <time>2022-03-11T22:05:13Z</time>
      </trkpt>
      <trkpt lat="48.77353" lon="-1.56754">
        <ele>12</ele>
        <time>2022-03-11T22:05:16Z</time>
      </trkpt>
      <trkpt lat="48.77385" lon="-1.56726">
        <ele>11</ele>
        <time>2022-03-11T22:05:22Z</time>
      </trkpt>
      <trkpt lat="48.77399" lon="-1.56721">
        <ele>10</ele>
        <time>2022-03-11T22:05:25Z</time>
      </trkpt>
      <trkpt lat="48.77443" lon="-1.56722">
        <ele>10</ele>
        <time>2022-03-11T22:05:33Z</time>
      </trkpt>
      <trkpt lat="48.77448" lon="-1.56727">
        <ele>10</ele>
        <time>2022-03-11T22:05:34Z</time>
      </trkpt>
      <trkpt lat="48.77465" lon="-1.56753">
        <ele>10</ele>
        <time>2022-03-11T22:05:38Z</time>
      </trkpt>
      <trkpt lat="48.77477" lon="-1.56762">
        <ele>10</ele>
        <time>2022-03-11T22:05:40Z</time>
      </trkpt>
      <trkpt lat="48.77557" lon="-1.5676">
        <ele>10</ele>
        <time>2022-03-11T22:05:55Z</time>
      </trkpt>
      <trkpt lat="48.77558" lon="-1.56754">
        <ele>9</ele>
        <time>2022-03-11T22:05:55Z</time>
      </trkpt>
      <trkpt lat="48.77564" lon="-1.56749">
        <ele>9</ele>
        <time>2022-03-11T22:05:57Z</time>
      </trkpt>
      <trkpt lat="48.77568" lon="-1.56751">
        <ele>9</ele>
        <time>2022-03-11T22:05:57Z</time>
      </trkpt>
      <trkpt lat="48.7757" lon="-1.56759">
        <ele>9</ele>
        <time>2022-03-11T22:05:58Z</time>
      </trkpt>
      <trkpt lat="48.77656" lon="-1.56761">
        <ele>9</ele>
        <time>2022-03-11T22:06:14Z</time>
      </trkpt>
      <trkpt lat="48.77697" lon="-1.56757">
        <ele>9</ele>
        <time>2022-03-11T22:06:21Z</time>
      </trkpt>
      <trkpt lat="48.77871" lon="-1.56755">
        <ele>10</ele>
        <time>2022-03-11T22:06:52Z</time>
      </trkpt>
      <trkpt lat="48.78254" lon="-1.56754">
        <ele>9</ele>
        <time>2022-03-11T22:08:00Z</time>
      </trkpt>
      <trkpt lat="48.78421" lon="-1.56756">
        <ele>9</ele>
        <time>2022-03-11T22:08:30Z</time>
      </trkpt>
      <trkpt lat="48.78462" lon="-1.56754">
        <ele>10</ele>
        <time>2022-03-11T22:08:37Z</time>
      </trkpt>
      <trkpt lat="48.78482" lon="-1.5675">
        <ele>11</ele>
        <time>2022-03-11T22:08:41Z</time>
      </trkpt>
      <trkpt lat="48.78518" lon="-1.56738">
        <ele>11</ele>
        <time>2022-03-11T22:08:47Z</time>
      </trkpt>
      <trkpt lat="48.78558" lon="-1.56716">
        <ele>12</ele>
        <time>2022-03-11T22:08:55Z</time>
      </trkpt>
      <trkpt lat="48.78807" lon="-1.56555">
        <ele>10</ele>
        <time>2022-03-11T22:09:43Z</time>
      </trkpt>
      <trkpt lat="48.78816" lon="-1.56549">
        <ele>10</ele>
        <time>2022-03-11T22:09:45Z</time>
      </trkpt>
      <trkpt lat="48.78836" lon="-1.56537">
        <ele>9</ele>
        <time>2022-03-11T22:09:49Z</time>
      </trkpt>
      <trkpt lat="48.78957" lon="-1.5646">
        <ele>9</ele>
        <time>2022-03-11T22:10:12Z</time>
      </trkpt>
      <trkpt lat="48.78998" lon="-1.56443">
        <ele>8</ele>
        <time>2022-03-11T22:10:19Z</time>
      </trkpt>
      <trkpt lat="48.79022" lon="-1.56439">
        <ele>8</ele>
        <time>2022-03-11T22:10:24Z</time>
      </trkpt>
      <trkpt lat="48.79038" lon="-1.56439">
        <ele>8</ele>
        <time>2022-03-11T22:10:27Z</time>
      </trkpt>
      <trkpt lat="48.79113" lon="-1.56453">
        <ele>9</ele>
        <time>2022-03-11T22:10:40Z</time>
      </trkpt>
      <trkpt lat="48.79407" lon="-1.56512">
        <ele>9</ele>
        <time>2022-03-11T22:11:33Z</time>
      </trkpt>
      <trkpt lat="48.79417" lon="-1.56511">
        <ele>9</ele>
        <time>2022-03-11T22:11:35Z</time>
      </trkpt>
      <trkpt lat="48.79481" lon="-1.56524">
        <ele>9</ele>
        <time>2022-03-11T22:11:46Z</time>
      </trkpt>
      <trkpt lat="48.79495" lon="-1.56524">
        <ele>9</ele>
        <time>2022-03-11T22:11:49Z</time>
      </trkpt>
      <trkpt lat="48.79499" lon="-1.56522">
        <ele>9</ele>
        <time>2022-03-11T22:11:49Z</time>
      </trkpt>
      <trkpt lat="48.79506" lon="-1.56527">
        <ele>9</ele>
        <time>2022-03-11T22:11:51Z</time>
      </trkpt>
      <trkpt lat="48.79507" lon="-1.56536">
        <ele>9</ele>
        <time>2022-03-11T22:11:52Z</time>
      </trkpt>
      <trkpt lat="48.79544" lon="-1.56538">
        <ele>8</ele>
        <time>2022-03-11T22:11:58Z</time>
      </trkpt>
      <trkpt lat="48.79584" lon="-1.56545">
        <ele>9</ele>
        <time>2022-03-11T22:12:06Z</time>
      </trkpt>
      <trkpt lat="48.79917" lon="-1.56607">
        <ele>8</ele>
        <time>2022-03-11T22:13:05Z</time>
      </trkpt>
      <trkpt lat="48.79968" lon="-1.56618">
        <ele>7</ele>
        <time>2022-03-11T22:13:14Z</time>
      </trkpt>
      <trkpt lat="48.80025" lon="-1.56639">
        <ele>7</ele>
        <time>2022-03-11T22:13:25Z</time>
      </trkpt>
      <trkpt lat="48.80294" lon="-1.56747">
        <ele>7</ele>
        <time>2022-03-11T22:14:14Z</time>
      </trkpt>
      <trkpt lat="48.80633" lon="-1.56876">
        <ele>15</ele>
        <time>2022-03-11T22:15:17Z</time>
      </trkpt>
      <trkpt lat="48.80642" lon="-1.56884">
        <ele>16</ele>
        <time>2022-03-11T22:15:18Z</time>
      </trkpt>
      <trkpt lat="48.8066" lon="-1.5691">
        <ele>18</ele>
        <time>2022-03-11T22:15:23Z</time>
      </trkpt>
      <trkpt lat="48.80688" lon="-1.56988">
        <ele>21</ele>
        <time>2022-03-11T22:15:33Z</time>
      </trkpt>
      <trkpt lat="48.80701" lon="-1.57015">
        <ele>22</ele>
        <time>2022-03-11T22:15:37Z</time>
      </trkpt>
      <trkpt lat="48.80708" lon="-1.57026">
        <ele>22</ele>
        <time>2022-03-11T22:15:39Z</time>
      </trkpt>
      <trkpt lat="48.80717" lon="-1.57035">
        <ele>22</ele>
        <time>2022-03-11T22:15:41Z</time>
      </trkpt>
      <trkpt lat="48.80731" lon="-1.57044">
        <ele>24</ele>
        <time>2022-03-11T22:15:44Z</time>
      </trkpt>
      <trkpt lat="48.80758" lon="-1.5705">
        <ele>27</ele>
        <time>2022-03-11T22:15:48Z</time>
      </trkpt>
      <trkpt lat="48.80793" lon="-1.57051">
        <ele>27</ele>
        <time>2022-03-11T22:15:55Z</time>
      </trkpt>
      <trkpt lat="48.81067" lon="-1.57043">
        <ele>15</ele>
        <time>2022-03-11T22:16:43Z</time>
      </trkpt>
      <trkpt lat="48.81083" lon="-1.57039">
        <ele>15</ele>
        <time>2022-03-11T22:16:46Z</time>
      </trkpt>
      <trkpt lat="48.81135" lon="-1.57014">
        <ele>14</ele>
        <time>2022-03-11T22:16:56Z</time>
      </trkpt>
      <trkpt lat="48.81286" lon="-1.56977">
        <ele>15</ele>
        <time>2022-03-11T22:17:23Z</time>
      </trkpt>
      <trkpt lat="48.81324" lon="-1.56965">
        <ele>16</ele>
        <time>2022-03-11T22:17:30Z</time>
      </trkpt>
      <trkpt lat="48.8134" lon="-1.56953">
        <ele>16</ele>
        <time>2022-03-11T22:17:33Z</time>
      </trkpt>
      <trkpt lat="48.81354" lon="-1.56939">
        <ele>17</ele>
        <time>2022-03-11T22:17:36Z</time>
      </trkpt>
      <trkpt lat="48.81358" lon="-1.56919">
        <ele>18</ele>
        <time>2022-03-11T22:17:39Z</time>
      </trkpt>
      <trkpt lat="48.81357" lon="-1.56911">
        <ele>18</ele>
        <time>2022-03-11T22:17:40Z</time>
      </trkpt>
      <trkpt lat="48.81368" lon="-1.56877">
        <ele>20</ele>
        <time>2022-03-11T22:17:44Z</time>
      </trkpt>
      <trkpt lat="48.81399" lon="-1.56794">
        <ele>22</ele>
        <time>2022-03-11T22:17:55Z</time>
      </trkpt>
      <trkpt lat="48.81405" lon="-1.56783">
        <ele>22</ele>
        <time>2022-03-11T22:17:57Z</time>
      </trkpt>
      <trkpt lat="48.81496" lon="-1.56924">
        <ele>25</ele>
        <time>2022-03-11T22:18:20Z</time>
      </trkpt>
      <trkpt lat="48.81526" lon="-1.56998">
        <ele>23</ele>
        <time>2022-03-11T22:18:30Z</time>
      </trkpt>
      <trkpt lat="48.81554" lon="-1.57035">
        <ele>21</ele>
        <time>2022-03-11T22:18:37Z</time>
      </trkpt>
      <trkpt lat="48.8156" lon="-1.57038">
        <ele>20</ele>
        <time>2022-03-11T22:18:38Z</time>
      </trkpt>
      <trkpt lat="48.81574" lon="-1.5704">
        <ele>19</ele>
        <time>2022-03-11T22:18:41Z</time>
      </trkpt>
      <trkpt lat="48.81624" lon="-1.57059">
        <ele>15</ele>
        <time>2022-03-11T22:18:50Z</time>
      </trkpt>
      <trkpt lat="48.81628" lon="-1.57055">
        <ele>14</ele>
        <time>2022-03-11T22:18:51Z</time>
      </trkpt>
      <trkpt lat="48.81633" lon="-1.57058">
        <ele>14</ele>
        <time>2022-03-11T22:18:51Z</time>
      </trkpt>
      <trkpt lat="48.81634" lon="-1.57066">
        <ele>13</ele>
        <time>2022-03-11T22:18:52Z</time>
      </trkpt>
      <trkpt lat="48.81629" lon="-1.57071">
        <ele>14</ele>
        <time>2022-03-11T22:18:53Z</time>
      </trkpt>
      <trkpt lat="48.81639" lon="-1.57147">
        <ele>12</ele>
        <time>2022-03-11T22:19:03Z</time>
      </trkpt>
      <trkpt lat="48.81642" lon="-1.57161">
        <ele>12</ele>
        <time>2022-03-11T22:19:04Z</time>
      </trkpt>
      <trkpt lat="48.81651" lon="-1.5718">
        <ele>11</ele>
        <time>2022-03-11T22:19:07Z</time>
      </trkpt>
      <trkpt lat="48.81661" lon="-1.57189">
        <ele>10</ele>
        <time>2022-03-11T22:19:09Z</time>
      </trkpt>
      <trkpt lat="48.81677" lon="-1.57196">
        <ele>10</ele>
        <time>2022-03-11T22:19:12Z</time>
      </trkpt>
      <trkpt lat="48.82145" lon="-1.57339">
        <ele>14</ele>
        <time>2022-03-11T22:20:37Z</time>
      </trkpt>
      <trkpt lat="48.82148" lon="-1.57332">
        <ele>15</ele>
        <time>2022-03-11T22:20:38Z</time>
      </trkpt>
      <trkpt lat="48.82153" lon="-1.5733">
        <ele>15</ele>
        <time>2022-03-11T22:20:39Z</time>
      </trkpt>
      <trkpt lat="48.82156" lon="-1.57331">
        <ele>15</ele>
        <time>2022-03-11T22:20:39Z</time>
      </trkpt>
      <trkpt lat="48.82158" lon="-1.57334">
        <ele>15</ele>
        <time>2022-03-11T22:20:40Z</time>
      </trkpt>
      <trkpt lat="48.8216" lon="-1.57344">
        <ele>15</ele>
        <time>2022-03-11T22:20:41Z</time>
      </trkpt>
      <trkpt lat="48.82158" lon="-1.57351">
        <ele>15</ele>
        <time>2022-03-11T22:20:42Z</time>
      </trkpt>
      <trkpt lat="48.82152" lon="-1.57354">
        <ele>14</ele>
        <time>2022-03-11T22:20:43Z</time>
      </trkpt>
      <trkpt lat="48.82193" lon="-1.57415">
        <ele>17</ele>
        <time>2022-03-11T22:20:53Z</time>
      </trkpt>
      <trkpt lat="48.82204" lon="-1.57429">
        <ele>17</ele>
        <time>2022-03-11T22:20:56Z</time>
      </trkpt>
      <trkpt lat="48.82241" lon="-1.57458">
        <ele>19</ele>
        <time>2022-03-11T22:21:03Z</time>
      </trkpt>
      <trkpt lat="48.82274" lon="-1.57479">
        <ele>19</ele>
        <time>2022-03-11T22:21:10Z</time>
      </trkpt>
      <trkpt lat="48.82328" lon="-1.57505">
        <ele>20</ele>
        <time>2022-03-11T22:21:20Z</time>
      </trkpt>
      <trkpt lat="48.8236" lon="-1.57526">
        <ele>20</ele>
        <time>2022-03-11T22:21:26Z</time>
      </trkpt>
      <trkpt lat="48.82382" lon="-1.57544">
        <ele>20</ele>
        <time>2022-03-11T22:21:30Z</time>
      </trkpt>
      <trkpt lat="48.82417" lon="-1.57592">
        <ele>18</ele>
        <time>2022-03-11T22:21:39Z</time>
      </trkpt>
      <trkpt lat="48.82457" lon="-1.57652">
        <ele>16</ele>
        <time>2022-03-11T22:21:49Z</time>
      </trkpt>
      <trkpt lat="48.8248" lon="-1.57682">
        <ele>15</ele>
        <time>2022-03-11T22:21:54Z</time>
      </trkpt>
      <trkpt lat="48.82565" lon="-1.57765">
        <ele>15</ele>
        <time>2022-03-11T22:22:12Z</time>
      </trkpt>
      <trkpt lat="48.82604" lon="-1.578">
        <ele>17</ele>
        <time>2022-03-11T22:22:20Z</time>
      </trkpt>
      <trkpt lat="48.82689" lon="-1.57849">
        <ele>29</ele>
        <time>2022-03-11T22:22:36Z</time>
      </trkpt>
      <trkpt lat="48.82779" lon="-1.57899">
        <ele>36</ele>
        <time>2022-03-11T22:22:54Z</time>
      </trkpt>
      <trkpt lat="48.82797" lon="-1.57914">
        <ele>36</ele>
        <time>2022-03-11T22:22:57Z</time>
      </trkpt>
      <trkpt lat="48.82893" lon="-1.58027">
        <ele>35</ele>
        <time>2022-03-11T22:23:19Z</time>
      </trkpt>
      <trkpt lat="48.82961" lon="-1.581">
        <ele>32</ele>
        <time>2022-03-11T22:23:34Z</time>
      </trkpt>
      <trkpt lat="48.83095" lon="-1.58204">
        <ele>22</ele>
        <time>2022-03-11T22:24:00Z</time>
      </trkpt>
      <trkpt lat="48.83133" lon="-1.58242">
        <ele>22</ele>
        <time>2022-03-11T22:24:08Z</time>
      </trkpt>
      <trkpt lat="48.8315" lon="-1.58264">
        <ele>22</ele>
        <time>2022-03-11T22:24:12Z</time>
      </trkpt>
      <trkpt lat="48.83156" lon="-1.5826">
        <ele>23</ele>
        <time>2022-03-11T22:24:14Z</time>
      </trkpt>
      <trkpt lat="48.83164" lon="-1.58263">
        <ele>23</ele>
        <time>2022-03-11T22:24:15Z</time>
      </trkpt>
      <trkpt lat="48.83167" lon="-1.58267">
        <ele>23</ele>
        <time>2022-03-11T22:24:16Z</time>
      </trkpt>
      <trkpt lat="48.83169" lon="-1.58276">
        <ele>23</ele>
        <time>2022-03-11T22:24:17Z</time>
      </trkpt>
      <trkpt lat="48.83168" lon="-1.58282">
        <ele>23</ele>
        <time>2022-03-11T22:24:18Z</time>
      </trkpt>
      <trkpt lat="48.83164" lon="-1.5829">
        <ele>23</ele>
        <time>2022-03-11T22:24:19Z</time>
      </trkpt>
      <trkpt lat="48.83161" lon="-1.58293">
        <ele>23</ele>
        <time>2022-03-11T22:24:19Z</time>
      </trkpt>
      <trkpt lat="48.8318" lon="-1.58364">
        <ele>25</ele>
        <time>2022-03-11T22:24:28Z</time>
      </trkpt>
      <trkpt lat="48.83189" lon="-1.58387">
        <ele>25</ele>
        <time>2022-03-11T22:24:32Z</time>
      </trkpt>
      <trkpt lat="48.83271" lon="-1.58513">
        <ele>33</ele>
        <time>2022-03-11T22:24:52Z</time>
      </trkpt>
      <trkpt lat="48.83289" lon="-1.58556">
        <ele>35</ele>
        <time>2022-03-11T22:24:58Z</time>
      </trkpt>
      <trkpt lat="48.83333" lon="-1.58718">
        <ele>35</ele>
        <time>2022-03-11T22:25:19Z</time>
      </trkpt>
      <trkpt lat="48.83341" lon="-1.58719">
        <ele>35</ele>
        <time>2022-03-11T22:25:20Z</time>
      </trkpt>
      <trkpt lat="48.83345" lon="-1.58725">
        <ele>35</ele>
        <time>2022-03-11T22:25:21Z</time>
      </trkpt>
      <trkpt lat="48.83346" lon="-1.58733">
        <ele>35</ele>
        <time>2022-03-11T22:25:22Z</time>
      </trkpt>
      <trkpt lat="48.83344" lon="-1.5874">
        <ele>35</ele>
        <time>2022-03-11T22:25:23Z</time>
      </trkpt>
      <trkpt lat="48.8334" lon="-1.58744">
        <ele>35</ele>
        <time>2022-03-11T22:25:24Z</time>
      </trkpt>
      <trkpt lat="48.8337" lon="-1.58865">
        <ele>34</ele>
        <time>2022-03-11T22:25:39Z</time>
      </trkpt>
      <trkpt lat="48.83374" lon="-1.58902">
        <ele>33</ele>
        <time>2022-03-11T22:25:43Z</time>
      </trkpt>
      <trkpt lat="48.83373" lon="-1.58925">
        <ele>32</ele>
        <time>2022-03-11T22:25:46Z</time>
      </trkpt>
      <trkpt lat="48.83354" lon="-1.59006">
        <ele>27</ele>
        <time>2022-03-11T22:25:56Z</time>
      </trkpt>
      <trkpt lat="48.83352" lon="-1.59026">
        <ele>25</ele>
        <time>2022-03-11T22:25:59Z</time>
      </trkpt>
      <trkpt lat="48.83352" lon="-1.59046">
        <ele>23</ele>
        <time>2022-03-11T22:26:01Z</time>
      </trkpt>
      <trkpt lat="48.83355" lon="-1.59061">
        <ele>22</ele>
        <time>2022-03-11T22:26:03Z</time>
      </trkpt>
      <trkpt lat="48.83401" lon="-1.59184">
        <ele>16</ele>
        <time>2022-03-11T22:26:19Z</time>
      </trkpt>
      <trkpt lat="48.8343" lon="-1.59274">
        <ele>11</ele>
        <time>2022-03-11T22:26:31Z</time>
      </trkpt>
      <trkpt lat="48.83442" lon="-1.59305">
        <ele>10</ele>
        <time>2022-03-11T22:26:35Z</time>
      </trkpt>
      <trkpt lat="48.83539" lon="-1.59493">
        <ele>12</ele>
        <time>2022-03-11T22:27:03Z</time>
      </trkpt>
      <trkpt lat="48.83557" lon="-1.5955">
        <ele>12</ele>
        <time>2022-03-11T22:27:11Z</time>
      </trkpt>
      <trkpt lat="48.83565" lon="-1.59551">
        <ele>12</ele>
        <time>2022-03-11T22:27:12Z</time>
      </trkpt>
      <trkpt lat="48.83568" lon="-1.59554">
        <ele>12</ele>
        <time>2022-03-11T22:27:13Z</time>
      </trkpt>
      <trkpt lat="48.83572" lon="-1.59564">
        <ele>12</ele>
        <time>2022-03-11T22:27:14Z</time>
      </trkpt>
      <trkpt lat="48.83572" lon="-1.59575">
        <ele>12</ele>
        <time>2022-03-11T22:27:15Z</time>
      </trkpt>
      <trkpt lat="48.83567" lon="-1.59584">
        <ele>11</ele>
        <time>2022-03-11T22:27:17Z</time>
      </trkpt>
      <trkpt lat="48.8356" lon="-1.59588">
        <ele>11</ele>
        <time>2022-03-11T22:27:18Z</time>
      </trkpt>
      <trkpt lat="48.83557" lon="-1.59657">
        <ele>11</ele>
        <time>2022-03-11T22:27:26Z</time>
      </trkpt>
      <trkpt lat="48.83559" lon="-1.59702">
        <ele>11</ele>
        <time>2022-03-11T22:27:31Z</time>
      </trkpt>
      <trkpt lat="48.83566" lon="-1.59731">
        <ele>11</ele>
        <time>2022-03-11T22:27:35Z</time>
      </trkpt>
      <trkpt lat="48.83598" lon="-1.59816">
        <ele>11</ele>
        <time>2022-03-11T22:27:47Z</time>
      </trkpt>
      <trkpt lat="48.83661" lon="-1.5995">
        <ele>9</ele>
        <time>2022-03-11T22:28:06Z</time>
      </trkpt>
      <trkpt lat="48.83713" lon="-1.59855">
        <ele>13</ele>
        <time>2022-03-11T22:28:20Z</time>
      </trkpt>
      <trkpt lat="48.83748" lon="-1.59787">
        <ele>12</ele>
        <time>2022-03-11T22:28:30Z</time>
      </trkpt>
      <trkpt lat="48.83736" lon="-1.59771">
        <ele>12</ele>
        <time>2022-03-11T22:28:33Z</time>
      </trkpt>
      <trkpt lat="48.83727" lon="-1.59755">
        <ele>12</ele>
        <time>2022-03-11T22:28:36Z</time>
      </trkpt>
      <trkpt lat="48.83713" lon="-1.5973">
        <ele>12</ele>
        <time>2022-03-11T22:28:40Z</time>
      </trkpt>
      <trkpt lat="48.83708" lon="-1.59612">
        <ele>12</ele>
        <time>2022-03-11T22:28:53Z</time>
      </trkpt>
      <trkpt lat="48.8371" lon="-1.59581">
        <ele>12</ele>
        <time>2022-03-11T22:28:57Z</time>
      </trkpt>
      <trkpt lat="48.83731" lon="-1.59454">
        <ele>18</ele>
        <time>2022-03-11T22:29:12Z</time>
      </trkpt>
      <trkpt lat="48.83737" lon="-1.59394">
        <ele>19</ele>
        <time>2022-03-11T22:29:20Z</time>
      </trkpt>
      <trkpt lat="48.8377" lon="-1.58952">
        <ele>27</ele>
        <time>2022-03-11T22:30:12Z</time>
      </trkpt>
      <trkpt lat="48.83777" lon="-1.589">
        <ele>27</ele>
        <time>2022-03-11T22:30:18Z</time>
      </trkpt>
      <trkpt lat="48.83774" lon="-1.58898">
        <ele>27</ele>
        <time>2022-03-11T22:30:18Z</time>
      </trkpt>
      <trkpt lat="48.8377" lon="-1.5889">
        <ele>28</ele>
        <time>2022-03-11T22:30:20Z</time>
      </trkpt>
      <trkpt lat="48.8377" lon="-1.58886">
        <ele>28</ele>
        <time>2022-03-11T22:30:20Z</time>
      </trkpt>
      <trkpt lat="48.83772" lon="-1.58877">
        <ele>28</ele>
        <time>2022-03-11T22:30:21Z</time>
      </trkpt>
      <trkpt lat="48.83774" lon="-1.58874">
        <ele>28</ele>
        <time>2022-03-11T22:30:22Z</time>
      </trkpt>
      <trkpt lat="48.8378" lon="-1.58872">
        <ele>27</ele>
        <time>2022-03-11T22:30:23Z</time>
      </trkpt>
      <trkpt lat="48.83785" lon="-1.58776">
        <ele>29</ele>
        <time>2022-03-11T22:30:34Z</time>
      </trkpt>
      <trkpt lat="48.83803" lon="-1.58555">
        <ele>45</ele>
        <time>2022-03-11T22:31:00Z</time>
      </trkpt>
      <trkpt lat="48.83802" lon="-1.58556">
        <ele>45</ele>
        <time>2022-03-11T16:28:15Z</time>
      </trkpt>
      <trkpt lat="48.83805" lon="-1.58529">
        <ele>46</ele>
        <time>2022-03-11T16:28:18Z</time>
      </trkpt>
      <trkpt lat="48.83804" lon="-1.58513">
        <ele>47</ele>
        <time>2022-03-11T16:28:20Z</time>
      </trkpt>
      <trkpt lat="48.83801" lon="-1.58512">
        <ele>47</ele>
        <time>2022-03-11T16:28:21Z</time>
      </trkpt>
      <trkpt lat="48.83796" lon="-1.58505">
        <ele>47</ele>
        <time>2022-03-11T16:28:22Z</time>
      </trkpt>
      <trkpt lat="48.83795" lon="-1.58497">
        <ele>47</ele>
        <time>2022-03-11T16:28:23Z</time>
      </trkpt>
      <trkpt lat="48.83798" lon="-1.58486">
        <ele>48</ele>
        <time>2022-03-11T16:28:24Z</time>
      </trkpt>
      <trkpt lat="48.83712" lon="-1.58308">
        <ele>42</ele>
        <time>2022-03-11T16:28:50Z</time>
      </trkpt>
      <trkpt lat="48.83631" lon="-1.58131">
        <ele>40</ele>
        <time>2022-03-11T16:29:15Z</time>
      </trkpt>
      <trkpt lat="48.83576" lon="-1.58018">
        <ele>39</ele>
        <time>2022-03-11T16:29:32Z</time>
      </trkpt>
      <trkpt lat="48.83566" lon="-1.57992">
        <ele>39</ele>
        <time>2022-03-11T16:29:35Z</time>
      </trkpt>
      <trkpt lat="48.83307" lon="-1.57443">
        <ele>44</ele>
        <time>2022-03-11T16:30:54Z</time>
      </trkpt>
      <trkpt lat="48.83302" lon="-1.57432">
        <ele>45</ele>
        <time>2022-03-11T16:30:56Z</time>
      </trkpt>
      <trkpt lat="48.83291" lon="-1.57417">
        <ele>45</ele>
        <time>2022-03-11T16:30:59Z</time>
      </trkpt>
      <trkpt lat="48.83277" lon="-1.5739">
        <ele>45</ele>
        <time>2022-03-11T16:31:03Z</time>
      </trkpt>
      <trkpt lat="48.83271" lon="-1.57382">
        <ele>45</ele>
        <time>2022-03-11T16:31:04Z</time>
      </trkpt>
      <trkpt lat="48.83263" lon="-1.5738">
        <ele>45</ele>
        <time>2022-03-11T16:31:05Z</time>
      </trkpt>
      <trkpt lat="48.83191" lon="-1.57435">
        <ele>42</ele>
        <time>2022-03-11T16:31:20Z</time>
      </trkpt>
      <trkpt lat="48.83161" lon="-1.57453">
        <ele>41</ele>
        <time>2022-03-11T16:31:26Z</time>
      </trkpt>
      <trkpt lat="48.83027" lon="-1.57562">
        <ele>39</ele>
        <time>2022-03-11T16:31:53Z</time>
      </trkpt>
      <trkpt lat="48.83005" lon="-1.57577">
        <ele>39</ele>
        <time>2022-03-11T16:31:57Z</time>
      </trkpt>
      <trkpt lat="48.83005" lon="-1.57584">
        <ele>39</ele>
        <time>2022-03-11T16:31:58Z</time>
      </trkpt>
      <trkpt lat="48.83003" lon="-1.5759">
        <ele>39</ele>
        <time>2022-03-11T16:31:58Z</time>
      </trkpt>
      <trkpt lat="48.83" lon="-1.57594">
        <ele>39</ele>
        <time>2022-03-11T16:31:59Z</time>
      </trkpt>
      <trkpt lat="48.82996" lon="-1.57594">
        <ele>39</ele>
        <time>2022-03-11T16:32:00Z</time>
      </trkpt>
      <trkpt lat="48.82991" lon="-1.57592">
        <ele>39</ele>
        <time>2022-03-11T16:32:01Z</time>
      </trkpt>
      <trkpt lat="48.82988" lon="-1.57586">
        <ele>39</ele>
        <time>2022-03-11T16:32:02Z</time>
      </trkpt>
      <trkpt lat="48.82981" lon="-1.57588">
        <ele>39</ele>
        <time>2022-03-11T16:32:03Z</time>
      </trkpt>
      <trkpt lat="48.82937" lon="-1.57613">
        <ele>39</ele>
        <time>2022-03-11T16:32:11Z</time>
      </trkpt>
      <trkpt lat="48.82907" lon="-1.57638">
        <ele>38</ele>
        <time>2022-03-11T16:32:17Z</time>
      </trkpt>
      <trkpt lat="48.8288" lon="-1.57668">
        <ele>38</ele>
        <time>2022-03-11T16:32:23Z</time>
      </trkpt>
      <trkpt lat="48.82858" lon="-1.57698">
        <ele>37</ele>
        <time>2022-03-11T16:32:29Z</time>
      </trkpt>
      <trkpt lat="48.82843" lon="-1.57725">
        <ele>36</ele>
        <time>2022-03-11T16:32:33Z</time>
      </trkpt>
      <trkpt lat="48.82828" lon="-1.57755">
        <ele>35</ele>
        <time>2022-03-11T16:32:37Z</time>
      </trkpt>
      <trkpt lat="48.82794" lon="-1.57845">
        <ele>34</ele>
        <time>2022-03-11T16:32:49Z</time>
      </trkpt>
      <trkpt lat="48.82792" lon="-1.57885">
        <ele>36</ele>
        <time>2022-03-11T16:32:54Z</time>
      </trkpt>
      <trkpt lat="48.82797" lon="-1.57914">
        <ele>36</ele>
        <time>2022-03-11T16:32:58Z</time>
      </trkpt>
      <trkpt lat="48.82893" lon="-1.58027">
        <ele>35</ele>
        <time>2022-03-11T16:33:19Z</time>
      </trkpt>
      <trkpt lat="48.82961" lon="-1.581">
        <ele>32</ele>
        <time>2022-03-11T16:33:34Z</time>
      </trkpt>
      <trkpt lat="48.83095" lon="-1.58204">
        <ele>22</ele>
        <time>2022-03-11T16:34:01Z</time>
      </trkpt>
      <trkpt lat="48.83133" lon="-1.58242">
        <ele>22</ele>
        <time>2022-03-11T16:34:09Z</time>
      </trkpt>
      <trkpt lat="48.8315" lon="-1.58264">
        <ele>22</ele>
        <time>2022-03-11T16:34:13Z</time>
      </trkpt>
      <trkpt lat="48.83156" lon="-1.5826">
        <ele>23</ele>
        <time>2022-03-11T16:34:14Z</time>
      </trkpt>
      <trkpt lat="48.83164" lon="-1.58263">
        <ele>23</ele>
        <time>2022-03-11T16:34:15Z</time>
      </trkpt>
      <trkpt lat="48.83167" lon="-1.58267">
        <ele>23</ele>
        <time>2022-03-11T16:34:16Z</time>
      </trkpt>
      <trkpt lat="48.83169" lon="-1.58276">
        <ele>23</ele>
        <time>2022-03-11T16:34:17Z</time>
      </trkpt>
      <trkpt lat="48.83168" lon="-1.58282">
        <ele>23</ele>
        <time>2022-03-11T16:34:18Z</time>
      </trkpt>
      <trkpt lat="48.83164" lon="-1.5829">
        <ele>23</ele>
        <time>2022-03-11T16:34:19Z</time>
      </trkpt>
      <trkpt lat="48.83161" lon="-1.58293">
        <ele>23</ele>
        <time>2022-03-11T16:34:20Z</time>
      </trkpt>
      <trkpt lat="48.8318" lon="-1.58364">
        <ele>25</ele>
        <time>2022-03-11T16:34:29Z</time>
      </trkpt>
      <trkpt lat="48.83189" lon="-1.58387">
        <ele>25</ele>
        <time>2022-03-11T16:34:32Z</time>
      </trkpt>
      <trkpt lat="48.83271" lon="-1.58513">
        <ele>33</ele>
        <time>2022-03-11T16:34:53Z</time>
      </trkpt>
      <trkpt lat="48.83289" lon="-1.58556">
        <ele>35</ele>
        <time>2022-03-11T16:34:59Z</time>
      </trkpt>
      <trkpt lat="48.83333" lon="-1.58718">
        <ele>35</ele>
        <time>2022-03-11T16:35:19Z</time>
      </trkpt>
      <trkpt lat="48.83341" lon="-1.58719">
        <ele>35</ele>
        <time>2022-03-11T16:35:21Z</time>
      </trkpt>
      <trkpt lat="48.83345" lon="-1.58725">
        <ele>35</ele>
        <time>2022-03-11T16:35:22Z</time>
      </trkpt>
      <trkpt lat="48.83346" lon="-1.58733">
        <ele>35</ele>
        <time>2022-03-11T16:35:23Z</time>
      </trkpt>
      <trkpt lat="48.83344" lon="-1.5874">
        <ele>35</ele>
        <time>2022-03-11T16:35:23Z</time>
      </trkpt>
      <trkpt lat="48.8334" lon="-1.58744">
        <ele>35</ele>
        <time>2022-03-11T16:35:24Z</time>
      </trkpt>
      <trkpt lat="48.8337" lon="-1.58865">
        <ele>34</ele>
        <time>2022-03-11T16:35:39Z</time>
      </trkpt>
      <trkpt lat="48.83374" lon="-1.58902">
        <ele>33</ele>
        <time>2022-03-11T16:35:44Z</time>
      </trkpt>
      <trkpt lat="48.83373" lon="-1.58925">
        <ele>32</ele>
        <time>2022-03-11T16:35:47Z</time>
      </trkpt>
      <trkpt lat="48.83354" lon="-1.59006">
        <ele>27</ele>
        <time>2022-03-11T16:35:57Z</time>
      </trkpt>
      <trkpt lat="48.83352" lon="-1.59026">
        <ele>25</ele>
        <time>2022-03-11T16:35:59Z</time>
      </trkpt>
      <trkpt lat="48.83352" lon="-1.59046">
        <ele>23</ele>
        <time>2022-03-11T16:36:01Z</time>
      </trkpt>
      <trkpt lat="48.83355" lon="-1.59061">
        <ele>22</ele>
        <time>2022-03-11T16:36:03Z</time>
      </trkpt>
      <trkpt lat="48.83401" lon="-1.59184">
        <ele>16</ele>
        <time>2022-03-11T16:36:20Z</time>
      </trkpt>
      <trkpt lat="48.8343" lon="-1.59274">
        <ele>11</ele>
        <time>2022-03-11T16:36:31Z</time>
      </trkpt>
      <trkpt lat="48.83442" lon="-1.59305">
        <ele>10</ele>
        <time>2022-03-11T16:36:36Z</time>
      </trkpt>
      <trkpt lat="48.83539" lon="-1.59493">
        <ele>12</ele>
        <time>2022-03-11T16:37:04Z</time>
      </trkpt>
      <trkpt lat="48.83557" lon="-1.5955">
        <ele>12</ele>
        <time>2022-03-11T16:37:11Z</time>
      </trkpt>
      <trkpt lat="48.83565" lon="-1.59551">
        <ele>12</ele>
        <time>2022-03-11T16:37:12Z</time>
      </trkpt>
      <trkpt lat="48.83568" lon="-1.59554">
        <ele>12</ele>
        <time>2022-03-11T16:37:13Z</time>
      </trkpt>
      <trkpt lat="48.83572" lon="-1.59564">
        <ele>12</ele>
        <time>2022-03-11T16:37:15Z</time>
      </trkpt>
      <trkpt lat="48.83572" lon="-1.59575">
        <ele>12</ele>
        <time>2022-03-11T16:37:16Z</time>
      </trkpt>
      <trkpt lat="48.83567" lon="-1.59584">
        <ele>11</ele>
        <time>2022-03-11T16:37:17Z</time>
      </trkpt>
      <trkpt lat="48.8356" lon="-1.59588">
        <ele>11</ele>
        <time>2022-03-11T16:37:19Z</time>
      </trkpt>
      <trkpt lat="48.83557" lon="-1.59657">
        <ele>11</ele>
        <time>2022-03-11T16:37:27Z</time>
      </trkpt>
      <trkpt lat="48.83559" lon="-1.59702">
        <ele>11</ele>
        <time>2022-03-11T16:37:32Z</time>
      </trkpt>
      <trkpt lat="48.83566" lon="-1.59731">
        <ele>11</ele>
        <time>2022-03-11T16:37:35Z</time>
      </trkpt>
      <trkpt lat="48.83598" lon="-1.59816">
        <ele>11</ele>
        <time>2022-03-11T16:37:47Z</time>
      </trkpt>
      <trkpt lat="48.83661" lon="-1.5995">
        <ele>9</ele>
        <time>2022-03-11T16:38:06Z</time>
      </trkpt>
      <trkpt lat="48.83713" lon="-1.59855">
        <ele>13</ele>
        <time>2022-03-11T16:38:21Z</time>
      </trkpt>
      <trkpt lat="48.83748" lon="-1.59787">
        <ele>12</ele>
        <time>2022-03-11T16:38:31Z</time>
      </trkpt>
      <trkpt lat="48.83736" lon="-1.59771">
        <ele>12</ele>
        <time>2022-03-11T16:38:34Z</time>
      </trkpt>
      <trkpt lat="48.83727" lon="-1.59755">
        <ele>12</ele>
        <time>2022-03-11T16:38:36Z</time>
      </trkpt>
      <trkpt lat="48.83713" lon="-1.5973">
        <ele>12</ele>
        <time>2022-03-11T16:38:40Z</time>
      </trkpt>
      <trkpt lat="48.83708" lon="-1.59612">
        <ele>12</ele>
        <time>2022-03-11T16:38:54Z</time>
      </trkpt>
      <trkpt lat="48.8371" lon="-1.59581">
        <ele>12</ele>
        <time>2022-03-11T16:38:57Z</time>
      </trkpt>
      <trkpt lat="48.83731" lon="-1.59454">
        <ele>18</ele>
        <time>2022-03-11T16:39:13Z</time>
      </trkpt>
      <trkpt lat="48.83737" lon="-1.59394">
        <ele>19</ele>
        <time>2022-03-11T16:39:20Z</time>
      </trkpt>
      <trkpt lat="48.8377" lon="-1.58952">
        <ele>27</ele>
        <time>2022-03-11T16:40:12Z</time>
      </trkpt>
      <trkpt lat="48.83777" lon="-1.589">
        <ele>27</ele>
        <time>2022-03-11T16:40:18Z</time>
      </trkpt>
      <trkpt lat="48.83774" lon="-1.58898">
        <ele>27</ele>
        <time>2022-03-11T16:40:19Z</time>
      </trkpt>
      <trkpt lat="48.8377" lon="-1.5889">
        <ele>28</ele>
        <time>2022-03-11T16:40:20Z</time>
      </trkpt>
      <trkpt lat="48.8377" lon="-1.58886">
        <ele>28</ele>
        <time>2022-03-11T16:40:20Z</time>
      </trkpt>
      <trkpt lat="48.83772" lon="-1.58877">
        <ele>28</ele>
        <time>2022-03-11T16:40:22Z</time>
      </trkpt>
      <trkpt lat="48.83774" lon="-1.58874">
        <ele>28</ele>
        <time>2022-03-11T16:40:22Z</time>
      </trkpt>
      <trkpt lat="48.8378" lon="-1.58872">
        <ele>27</ele>
        <time>2022-03-11T16:40:23Z</time>
      </trkpt>
      <trkpt lat="48.83785" lon="-1.58776">
        <ele>29</ele>
        <time>2022-03-11T16:40:34Z</time>
      </trkpt>
      <trkpt lat="48.83802" lon="-1.58559">
        <ele>45</ele>
        <time>2022-03-11T16:41:00Z</time>
      </trkpt>
    </trkseg>
  </trk>
</gpx>